     2.10           OBSERVATION DATA    G (GPS)             RINEX VERSION / TYPE
teqc 2000Jul20 simon 20010219 20:05:46UTC                   PGM / RUN BY / DATE
Linux 2.0.36|Pentium II|gcc|Linux|486/DX+                   COMMENT
BIT 2 OF LLI FLAGS DATA COLLECTED UNDER A/S CONDITION       COMMENT
GS16                                                        MARKER NAME
gs16                                                        MARKER NUMBER
KEN -Unknown-                                               OBSERVER / AGENCY
488 ASHTECH Z-XII3 4J30                                     REC # / TYPE / VERS
009 ASH701933_M                                             ANT # / TYPE
 -2418318.0000 -4604949.0000  3681198.0000                  APPROX POSITION XYZ
        0.1480        0.0000        0.0000                  ANTENNA: DELTA H/E/N
     1     1                                                WAVELENGTH FACT L1/2
     7    L1    L2    C1    P1    P2    S1    S2            # / TYPES OF OBSERV
    30.0000                                                 INTERVAL
SNR is mapped to RINEX snr flag value [1-9]                 COMMENT
L1: 1 -> 1; 90 -> 5; 210 -> 9                               COMMENT
L2: 1 -> 1; 150 -> 5; 250 -> 9                              COMMENT
Original height was 0.2120                                  COMMENT
New height found assuming measured height 0.2120            COMMENT
and assuming radial 0.0000 vertical -0.0640                 COMMENT
  2000    11    20    16     4   30.0000000     GPS         TIME OF FIRST OBS
                                                            END OF HEADER
 00 11 20 16  4 30.0000000  0  7G 1G30G29G25G22G20G11
    -72287.71759    -34219.75356  20697146.862    20697146.454    20697155.047
       224.000         168.000
      9386.80953                  22633822.969
       219.000          74.000
     26341.48455                  21690543.500
       221.000         152.000
      1495.21957                  18441616.308                    18441621.965
       235.000         193.000
    -45684.71053                  20628302.297
       187.000          74.000
   -113332.95359    -72255.37457  19228783.146    19228781.610    19228789.832
       240.000         197.000
     37704.81059     25426.20556  19406469.289    19406468.923    19406476.385
       233.000         179.000
 00 11 20 16  5 29.9990000  0  6G 1G29G25G22G20G11
   -261597.42859   -181733.90146  23059461.576    23059460.517    23059470.326
       232.000         180.000
    118234.91459     87759.43555  24103884.178    24103884.164    24103897.751
       215.000         159.000
     23411.08859     13912.83557  20842988.982    20842988.529    20842994.824
       242.000         210.000
   -242760.05145                  22978513.013
       219.000         159.000
   -327091.66249   -238820.58447  21586445.747    21586444.355    21586452.427
       239.000         196.000
    100735.64049     74540.82047  21816803.645    21816802.916    21816810.547
       242.000         198.000
 00 11 20 16  5 59.9990000  0  6G 1G29G25G22G20G11
   -355820.20449   -255154.26046  23041531.627    23041530.716    23041540.510
       232.000         183.000
    157937.98149    118696.66645  24111439.696    24111439.515    24111451.964
       214.000         162.000
     32268.69849     20814.80147  20844674.485    20844673.987    20844680.379
       241.000         209.000
    -38760.00743                  22954538.362
       219.000          74.000
   -433370.67449   -321635.40247  21566221.538    21566220.206    21566228.184
       240.000         196.000
    133121.27749     99776.23647  21822966.521    21822965.760    21822973.390
       241.000         197.000
 00 11 20 16  6 29.9990000  0  6G 1G29G25G22G20G11
   -449635.96449   -328257.46346  23023679.206    23023678.281    23023688.039
       233.000         183.000
    197942.10049    149868.42945  24119052.534    24119052.171    24119064.791
       215.000         159.000
     41826.24749     28262.18047  20846493.181    20846492.658    20846499.158
       241.000         209.000
   -136587.64346                  22930647.626
       219.000         165.000
   -539126.01949   -404042.17947  21546097.020    21546095.702    21546103.598
       240.000         196.000
    166190.42849    125544.27347  21829259.513    21829258.689    21829266.321
       242.000         197.000
 00 11 20 16  6 59.9990000  0  6G 1G29G25G22G20G11
   -543020.15849   -401024.39646  23005908.844    23005907.925    23005917.712
       231.000         181.000
    238272.19549    181294.23545  24126727.407    24126727.021    24126739.471
       212.000         161.000
     52106.86449     36272.98947  20848449.473    20848448.968    20848455.523
       241.000         210.000
   -234050.28746                  22906846.090                    22906856.594
       219.000         165.000
   -644330.65549   -486019.82547  21526077.248    21526075.987    21526083.861
       240.000         197.000
    199965.43049    151862.31947  21835686.858    21835685.947    21835693.524
       242.000         198.000
 00 11 20 16  7 29.9990000  0  6G 1G29G25G22G20G11
   -635991.28349   -473469.43546  22988217.102    22988216.172    22988225.983
       229.000         181.000
    278909.73149    212959.55445  24134460.623    24134460.122    24134472.735
       216.000         160.000
     63089.41249     44830.75447  20850539.427    20850538.896    20850545.468
       242.000         210.000
   -884683.73749   -331160.08546  22883130.744    22883128.142    22883141.121
       220.000         166.000
   -749000.99049   -567581.13747  21506159.174    21506157.918    21506165.778
       240.000         197.000
    234424.99049    178713.78247  21842244.404    21842243.466    21842251.006
       242.000         198.000
 00 11 20 16  7 59.9990000  0  6G 1G29G25G22G20G11
   -728559.48449   -545600.52746  22970602.056    22970601.065    22970610.889
       229.000         182.000
    319844.74449    244856.68246  24142250.618    24142250.011    24142262.604
       216.000         163.000
     74762.85249     53926.87147  20852760.940    20852760.338    20852766.884
       244.000         211.000
  -1008861.77959   -427922.08956  22859500.306    22859498.577    22859510.944
       220.000         166.000
   -853144.53449   -648731.96547  21486341.341    21486340.101    21486347.953
       240.000         197.000
    269556.68349    206089.00247  21848929.946    21848928.911    21848936.431
       242.000         198.000
 00 11 20 16  8 29.9990000  0  6G 1G29G25G22G20G11
   -820753.83049   -617440.29946  22953057.976    22953057.060    22953066.921
       228.000         180.000
    361048.36149    276963.17245  24150091.882    24150091.063    24150103.499
       217.000         161.000
     87096.17249     63537.17147  20855108.040    20855107.377    20855113.876
       244.000         212.000
  -1132618.46649   -524355.78046  22835950.109    22835948.588    22835960.679
       221.000         167.000
   -956787.89749   -729493.05347  21466618.688    21466617.463    21466625.316
       240.000         197.000
    305329.29249    233963.65047  21855737.316    21855736.284    21855743.800
       241.000         197.000
 00 11 20 16  8 59.9990000  0  6G 1G29G25G22G20G11
   -912619.34649   -689023.82346  22935576.530    22935575.629    22935585.543
       229.000         180.000
    402475.71549    309243.91646  24157975.372    24157974.537    24157987.052
       218.000         163.000
    100042.45849     73625.09847  20857571.794    20857571.076    20857577.523
       245.000         212.000
  -1255995.20549   -620493.42046  22812472.249    22812470.825    22812482.725
       221.000         167.000
  -1059973.91649   -809897.76147  21446983.094    21446981.872    21446989.705
       240.000         197.000
    341694.95149    262300.39647  21862657.579    21862656.512    21862664.097
       241.000         197.000
 00 11 20 16  9 29.9990000  0  6G 1G29G25G22G20G11
  -1004195.28449   -760381.71046  22918150.174    22918149.304    22918159.246
       230.000         179.000
    444087.84349    341668.65745  24165894.236    24165893.247    24165905.717
       218.000         158.000
    113561.27949     84159.15047  20860144.515    20860143.734    20860150.123
       245.000         211.000
  -1379028.06449   -716363.12246  22789059.906    22789058.511    22789070.305
       221.000         166.000
  -1162739.20749   -889974.63347  21427427.534    21427426.330    21427434.172
       241.000         197.000
    378612.00549    291066.79147  21869682.717    21869681.677    21869689.294
       241.000         196.000
 00 11 20 16  9 59.9990000  0  6G 1G29G25G22G20G11
  -1095499.25149   -831527.68246  22900775.742    22900774.771    22900784.693
       222.000         169.000
    485867.31249    374223.80445  24173844.886    24173843.835    24173856.255
       213.000         161.000
    127633.51149     95124.43047  20862822.531    20862821.710    20862828.038
       245.000         211.000
  -1501731.35649   -811976.01946  22765710.224    22765708.827    22765720.593
       219.000         167.000
  -1265099.01449   -969735.51647  21407949.122    21407947.936    21407955.812
       242.000         197.000
    416060.45649    320247.25347  21876809.086    21876807.981    21876815.640
       240.000         196.000
 00 11 20 16 10 29.9990000  0  6G 1G29G25G22G20G11
  -1186741.26949   -902625.40046  22883413.020    22883412.043    22883421.932
       229.000         179.000
    527604.19649    406745.76845  24181787.104    24181786.154    24181798.671
       216.000         162.000
    142047.08749    106355.68947  20865565.465    20865564.613    20865570.928
       245.000         211.000
  -1624311.27149   -907492.79046  22742383.908    22742382.614    22742394.424
       219.000         167.000
  -1367260.76449  -1049342.09447  21388508.429    21388507.228    21388515.119
       240.000         197.000
    453827.84449    349676.25947  21883996.077    21883994.966    21884002.687
       239.000         196.000
 00 11 20 16 10 59.9990000  0  6G 1G29G25G22G20G11
  -1277892.39549   -973652.28746  22866067.621    22866066.616    22866076.471
       228.000         179.000
    569327.66349    439257.31245  24189727.271    24189726.141    24189738.510
       214.000         156.000
    156829.42049    117874.29847  20868378.503    20868377.676    20868384.002
       244.000         211.000
  -1746734.89949  -1002887.77046  22719087.370    22719086.141    22719097.981
       221.000         169.000
  -1469193.17649  -1128769.95847  21369111.329    21369110.153    21369118.080
       241.000         198.000
    491940.58449    379374.36147  21891248.769    21891247.674    21891255.445
       240.000         196.000
 00 11 20 16 11 29.9990000  0  6G 1G29G25G22G20G11
  -1368907.19049  -1044572.93346  22848748.125    22848747.110    22848756.963
       230.000         180.000
    611083.62949    471794.04145  24197673.221    24197672.068    24197684.851
       216.000         158.000
    172024.17849    129714.27447  20871270.055    20871269.217    20871275.556
       244.000         211.000
  -1868953.39849  -1098122.91446  22695829.915    22695828.734    22695840.582
       222.000         170.000
  -1570848.51149  -1207981.91547  21349766.965    21349765.790    21349773.747
       240.000         197.000
    530441.72549    409375.10747  21898575.426    21898574.308    21898582.087
       240.000         196.000
 00 11 20 16 11 59.9990000  0  6G 1G29G25G22G20G11
  -1459783.64649  -1115385.78046  22831454.889    22831453.903    22831463.807
       229.000         181.000
    652873.95549    504357.65145  24205625.585    24205624.591    24205637.502
       210.000         158.000
    187631.56649    141875.77847  20874240.099    20874239.275    20874245.631
       244.000         211.000
  -1990961.71049  -1193194.26446  22672612.527    22672611.297    22672623.154
       222.000         170.000
  -1672222.25349  -1286974.44147  21330476.171    21330475.033    21330482.996
       240.000         197.000
    569330.46749    439677.86747  21905975.791    21905974.686    21905982.509
       240.000         196.000
 00 11 20 16 12 29.9990000  0  6G 1G29G25G22G20G11
  -1550529.11149  -1186096.56446  22814186.545    22814185.633    22814195.567
       230.000         181.000
    694691.64349    536942.63545  24213583.504    24213582.507    24213595.294
       216.000         155.000
    203642.61749    154351.82147  20877286.959    20877286.135    20877292.517
       244.000         211.000
  -2112763.71849  -1288104.85246  22649434.358    22649433.133    22649444.992
       222.000         171.000
  -1773319.25249  -1365751.32747  21311238.101    21311236.942    21311244.908
       241.000         198.000
    608597.23049    470275.22647  21913448.116    21913447.002    21913454.880
       240.000         196.000
 00 11 20 16 12 59.9990000  0  8G 1G29G25G22G21G20G19G11
  -1641161.42249  -1256719.17046  22796939.889    22796938.909    22796948.859
       229.000         180.000
    736519.02949    569535.11745  24221543.073    24221542.114    24221555.053
       207.000         150.000
    220037.73649    167127.14247  20880406.926    20880406.093    20880412.495
       244.000         211.000
  -2234373.19749  -1382865.41146  22626292.861    22626291.616    22626303.490
       223.000         172.000
    113425.65353                  24545173.749
       208.000          86.000
  -1874154.88749  -1444324.55547  21292049.826    21292048.583    21292056.542
       241.000         198.000
   -889789.93159   -678681.12555  25052970.121    25052969.511    25052983.647
       210.000         143.000
    648221.55749    501151.16847  21920988.495    21920987.369    21920995.277
       240.000         195.000
 00 11 20 16 13 29.9990000  0  8G 1G29G25G22G21G20G19G11
  -1731682.45649  -1327255.08346  22779714.362    22779713.388    22779723.325
       227.000         180.000
    778354.42349    602133.86045  24229504.564    24229503.439    24229516.374
       210.000         158.000
    236813.36749    180198.96647  20883599.305    20883598.474    20883604.895
       245.000         211.000
  -2355788.26149  -1477474.45746  22603188.352    22603187.103    22603198.983
       223.000         171.000
                                  24558665.739
       209.000
  -1974728.44549  -1522693.57547  21272911.372    21272910.124    21272918.032
       240.000         198.000
  -1020245.00349   -780334.48845  25028145.337    25028144.722    25028158.825
       210.000         143.000
    688198.98349    532302.25247  21928596.086    21928594.932    21928602.855
       240.000         195.000
 00 11 20 16 13 59.9990000  0  8G 1G29G25G22G21G20G19G11
  -1822092.50849  -1397704.48846  22762510.022    22762508.996    22762518.931
       229.000         181.000
    820197.80949    634738.87345  24237467.593    24237466.267    24237479.088
       210.000         156.000
    253967.65549    193565.85347  20886863.764    20886862.918    20886869.358
       245.000         211.000
  -2477005.91849  -1571929.65946  22580121.416    22580120.178    22580132.018
       224.000         172.000
     55037.25044                  24572191.244
       210.000         124.000
  -2075038.13249  -1600856.97347  21253823.054    21253821.843    21253829.745
       240.000         198.000
  -1150625.40349   -881929.69045  25003334.707    25003334.167    25003348.298
       213.000         145.000
    728526.54649    563726.17647  21936270.305    21936269.129    21936277.076
       239.000         194.000
 00 11 20 16 14 29.9990000  0  8G 1G29G25G22G21G20G19G11
  -1912293.18049  -1467990.73146  22745345.482    22745344.433    22745354.388
       229.000         181.000
    862147.68349    667426.70145  24245450.359    24245449.118    24245462.252
       215.000         159.000
    271597.02549    207302.93047  20890218.605    20890217.767    20890224.220
       244.000         211.000
  -2597924.70849  -1666151.96146  22557111.371    22557110.105    22557121.917
       224.000         173.000
    110633.94745                  24585768.862
       211.000         144.000
  -2174982.82449  -1678735.95547  21234804.179    21234803.017    21234810.937
       240.000         199.000
  -1280831.00249   -983388.67245  24978557.411    24978556.873    24978571.054
       215.000         148.000
    769300.03849    595497.57647  21944029.365    21944028.184    21944036.173
       239.000         195.000
 00 11 20 16 14 59.9990000  0  8G 1G29G25G22G21G20G19G11
  -2002208.19149  -1538054.34846  22728235.254    22728234.201    22728244.175
       228.000         182.000
    904280.53449    700257.23345  24253468.297    24253467.027    24253480.006
       212.000         154.000
    289775.70249    221468.03647  20893677.961    20893677.136    20893683.616
       245.000         211.000
  -2718464.81349  -1760079.18646  22534173.316    22534172.074    22534183.871
       223.000         173.000
    446661.87749    166502.56445  24599412.902    24599413.076    24599433.331
       209.000         145.000
  -2274484.11149  -1756269.43147  21215869.748    21215868.565    21215876.512
       240.000         199.000
  -1410784.19049  -1084651.00345  24953828.208    24953827.598    24953841.793
       216.000         151.000
    810593.24249    627673.93547  21951887.318    21951886.136    21951894.167
       240.000         194.000
 00 11 20 16 15 29.9990000  0  7G 1G29G25G22G20G19G11
  -2092032.73149  -1608047.50146  22711142.159    22711141.166    22711151.142
       230.000         182.000
    946401.48449    733078.42645  24261483.898    24261482.544    24261495.573
       217.000         158.000
    308306.96149    235907.88747  20897204.440    20897203.596    20897210.104
       245.000         211.000
  -2838817.32449  -1853860.22146  22511270.936    22511269.702    22511281.480
       225.000         172.000
  -2373734.37849  -1833607.30147  21196983.100    21196981.894    21196989.858
       240.000         199.000
  -1540678.24349  -1185867.26545  24929110.299    24929109.655    24929123.843
       216.000         154.000
    852208.46149    660101.22847  21959806.631    21959805.373    21959813.429
       240.000         194.000
 00 11 20 16 15 59.9990000  0  7G 1G29G25G22G20G19G11
  -2181776.78849  -1677977.92746  22694064.484    22694063.459    22694073.464
       230.000         182.000
    988501.13249    765883.01145  24269495.597    24269494.135    24269507.301
       214.000         153.000
    327179.51049    250613.67647  20900795.890    20900795.013    20900801.538
       245.000         211.000
  -2958988.21149  -1947499.71746  22488403.087    22488401.866    22488413.619
       225.000         173.000
  -2472740.99849  -1910755.31347  21178142.810    21178141.603    21178149.556
       240.000         199.000
  -1670521.19849  -1287043.70645  24904402.143    24904401.414    24904415.650
       216.000         153.000
    894133.32849    692769.80147  21967784.772    21967783.513    21967791.641
       239.000         193.000
 00 11 20 16 16 29.9990000  0  9G 1G29G25G22G20G13G19G28G11
  -2271434.90349  -1747841.40546  22677003.132    22677002.124    22677012.115
       230.000         183.000
   1030584.84249    798675.22545  24277504.004    24277502.585    24277515.758
       212.000         154.000
    346396.70649    265588.02747  20904452.928    20904452.026    20904458.559
       245.000         212.000
  -3078969.17049  -2040991.22146  22465571.429    22465570.206    22465581.919
       224.000         173.000
  -2571496.28149  -1987707.48047  21159350.316    21159349.110    21159357.068
       240.000         199.000
  -1784235.66159  -1368558.73754  24983051.203    24983050.460    24983059.237
       204.000         130.000
  -1800306.26149  -1388175.04745  24879704.958    24879704.200    24879718.419
       211.000         153.000
   -334852.16859   -240066.41755  24723177.559    24723175.423    24723192.184
       203.000         140.000
    936370.54549    725681.77047  21975822.363    21975821.105    21975829.302
       239.000         193.000
 00 11 20 16 16 59.9990000  0  9G 1G29G25G22G20G13G19G28G11
  -2361004.12449  -1817635.60446  22659958.725    22659957.709    22659967.685
       229.000         183.000
   1072655.69449    831457.39445  24285510.317    24285508.784    24285521.873
       214.000         154.000
    365959.94949    280832.03247  20908175.836    20908174.893    20908181.430
       246.000         212.000
  -3198754.02549  -2134329.92846  22442777.088    22442775.849    22442787.526
       225.000         173.000
  -2669994.82749  -2064459.59247  21140606.701    21140605.481    21140613.447
       240.000         199.000
  -1890410.54949  -1451292.73045  24962846.939    24962846.295    24962855.080
       206.000         132.000
  -1930028.75249  -1489257.62045  24855019.687    24855018.897    24855033.176
       212.000         152.000
   -460287.04659   -337807.64655  24699307.939    24699306.059    24699323.147
       205.000         138.000
    978920.35149    758837.32347  21983919.433    21983918.199    21983926.412
       239.000         193.000
 00 11 20 16 17 29.9990000  0  9G 1G29G25G22G20G13G19G28G11
  -2450474.11649  -1887352.46446  22642933.192    22642932.166    22642942.146
       229.000         182.000
   1114724.25149    864237.75645  24293515.789    24293514.329    24293527.578
       219.000         156.000
    385877.51449    296352.14547  20911966.148    20911965.192    20911971.736
       245.000         212.000
  -3318328.63549  -2227504.79046  22420022.724    22420021.515    22420033.120
       224.000         174.000
  -2768223.95749  -2141001.77047  21121914.379    21121913.131    21121921.064
       241.000         199.000
  -1996556.80949  -1534004.44345  24942648.199    24942647.487    24942656.504
       208.000         135.000
  -2059676.74249  -1590282.16445  24830348.667    24830347.820    24830362.096
       215.000         152.000
   -585851.25049   -435649.62245  24675413.590    24675412.298    24675429.717
       206.000         141.000
   1021790.25549    792242.28847  21992077.390    21992076.173    21992084.462
       239.000         193.000
 00 11 20 16 17 59.9990000  0  9G 1G29G25G22G20G13G19G28G11
  -2539847.25949  -1956993.85946  22625926.139    22625925.062    22625935.015
       230.000         182.000
   1156788.39149    897014.66145  24301520.565    24301519.150    24301532.523
       209.000         151.000
    406145.01149    312144.93947  20915823.006    20915822.061    20915828.635
       246.000         212.000
  -3437691.58049  -2320514.73046  22397308.664    22397307.436    22397318.999
       225.000         175.000
  -2866183.69549  -2217334.02747  21103273.323    21103272.049    21103279.963
       240.000         200.000
  -2102677.09549  -1616695.91845  24922454.550    24922453.682    24922462.804
       207.000         134.000
  -2189250.83549  -1691249.16045  24805691.697    24805690.791    24805705.048
       216.000         154.000
   -711544.47449   -533592.16545  24651494.715    24651493.602    24651511.029
       200.000         138.000
   1064975.49549    825892.97447  22000295.413    22000294.180    22000302.523
       239.000         192.000
 00 11 20 16 18 29.9990000  0  9G 1G29G25G22G20G13G19G28G11
  -2629117.63349  -2026555.15946  22608938.539    22608937.491    22608947.431
       230.000         183.000
   1198854.50549    929793.16145  24309525.951    24309524.352    24309537.636
       217.000         156.000
    426767.04849    328213.99847  20919747.303    20919746.372    20919752.985
       245.000         212.000
  -3556833.22049  -2413352.24446  22374636.686    22374635.497    22374646.956
       225.000         174.000
  -2963865.16149  -2293449.45547  21084685.200    21084683.911    21084691.829
       240.000         200.000
  -2208764.89549  -1699362.05245  24902267.084    24902266.112    24902275.361
       212.000         133.000
  -2318743.25349  -1792152.52145  24781050.232    24781049.289    24781063.587
       217.000         154.000
   -837358.00349   -631628.40045  24627552.979    24627551.977    24627569.215
       205.000         137.000
   1108479.34849    859791.93347  22008574.063    22008572.816    22008581.200
       239.000         192.000
 00 11 20 16 18 59.9990000  0  9G 1G29G25G22G20G13G19G28G11
  -2718282.72349  -2096034.41246  22591971.029    22591969.970    22591979.868
       231.000         183.000
   1240925.33249    962575.24545  24317531.878    24317530.355    24317543.817
       218.000         157.000
    447744.17049    344559.75347  20923739.140    20923738.259    20923744.913
       245.000         212.000
  -3675747.99449  -2506012.98146  22352007.889    22352006.709    22352018.099
       226.000         175.000
  -3061263.57049  -2369344.30947  21066150.901    21066149.635    21066157.556
       241.000         200.000
  -2314817.78749  -1782001.02545  24882086.364    24882085.162    24882094.384
       214.000         139.000
  -2448149.87849  -1892989.03745  24756425.084    24756424.102    24756438.438
       216.000         154.000
   -963286.60749   -729754.29445  24603589.438    24603588.429    24603605.623
       201.000         138.000
   1152301.80049    893939.15947  22016913.358    22016912.087    22016920.508
       238.000         192.000
 00 11 20 16 19 29.9990000  0  9G 1G29G25G22G20G13G19G28G11
  -2807350.47049  -2165437.79246  22575022.055    22575020.987    22575030.853
       231.000         183.000
   1282993.12049    995355.04845  24325537.543    24325535.960    24325549.188
       213.000         151.000
    469066.82049    361174.74647  20927796.726    20927795.871    20927802.584
       245.000         212.000
  -3794440.28849  -2598500.38046  22329421.413    22329420.265    22329431.614
       225.000         176.000
  -3158384.39449  -2445022.86447  21047669.462    21047668.175    21047676.090
       240.000         200.000
  -2420843.43849  -1864618.73445  24861910.774    24861909.409    24861918.701
       213.000         141.000
  -2577476.83449  -1993763.44345  24731815.100    24731814.086    24731828.446
       215.000         154.000
  -1089335.37149   -827973.79745  24579602.957    24579601.976    24579619.139
       206.000         136.000
   1196432.22949    928326.37047  22025311.215    22025309.951    22025318.398
       238.000         192.000
 00 11 20 16 19 59.9990000  0  9G 1G29G25G22G20G13G19G28G11
  -2896296.47349  -2234746.30046  22558096.256    22558095.149    22558105.006
       232.000         184.000
   1325082.31849   1028151.42245  24333547.068    24333545.480    24333558.764
       214.000         154.000
    490757.44749    378076.47547  20931924.365    20931923.522    20931930.278
       246.000         212.000
  -3912882.01849  -2690792.56846  22306882.665    22306881.494    22306892.788
       226.000         175.000
  -3255200.77149  -2520464.19147  21029245.941    21029244.642    21029252.549
       240.000         201.000
  -2526817.24349  -1947196.04145  24841744.927    24841743.475    24841752.839
       211.000         137.000
  -2706698.52649  -2094455.80145  24707225.175    24707224.113    24707238.504
       213.000         154.000
  -1215477.37549   -926265.94445  24555598.911    24555597.815    24555614.951
       203.000         137.000
   1240892.18149    962970.33847  22033771.736    22033770.503    22033779.010
       238.000         191.000
 00 11 20 16 20 29.9990000  0  9G 1G29G25G22G20G13G19G28G11
  -2985134.58149  -2303970.75346  22541190.931    22541189.826    22541199.701
       231.000         184.000
   1367179.57349   1060954.14545  24341558.068    24341556.619    24341570.016
       209.000         148.000
    512800.33249    395252.69147  20936119.068    20936118.210    20936124.987
       246.000         212.000
  -4031083.02249  -2782897.18646  22284389.725    22284388.510    22284399.790
       225.000         175.000
  -3351724.12349  -2595677.18447  21010878.201    21010876.882    21010884.788
       241.000         201.000
  -2632753.40949  -2029744.02045  24821586.255    24821584.864    24821594.158
       215.000         139.000
  -2835826.86949  -2195075.38545  24682653.060    24682651.919    24682666.290
       216.000         156.000
  -1341723.71749  -1024639.34845  24531574.758    24531573.754    24531590.876
       204.000         137.000
   1285665.29849    997858.34347  22042291.903    22042290.658    22042299.196
       238.000         191.000
 00 11 20 16 20 59.9990000  0  9G 1G29G25G22G20G13G19G28G11
  -3073847.22749  -2373097.46746  22524309.472    22524308.388    22524318.273
       233.000         184.000
   1409302.84349   1093777.16845  24349573.917    24349572.625    24349586.030
       211.000         151.000
    535211.23349    412715.67147  20940383.833    20940382.950    20940389.733
       246.000         212.000
  -4149022.43349  -2874797.97446  22261946.505    22261945.332    22261956.565
       226.000         175.000
  -3447934.20949  -2670646.07247  20992570.042    20992568.732    20992576.643
       241.000         201.000
  -2738634.26749  -2112248.92945  24801438.086    24801436.734    24801446.007
       212.000         140.000
  -2964842.48449  -2295607.12945  24658102.367    24658101.154    24658115.596
       218.000         159.000
  -1468054.02549  -1123078.16245  24507534.799    24507533.747    24507550.982
       199.000         138.000
   1330766.51449   1033002.01547  22050874.530    22050873.267    22050881.847
       237.000         191.000
 00 11 20 16 21 29.9990000  0  9G 1G29G25G22G20G13G19G28G11
  -3162431.28949  -2442124.00546  22507452.446    22507451.388    22507461.301
       232.000         184.000
   1451455.20749   1126622.83545  24357595.639    24357594.295    24357607.774
       211.000         154.000
    557991.70249    430466.62147  20944718.900    20944718.009    20944724.793
       246.000         212.000
  -4266694.10349  -2966490.16846  22239554.249    22239553.103    22239564.331
       226.000         176.000
  -3543825.69649  -2745366.70247  20974322.474    20974321.200    20974329.116
       241.000         201.000
  -2844456.58249  -2194708.18545  24781301.048    24781299.721    24781308.991
       213.000         144.000
  -3093741.02849  -2396047.64145  24633573.990    24633572.713    24633587.158
       219.000         159.000
  -1594462.66249  -1221577.96045  24483479.819    24483478.752    24483496.067
       207.000         137.000
   1376196.31049   1068401.73447  22059519.634    22059518.389    22059527.009
       237.000         191.000
 00 11 20 16 21 59.9990000  0  9G 1G29G25G22G20G13G19G28G11
  -3250891.95849  -2511054.40946  22490618.910    22490617.872    22490627.788
       231.000         184.000
   1493631.78849   1159487.31745  24365621.635    24365620.337    24365633.991
       217.000         149.000
    581134.33849    448499.77447  20949122.880    20949121.986    20949128.756
       246.000         212.000
  -4384099.54349  -3057974.92146  22217212.642    22217211.522    22217222.775
       225.000         176.000
  -3639401.30349  -2819841.19047  20956134.999    20956133.787    20956141.689
       240.000         201.000
  -2950225.27349  -2277125.61245  24761174.198    24761172.849    24761182.155
       215.000         144.000
  -3222526.12949  -2496399.74745  24609067.150    24609065.834    24609080.264
       219.000         156.000
  -1720951.98649  -1320140.64445  24459409.495    24459408.498    24459425.827
       200.000         135.000
   1421946.48249   1104051.06347  22068225.742    22068224.481    22068233.153
       237.000         191.000
 00 11 20 16 22 29.9990000  0  9G 1G29G25G22G20G13G19G28G11
  -3339234.54849  -2579892.81146  22473807.798    22473806.825    22473816.761
       232.000         183.000
   1535827.67749   1192366.90245  24373651.589    24373650.270    24373663.993
       212.000         152.000
    604631.88049    466809.47247  20953594.339    20953593.477    20953600.259
       246.000         212.000
  -4501240.15149  -3149253.32546  22194921.464    22194920.331    22194931.633
       226.000         176.000
  -3734663.75449  -2894071.65447  20938007.152    20938005.957    20938013.867
       241.000         202.000
  -3055945.63149  -2359505.42845  24741056.594    24741055.249    24741064.494
       216.000         146.000
  -3351201.42049  -2596666.26245  24584581.167    24584579.890    24584594.309
       217.000         153.000
  -1847524.64149  -1418768.22745  24435323.283    24435322.388    24435339.574
       200.000         136.000
   1468009.10449   1139943.82047  22076991.325    22076990.027    22076998.738
       237.000         190.000
 00 11 20 16 22 59.9990000  0  9G 1G29G25G22G20G13G19G28G11
  -3427455.89049  -2648636.74246  22457019.848    22457018.862    22457028.792
       232.000         184.000
   1578046.01049   1225263.88345  24381685.512    24381684.271    24381698.371
       217.000         154.000
    628485.45349    485396.60047  20958133.587    20958132.736    20958139.514
       246.000         212.000
  -4618109.31549  -3240320.23146  22172681.924    22172680.802    22172692.124
       225.000         177.000
  -3829607.61449  -2968053.87947  20919939.961    20919938.737    20919946.661
       241.000         202.000
  -3161614.99949  -2441845.48845  24720948.575    24720947.371    24720956.575
       214.000         144.000
  -3479762.35549  -2696843.62945  24560116.958    24560115.689    24560130.122
       219.000         158.000
  -1974174.94549  -1517456.29245  24411221.946    24411221.489    24411238.613
       204.000         136.000
   1514384.53049   1176080.33947  22085816.425    22085815.107    22085823.864
       236.000         190.000
 00 11 20 16 23 29.9990000  0  9G 1G29G25G22G20G13G19G28G11
  -3515539.13449  -2717273.07546  22440258.254    22440257.219    22440267.098
       233.000         184.000
   1620304.15149   1258192.02345  24389727.392    24389726.014    24389740.161
       211.000         145.000
    652710.42449    504273.12047  20962743.527    20962742.663    20962749.447
       246.000         211.000
  -4734686.70849  -3331159.79246  22150497.911    22150496.815    22150508.141
       226.000         177.000
  -3924213.37949  -3041772.65747  20901937.112    20901935.870    20901943.775
       241.000         201.000
  -3267215.82449  -2524132.11745  24700853.578    24700852.382    24700861.686
       216.000         147.000
  -3608190.00249  -2796917.12445  24535678.091    24535676.812    24535691.287
       221.000         161.000
  -2100883.11949  -1616189.43145  24387109.693    24387109.496    24387126.639
       203.000         135.000
   1561087.22649   1212471.87047  22094703.659    22094702.423    22094711.246
       236.000         189.000
 00 11 20 16 23 59.9990000  0  9G 1G29G25G22G20G13G19G28G11
  -3603488.91749  -2785805.40046  22423521.954    22423520.935    22423530.800
       232.000         184.000
   1662597.79949   1291147.71045  24397776.030    24397774.488    24397788.780
       215.000         149.000
    677300.85649    523434.41647  20967423.006    20967422.132    20967428.920
       246.000         211.000
  -4850973.79649  -3421773.15346  22128369.256    22128368.130    22128379.424
       227.000         178.000
  -4018483.24549  -3115229.69347  20883998.169    20883996.916    20884004.810
       241.000         202.000
  -3372752.54949  -2606368.79345  24680770.761    24680769.671    24680779.006
       217.000         151.000
  -3736487.42149  -2896889.12345  24511263.979    24511262.727    24511277.249
       221.000         162.000
  -2227651.09049  -1714969.18545  24362986.155    24362986.012    24363003.293
       206.000         137.000
   1608109.79949   1249112.66747  22103651.881    22103650.619    22103659.502
       236.000         188.000
 00 11 20 16 24 29.9990000  0  9G 1G29G25G22G20G13G19G28G11
  -3691308.72849  -2854236.42946  22406810.376    22406809.406    22406819.252
       233.000         185.000
   1704923.42349   1324128.44845  24405830.616    24405829.051    24405843.356
       212.000         147.000
    702250.85049    542875.89847  20972170.917    20972170.028    20972176.819
       247.000         211.000
  -4966970.34249  -3512160.11446  22106295.911    22106294.722    22106306.003
       227.000         178.000
  -4112418.34949  -3188425.86947  20866122.900    20866121.661    20866129.541
       240.000         202.000
  -3478229.21349  -2688558.65545  24660699.402    24660698.343    24660707.770
       214.000         146.000
  -3864656.72849  -2996761.28645  24486874.149    24486873.009    24486887.544
       217.000         157.000
  -2354479.66949  -1813796.17045  24338851.291    24338851.092    24338868.384
       202.000         136.000
   1655445.77749   1285997.72247  22112659.717    22112658.458    22112667.398
       237.000         188.000
 00 11 20 16 24 59.9990000  0  9G 1G29G25G22G20G13G19G28G11
  -3779014.95549  -2922578.96646  22390120.429    22390119.470    22390129.354
       233.000         185.000
   1747265.32049   1357121.81045  24413888.219    24413886.678    24413900.971
       217.000         150.000
    727541.91749    562583.15047  20976983.737    20976982.834    20976989.639
       246.000         211.000
  -5082688.73049  -3602330.33946  22084275.494    22084274.281    22084285.530
       227.000         178.000
  -4206032.26449  -3261371.76947  20848308.761    20848307.544    20848315.396
       241.000         202.000
  -3583661.73949  -2770714.11745  24640636.391    24640635.356    24640644.944
       217.000         149.000
  -3992712.71049  -3096545.14045  24462505.912    24462504.777    24462519.425
       217.000         153.000
  -2481382.46849  -1912681.01645  24314702.321    24314702.033    24314719.219
       206.000         137.000
   1703076.33949   1323112.35247  22121723.643    22121722.373    22121731.357
       235.000         189.000
 00 11 20 16 25 29.9990000  0  9G 1G29G25G22G20G13G19G28G11
  -3866593.73649  -2990822.17146  22373454.727    22373453.800    22373463.692
       233.000         186.000
   1789637.18549   1390138.51345  24421951.653    24421950.144    24421964.493
       205.000         144.000
    753186.24849    582565.66747  20981863.755    20981862.863    20981869.679
       246.000         211.000
  -5198111.66149  -3692270.32746  22062311.351    22062310.070    22062321.281
       227.000         178.000
  -4299308.95049  -3334054.89647  20830558.786    20830557.591    20830565.449
       241.000         202.000
  -3689036.14449  -2852824.28445  24620584.495    24620583.405    24620593.225
       218.000         152.000
  -4120639.95649  -3196228.68045  24438162.117    24438161.092    24438175.704
       219.000         155.000
  -2608342.92649  -2011610.83545  24290542.395    24290542.156    24290559.001
       203.000         137.000
   1751012.40149   1360465.00347  22130845.724    22130844.435    22130853.435
       237.000         188.000
 00 11 20 16 25 59.9990000  0  9G 1G29G25G22G20G13G19G28G11
  -3954043.57049  -3058964.90146  22356813.743    22356812.680    22356822.569
       233.000         186.000
   1832041.15649   1423180.20345  24430021.276    24430019.643    24430034.150
       214.000         151.000
    779183.55149    602823.22947  20986810.943    20986810.052    20986816.886
       246.000         211.000
  -5313234.57049  -3781976.51246  22040404.322    22040402.956    22040414.098
       227.000         178.000
  -4392244.50249  -3406472.20747  20812873.730    20812872.542    20812880.411
       240.000         202.000
  -3794350.97049  -2934887.98545  24600543.952    24600542.837    24600552.854
       217.000         152.000
  -4248435.30249  -3295809.43145  24413843.524    24413842.514    24413857.099
       220.000         161.000
  -2735356.89249  -2110582.35945  24266372.290    24266371.924    24266388.723
       203.000         138.000
   1799252.64649   1398054.67247  22140025.657    22140024.354    22140033.399
       235.000         188.000
 00 11 20 16 26 29.9980000  0  9G 1G29G25G22G20G13G19G28G11
  -4041366.21049  -3127008.49346  22340196.751    22340195.762    22340205.670
       234.000         185.000
   1874471.09149   1456242.17045  24438095.764    24438094.110    24438108.831
       208.000         149.000
    805526.36749    623350.02147  20991823.882    20991822.988    20991829.844
       247.000         211.000
  -5428055.05849  -3871447.03046  22018554.820    22018553.380    22018564.479
       227.000         178.000
  -4484837.96649  -3478622.95547  20795253.807    20795252.604    20795260.478
       241.000         202.000
  -3899607.62649  -3016906.37445  24580514.460    24580513.328    24580523.508
       220.000         150.000
  -4376097.65849  -3395286.53245  24389550.201    24389549.207    24389563.827
       220.000         161.000
  -2862421.91549  -2209593.74345  24242192.403    24242192.045    24242208.514
       201.000         136.000
   1847788.03949   1435874.31646  22149261.856    22149260.495    22149269.519
       236.000         187.000
 00 11 20 16 26 59.9980000  0  9G 1G29G25G22G20G13G19G28G11
  -4128560.98349  -3194952.44146  22323604.215    22323603.163    22323613.044
       234.000         186.000
   1916936.87649   1489332.13545  24446176.662    24446175.164    24446190.007
       216.000         150.000
    832220.92149    644150.89347  20996903.736    20996902.863    20996909.725
       246.000         211.000
  -5542570.33549  -3960679.70446  21996763.377    21996761.868    21996772.955
       227.000         179.000
  -4577086.52349  -3550504.94647  20777699.494    20777698.302    20777706.154
       241.000         202.000
  -4004806.40549  -3098879.65945  24560496.051    24560494.920    24560505.168
       219.000         154.000
  -4503627.61749  -3494660.44345  24365281.953    24365281.061    24365295.745
       217.000         157.000
  -2989537.29349  -2308644.36745  24218002.845    24218002.633    24218018.931
       202.000         137.000
   1896625.49649   1473929.33147  22158555.432    22158554.089    22158563.142
       236.000         188.000
 00 11 20 16 27 29.9980000  0  9G 1G29G25G22G20G13G19G28G11
  -4215633.64749  -3262801.23846  22307034.688    22307033.765    22307043.662
       234.000         185.000
   1959428.28349   1522441.96845  24454262.811    24454261.310    24454276.206
       204.000         142.000
    859256.12349    665217.20547  21002048.427    21002047.565    21002054.438
       247.000         211.000
  -5656781.49349  -4049675.37646  21975029.690    21975028.212    21975039.296
       227.000         178.000
  -4668993.48649  -3622120.74847  20760210.177    20760208.999    20760216.841
       241.000         203.000
  -4109952.27349  -3180811.67145  24540487.602    24540486.484    24540496.892
       220.000         154.000
  -4631027.95249  -3593933.35445  24341038.426    24341037.567    24341052.290
       217.000         156.000
  -3116704.63149  -2407735.48645  24193803.416    24193803.080    24193819.359
       205.000         137.000
   1945751.88649   1512209.47846  22167903.932    22167902.630    22167911.719
       235.000         187.000
 00 11 20 16 27 59.9980000  0  9G 1G29G25G22G20G13G19G28G11
  -4302579.22449  -3330551.00846  22290489.496    22290488.583    22290498.464
       234.000         186.000
   2001950.63949   1555575.96845  24462354.837    24462353.293    24462368.240
       216.000         152.000
    886634.31449    686550.77747  21007258.392    21007257.533    21007264.423
       246.000         211.000
  -5770680.37049  -4138427.68646  21953355.359    21953353.937    21953365.077
       227.000         180.000
  -4760551.43549  -3693464.59647  20742787.334    20742786.119    20742793.949
       241.000         203.000
  -4215040.55949  -3262698.81445  24520490.081    24520489.038    24520499.509
       220.000         152.000
  -4758292.41149  -3693100.42445  24316820.752    24316819.923    24316834.648
       219.000         156.000
  -3243916.42249  -2506861.29645  24169595.600    24169595.325    24169611.381
       208.000         137.000
   1995169.41849   1550716.48446  22177307.987    22177306.598    22177315.731
       235.000         187.000
 00 11 20 16 28 29.9980000  0  9G 1G29G25G22G20G13G19G28G11
  -4389410.47549  -3398211.69246  22273966.059    22273965.140    22273975.040
       236.000         186.000
   2044491.46449   1588724.40645  24470450.420    24470448.867    24470463.850
       210.000         144.000
    914341.22649    708140.50247  21012530.940    21012530.058    21012536.951
       246.000         210.000
  -5884276.63149  -4226944.16946  21931738.610    21931737.256    21931748.469
       227.000         180.000
  -4851770.62549  -3764544.46747  20725428.881    20725427.682    20725435.527
       240.000         202.000
  -4320083.64249  -3344550.75745  24500501.212    24500500.181    24500510.719
       220.000         154.000
  -4885432.10649  -3792170.24545  24292626.832    24292626.030    24292640.755
       218.000         158.000
  -3371182.53249  -2606029.42245  24145377.599    24145377.226    24145393.057
       205.000         140.000
   2044862.61549   1589438.31246  22186764.445    22186763.039    22186772.158
       235.000         187.000
 00 11 20 16 28 59.9980000  0  9G 1G29G25G22G20G13G19G28G11
  -4476118.66949  -3465776.48646  22257466.159    22257465.140    22257475.018
       236.000         187.000
   2087059.84349   1621894.23945  24478551.143    24478549.628    24478564.748
       210.000         151.000
    942383.38449    729991.45847  21017867.290    21017866.381    21017873.275
       246.000         211.000
  -5997557.90649  -4315215.20346  21910181.767    21910180.502    21910191.772
       228.000         180.000
  -4942639.95049  -3835351.72547  20708137.023    20708135.840    20708143.676
       240.000         203.000
  -4425073.31249  -3426361.04945  24480522.471    24480521.459    24480532.129
       221.000         155.000
  -5012436.69349  -3891134.74745  24268458.429    24268457.755    24268472.553
       211.000         156.000
  -3498491.29749  -2705230.81145  24121151.369    24121150.927    24121166.649
       207.000         138.000
   2094837.42149   1628379.56946  22196274.468    22196273.055    22196282.228
       235.000         186.000
 00 11 20 16 29 29.9980000  0  9G 1G29G25G22G20G13G19G28G11
  -4562697.80649  -3533240.72146  22240990.682    22240989.676    22240999.562
       235.000         187.000
   2129662.20249   1655090.70245  24486658.533    24486656.943    24486671.858
       213.000         147.000
    970765.41649    752107.25247  21023268.244    21023267.371    21023274.287
       246.000         211.000
  -6110514.29649  -4403233.04946  21888686.705    21888685.519    21888696.885
       226.000         179.000
  -5033150.85349  -3905879.69947  20690913.371    20690912.198    20690920.011
       241.000         203.000
  -4530002.80049  -3508124.42345  24460555.179    24460554.181    24460564.915
       222.000         155.000
  -5139298.62049  -3989988.07845  24244317.089    24244316.643    24244331.468
       215.000         158.000
  -3625833.90049  -2804458.53745  24096918.802    24096918.278    24096933.724
       209.000         138.000
   2145096.96449   1667542.69646  22205838.597    22205837.238    22205846.422
       235.000         186.000
 00 11 20 16 29 59.9980000  0  9G 1G29G25G22G20G13G19G28G11
  -4649155.34349  -3600610.20946  22224538.322    22224537.352    22224547.233
       236.000         187.000
   2172291.47249   1688307.99645  24494770.887    24494769.231    24494784.366
       214.000         151.000
    999477.72049    774480.40747  21028732.050    21028731.187    21028738.139
       246.000         210.000
  -6223149.65649  -4491000.74546  21867252.749    21867251.628    21867263.116
       227.000         180.000
  -5123308.37049  -3976132.30747  20673756.987    20673755.801    20673763.631
       241.000         203.000
  -4634879.53349  -3589846.70545  24440597.977    24440596.986    24440607.731
       220.000         154.000
  -5266023.67049  -4088734.79845  24220202.071    24220201.613    24220216.465
       217.000         158.000
  -3753214.85649  -2903716.15445  24072678.714    24072678.337    24072693.655
       206.000         140.000
   2195631.24549   1706919.90246  22215455.095    22215453.717    22215462.939
       234.000         185.000
 00 11 20 16 30 29.9980000  0  9G 1G29G25G22G20G13G19G28G11
  -4735499.91349  -3667891.68146  22208107.387    22208106.500    22208116.384
       235.000         187.000
   2214938.89349   1721539.47245  24502886.721    24502885.078    24502900.260
       215.000         148.000
   1028509.70149    797102.66047  21034256.702    21034255.850    21034262.826
       246.000         210.000
  -6335469.77249  -4578522.78746  21845878.868    21845877.765    21845889.316
       228.000         179.000
  -5213118.89049  -4046114.52647  20656666.599    20656665.428    20656673.258
       241.000         204.000
  -4739712.65049  -3671534.96645  24420649.066    24420648.061    24420658.838
       220.000         154.000
  -5392619.34749  -4187380.69645  24196111.753    24196111.240    24196126.048
       216.000         156.000
  -3880640.27949  -3003008.38745  24048430.281    24048429.949    24048445.117
       208.000         139.000
   2246428.49249   1746502.00346  22225121.572    22225120.221    22225129.462
       234.000         185.000
 00 11 20 16 30 59.9980000  0  9G 1G29G25G22G20G13G19G28G11
  -4821735.37149  -3735088.13946  22191697.311    22191696.437    22191706.306
       235.000         187.000
   2257601.00449   1754782.45645  24511005.139    24511003.515    24511018.880
       217.000         150.000
   1057855.59349    819969.53247  21039841.086    21039840.241    21039847.260
       246.000         210.000
  -6447475.17149  -4665799.59546  21824564.916    21824563.824    21824575.358
       228.000         180.000
  -5302583.70149  -4115827.35647  20639642.027    20639640.847    20639648.686
       241.000         204.000
  -4844505.65049  -3753191.94745  24400707.772    24400706.787    24400717.582
       220.000         155.000
  -5519087.78549  -4285927.44445  24172045.655    24172045.099    24172059.886
       215.000         159.000
  -4008110.95149  -3102335.87945  24024173.213    24024172.846    24024187.952
       208.000         139.000
   2297481.99249   1786283.78346  22234836.791    22234835.484    22234844.791
       234.000         185.000
 00 11 20 16 31 29.9980000  0  9G 1G29G25G22G20G13G19G28G11
  -4907857.52349  -3802196.31846  22175308.836    22175307.925    22175317.793
       237.000         187.000
   2300282.25449   1788040.37445  24519127.450    24519125.890    24519141.092
       214.000         145.000
   1087517.62849    843082.75147  21045485.658    21045484.805    21045491.845
       246.000         210.000
  -6559157.96449  -4752825.01946  21803312.299    21803311.235    21803322.777
       227.000         181.000
  -5391695.99649  -4185265.49947  20622684.545    20622683.340    20622691.180
       241.000         203.000
  -4949254.39349  -3834814.44845  24380774.812    24380773.936    24380784.721
       217.000         153.000
  -5645423.45549  -4384370.74045  24148004.864    24148004.210    24148018.962
       219.000         161.000
  -4135620.14049  -3201693.37045  23999908.841    23999908.506    23999923.440
       208.000         139.000
   2348793.39049   1826266.51646  22244601.173    22244599.847    22244609.196
       233.000         185.000
 00 11 20 16 31 59.9980000  0  9G 1G29G25G22G20G13G19G28G11
  -4993872.04349  -3869220.61247  22158940.870    22158939.914    22158949.780
       236.000         189.000
   2342977.10449   1821308.73745  24527252.029    24527250.560    24527266.080
       209.000         144.000
   1117488.56149    866436.67547  21051189.021    21051188.142    21051195.200
       246.000         209.000
  -6670520.06749  -4839600.56546  21782120.802    21782119.699    21782131.223
       229.000         181.000
  -5480459.39649  -4254431.78447  20605793.518    20605792.263    20605800.070
       242.000         204.000
  -5053964.37049  -3916406.72445  24360849.266    24360848.396    24360859.228
       220.000         153.000
  -5771630.49549  -4482713.83745  24123988.487    24123987.783    24124002.545
       216.000         156.000
  -4263170.63449  -3301083.03845  23975636.583    23975636.205    23975651.050
       206.000         140.000
   2400353.86349   1866443.33046  22254412.985    22254411.624    22254420.991
       233.000         185.000
 00 11 20 16 32 29.9980000  0  9G 1G29G25G22G20G13G19G28G11
  -5079783.22749  -3936164.37747  22142592.598    22142591.604    22142601.420
       239.000         189.000
   2385681.49449   1854584.76645  24535378.708    24535377.280    24535392.623
       209.000         146.000
   1147761.69749    890026.08347  21056949.863    21056948.997    21056956.059
       246.000         209.000
  -6781562.56549  -4926127.06846  21760990.180    21760988.995    21761000.467
       229.000         182.000
  -5568875.67549  -4323327.57447  20588968.451    20588967.211    20588975.014
       241.000         204.000
  -5158640.16049  -3997972.33545  24340930.168    24340929.339    24340940.278
       218.000         153.000
  -5897711.79249  -4580958.94345  24099996.010    24099995.254    24100009.999
       215.000         155.000
  -4390764.15549  -3400506.22445  23951356.211    23951355.790    23951370.532
       205.000         139.000
   2452156.34349   1906808.72546  22264270.800    22264269.438    22264278.843
       234.000         184.000
 00 11 20 16 32 59.9980000  0  9G 1G29G25G22G20G13G19G28G11
  -5165568.16949  -4003009.77547  22126268.313    22126267.285    22126277.069
       236.000         188.000
   2428418.67849   1887886.17345  24543511.430    24543510.023    24543525.491
       205.000         142.000
   1178358.03449    913867.33247  21062772.232    21062771.347    21062778.407
       246.000         209.000
  -6892259.42349  -5012384.25546  21739925.282    21739924.054    21739935.475
       229.000         182.000
  -5656919.55649  -4391933.18847  20572214.248    20572213.028    20572220.809
       240.000         204.000
  -5263258.93549  -4079493.56345  24321021.999    24321021.142    24321032.146
       217.000         153.000
  -6023642.54949  -4679086.77345  24076032.231    24076031.426    24076046.146
       218.000         160.000
  -4518374.70549  -3499942.72145  23927072.425    23927072.088    23927086.700
       208.000         140.000
   2504220.91849   1947378.34646  22274178.502    22274177.125    22274186.572
       232.000         183.000
 00 11 20 16 33 29.9980000  0  9G 1G29G25G22G20G13G19G28G11
  -5251252.73849  -4069776.95947  22109963.030    22109962.037    22109971.828
       236.000         189.000
   2471163.17149   1921193.21745  24551645.552    24551644.112    24551660.027
       211.000         146.000
   1209249.45849    937938.52247  21068650.735    21068649.858    21068656.926
       246.000         209.000
  -7002633.41049  -5098389.85446  21718921.723    21718920.528    21718931.925
       229.000         182.000
  -5744614.54049  -4460266.92947  20555526.434    20555525.243    20555533.011
       241.000         204.000
  -5367846.17949  -4160990.16245  24301119.735    24301118.971    24301130.007
       218.000         150.000
  -6149447.38649  -4777116.46045  24052092.296    24052091.522    24052106.240
       216.000         158.000
  -4646025.48049  -3599410.55145  23902781.174    23902780.794    23902795.234
       207.000         140.000
   2556518.90949   1988129.85446  22284130.599    22284129.231    22284138.711
       234.000         183.000
 00 11 20 16 33 59.9980000  0  9G 1G29G25G22G20G13G19G28G11
  -5336835.79149  -4136465.04047  22093677.028    22093676.096    22093685.916
       237.000         188.000
   2513916.12149   1954507.00245  24559781.334    24559779.941    24559795.786
       206.000         140.000
   1240435.49649    962239.27647  21074585.271    21074584.408    21074591.504
       245.000         209.000
  -7112679.49249  -5184139.95946  21697980.592    21697979.394    21697990.751
       229.000         182.000
  -5831956.95649  -4528325.94547  20538905.758    20538904.556    20538912.311
       241.000         204.000
  -5472400.97549  -4242461.51545  24281223.611    24281222.868    24281234.038
       215.000         148.000
  -6275123.86749  -4875046.12845  24028176.774    24028176.021    24028190.731
       215.000         154.000
  -4773712.51449  -3698906.63145  23878482.899    23878482.607    23878496.863
       206.000         140.000
   2609048.52349   2029061.84846  22294126.813    22294125.436    22294134.911
       232.000         183.000
 00 11 20 16 34 29.9980000  0  9G 1G29G25G22G20G13G19G28G11
  -5422317.28949  -4203073.99947  22077410.421    22077409.497    22077419.328
       236.000         189.000
   2556678.04049   1987827.64445  24567918.755    24567917.479    24567933.425
       216.000         140.000
   1271914.45849    986768.28647  21080575.524    21080574.701    21080581.814
       245.000         208.000
  -7222393.87149  -5269631.60346  21677102.571    21677101.379    21677112.722
       229.000         183.000
  -5918944.53849  -4596108.46547  20522352.571    20522351.372    20522359.143
       240.000         204.000
  -5576923.25249  -4323907.48945  24261333.838    24261333.060    24261344.235
       216.000         149.000
  -6400670.39549  -4972874.56645  24004286.041    24004285.231    24004299.922
       219.000         159.000
  -4901432.92049  -3798428.73445  23854178.354    23854178.010    23854192.237
       208.000         141.000
   2661806.79649   2070172.00946  22304166.554    22304165.148    22304174.662
       232.000         182.000
 00 11 20 16 34 59.9980000  0  9G 1G29G25G22G20G13G19G28G11
  -5507705.66649  -4269610.40647  22061161.653    22061160.656    22061170.456
       237.000         189.000
   2599440.62649   2021148.85745  24576056.504    24576055.235    24576071.235
       207.000         143.000
   1303675.92249   1011517.42447  21086619.575    21086618.755    21086625.889
       245.000         208.000
  -7331781.86849  -5354868.94846  21656286.612    21656285.460    21656296.797
       229.000         183.000
  -6005583.11749  -4663619.03947  20505865.791    20505864.609    20505872.374
       241.000         204.000
  -5681421.26649  -4405334.57845  24241448.599    24241447.842    24241459.047
       215.000         148.000
  -6526094.08149  -5070607.27445  23980418.618    23980417.853    23980432.500
       215.000         160.000
  -5029192.25649  -3897981.19545  23829866.484    23829865.995    23829880.118
       207.000         142.000
   2714782.75449   2111451.81346  22314247.738    22314246.291    22314255.802
       232.000         182.000
 00 11 20 16 35 29.9980000  0  9G 1G29G25G22G20G13G19G28G11
  -5592983.22949  -4336060.45647  22044933.905    22044932.880    22044942.661
       236.000         188.000
   2642222.08049   2054484.73445  24584197.768    24584196.490    24584212.489
       211.000         142.000
   1335735.06549   1036498.51947  21092720.249    21092719.446    21092726.600
       245.000         208.000
  -7440822.83149  -5439835.88046  21635536.726    21635535.590    21635546.896
       229.000         183.000
  -6091852.69749  -4730842.07447  20489449.249    20489448.053    20489455.804
       240.000         204.000
  -5785877.33549  -4486728.96245  24221571.383    24221570.655    24221581.867
       215.000         149.000
  -6651375.91749  -5168229.39745  23956578.196    23956577.484    23956592.103
       215.000         158.000
  -5156970.07749  -3997548.08245  23805550.941    23805550.455    23805564.474
       209.000         141.000
   2767991.20949   2152912.77746  22324372.995    22324371.613    22324381.226
       232.000         182.000
 00 11 20 16 35 59.9980000  0  9G 1G29G25G22G20G13G19G28G11
  -5678165.86249  -4402436.53847  22028724.128    22028723.173    22028732.910
       236.000         189.000
   2685006.28449   2087822.78745  24592339.568    24592338.330    24592354.092
       206.000         141.000
   1368074.54749   1061698.05347  21098874.308    21098873.492    21098880.653
       245.000         208.000
  -7549529.19149  -5524542.09646  21614850.490    21614849.394    21614860.673
       229.000         182.000
  -6177766.90149  -4797788.19847  20473100.317    20473099.135    20473106.882
       241.000         204.000
  -5890307.16549  -4568102.90845  24201699.075    24201698.414    24201709.687
       213.000         149.000
  -6776530.25249  -5265752.18945  23932762.038    23932761.360    23932775.921
       218.000         157.000
  -5284779.27949  -4097139.43145  23781229.372    23781228.990    23781242.900
       206.000         144.000
   2821413.19549   2194540.11746  22334538.928    22334537.579    22334547.255
       231.000         182.000
 00 11 20 16 36 29.9980000  0  9G 1G29G25G22G20G13G19G28G11
  -5763238.26749  -4468726.72247  22012535.294    22012534.417    22012544.159
       236.000         189.000
   2727808.94749   2121175.22245  24600485.041    24600483.637    24600499.510
       208.000         138.000
   1400707.12349   1087125.96247  21105084.099    21105083.313    21105090.488
       245.000         207.000
  -7657882.11049  -5608972.91246  21594231.565    21594230.453    21594241.721
       229.000         183.000
  -6263308.22349  -4864443.77847  20456822.377    20456821.164    20456828.897
       240.000         204.000
  -5994695.92749  -4649444.85445  24181834.664    24181833.984    24181845.225
       214.000         148.000
  -6901540.40249  -5363162.60545  23908973.344    23908972.674    23908987.223
       217.000         159.000
  -5412602.09349  -4196741.40145  23756905.190    23756904.911    23756918.739
       210.000         144.000
   2875061.03049   2236343.45046  22344747.893    22344746.562    22344756.277
       230.000         181.000
 00 11 20 16 36 59.9980000  0  9G 1G29G25G22G20G13G19G28G11
  -5848204.47149  -4534934.15747  21996366.784    21996365.888    21996375.644
       237.000         190.000
   2770626.42549   2154539.08845  24608633.029    24608631.624    24608647.721
       212.000         143.000
   1433626.96849   1112777.72147  21111348.593    21111347.801    21111354.979
       245.000         207.000
  -7765882.10049  -5693128.72846  21573679.790    21573678.701    21573689.928
       230.000         183.000
  -6348478.36049  -4930810.11747  20440615.034    20440613.827    20440621.541
       240.000         204.000
  -6099047.46249  -4730757.79645  24161977.281    24161976.640    24161987.828
       212.000         146.000
  -7026409.02649  -5460462.70345  23885211.627    23885210.928    23885225.505
       218.000         161.000
  -5540439.70149  -4296354.92445  23732578.267    23732578.039    23732591.799
       209.000         144.000
   2928927.55049   2278317.18046  22354998.475    22354997.148    22355006.901
       230.000         182.000
 00 11 20 16 37 29.9980000  0  9G 1G29G25G22G20G13G19G28G11
  -5933067.65349  -4601061.31347  21980217.849    21980216.947    21980226.712
       237.000         190.000
   2813455.46349   2187912.02445  24616783.578    24616782.090    24616798.224
       207.000         142.000
   1466829.20649   1138649.52547  21117666.848    21117666.037    21117673.204
       244.000         207.000
  -7873529.38049  -5777009.70146  21553195.131    21553194.051    21553205.258
       231.000         183.000
  -6433278.05749  -4996887.80247  20424478.153    20424476.974    20424484.687
       239.000         204.000
  -6203365.04949  -4812044.27345  24142126.434    24142125.757    24142136.934
       214.000         150.000
  -7151137.89249  -5557653.92045  23861476.460    23861475.764    23861490.367
       217.000         159.000
  -5668292.32049  -4395980.15945  23708248.530    23708248.274    23708261.966
       210.000         143.000
   2983006.95949   2320456.78746  22365289.585    22365288.256    22365298.082
       231.000         180.000
 00 11 20 16 37 59.9980000  0  9G 1G29G25G22G20G13G19G28G11
  -6017830.44249  -4667110.23447  21964088.077    21964087.158    21964096.918
       237.000         190.000
   2856294.08449   2221292.38545  24624935.737    24624934.187    24624950.300
       209.000         145.000
   1500309.09849   1164737.67747  21124037.912    21124037.097    21124044.283
       244.000         207.000
  -7980823.35949  -5860615.37246  21532777.769    21532776.676    21532787.806
       231.000         185.000
  -6517707.35949  -5062676.86847  20408411.772    20408410.596    20408418.319
       239.000         204.000
  -6307650.91049  -4893306.01645  24122281.466    24122280.876    24122292.113
       214.000         148.000
  -7275728.14749  -5654737.09545  23837767.632    23837766.956    23837781.587
       216.000         158.000
  -5796159.63949  -4495616.86145  23683915.952    23683915.728    23683929.388
       210.000         145.000
   3037293.72949   2362757.99546  22375620.153    22375618.839    22375628.700
       230.000         180.000
 00 11 20 16 38 29.9980000  0  9G 1G29G25G22G20G13G19G28G11
  -6102503.24349  -4733089.03247  21947975.371    21947974.458    21947984.244
       238.000         190.000
   2899131.97649   2254672.19945  24633087.915    24633086.303    24633102.329
       204.000         146.000
   1534054.38049   1191032.61747  21130459.463    21130458.655    21130465.869
       245.000         206.000
  -8087770.75449  -5943950.97346  21512426.402    21512425.235    21512436.336
       232.000         185.000
  -6601774.50949  -5128183.74747  20392414.342    20392413.150    20392420.877
       240.000         204.000
  -6411915.54549  -4974551.22245  24102440.635    24102440.074    24102451.290
       214.000         146.000
  -7400188.71849  -5751719.21046  23814083.549    23814082.837    23814097.503
       220.000         164.000
  -5924049.23549  -4595270.93645  23659579.238    23659578.943    23659592.534
       213.000         144.000
   3091774.89649   2405210.65846  22385987.648    22385986.334    22385996.290
       230.000         180.000
 00 11 20 16 38 59.9980000  0  9G 1G29G25G22G20G13G19G28G11
  -6187084.88949  -4798996.79247  21931880.095    21931879.145    21931888.896
       237.000         191.000
   2941970.70549   2288052.57545  24641240.144    24641238.586    24641254.615
       202.000         136.000
   1568064.02549   1217533.55447  21136931.333    21136930.527    21136937.761
       244.000         207.000
  -8194366.92849  -6027012.88146  21492141.785    21492140.633    21492151.713
       233.000         187.000
  -6685475.93849  -5193405.64347  20376486.462    20376485.285    20376493.038
       240.000         204.000
  -6516158.06349  -5055779.19145  24082603.827    24082603.386    24082614.675
       212.000         145.000
  -7524517.41849  -5848598.57945  23790424.528    23790423.842    23790438.451
       217.000         156.000
  -6051957.03949  -4694939.21745  23635239.004    23635238.757    23635252.256
       212.000         145.000
   3146448.36249   2447813.17846  22396391.730    22396390.464    22396400.514
       229.000         180.000
 00 11 20 16 39 29.9980000  0  9G 1G29G25G22G20G13G19G28G11
  -6271573.69649  -4864832.21347  21915802.409    21915801.450    21915811.194
       237.000         191.000
   2984812.03949   2321435.01945  24649392.844    24649391.354    24649407.458
       203.000         142.000
   1602337.60249   1244240.14347  21143453.454    21143452.637    21143459.878
       244.000         206.000
  -8300606.84149  -6109797.18646  21471924.996    21471923.823    21471934.889
       233.000         187.000
  -6768807.56249  -5258339.38047  20360628.976    20360627.809    20360635.554
       240.000         204.000
  -6620376.53649  -5136988.40145  24062771.643    24062771.270    24062782.669
       214.000         148.000
  -7648711.20249  -5945372.80145  23766791.176    23766790.452    23766805.050
       218.000         159.000
  -6179878.56449  -4794618.17945  23610896.257    23610896.009    23610909.376
       213.000         145.000
   3201313.08249   2490564.72246  22406832.399    22406831.029    22406841.095
       230.000         179.000
 00 11 20 16 39 59.9980000  0  9G 1G29G25G22G20G13G19G28G11
  -6355968.51049  -4930594.39147  21899742.611    21899741.658    21899751.378
       236.000         190.000
   3027657.55749   2354820.69445  24657546.394    24657544.897    24657560.950
       213.000         136.000
   1636874.36849   1271151.80747  21150025.612    21150024.819    21150032.087
       244.000         205.000
  -8406486.62649  -6192300.85246  21451776.764    21451775.566    21451786.597
       232.000         187.000
  -6851766.03249  -5322982.33847  20344842.494    20344841.341    20344849.080
       239.000         204.000
  -6724569.75949  -5218177.95945  24042944.483    24042943.982    24042955.371
       213.000         145.000
  -7772767.31849  -6042039.74446  23743184.031    23743183.314    23743197.906
       218.000         164.000
  -6307809.69449  -4894304.65445  23586551.742    23586551.385    23586564.608
       213.000         145.000
   3256366.92949   2533463.63846  22417308.966    22417307.576    22417317.700
       229.000         179.000
 00 11 20 16 40 29.9980000  0  9G 1G29G25G22G20G13G19G28G11
  -6440268.80449  -4996282.92047  21883700.689    21883699.826    21883709.557
       237.000         190.000
   3070507.94249   2388210.13944  24665700.658    24665699.305    24665715.386
       199.000         129.000
   1671673.18949   1298267.66247  21156647.660    21156646.871    21156654.152
       244.000         205.000
  -8512002.51949  -6274520.95546  21431697.755    21431696.552    21431707.555
       233.000         187.000
  -6934348.63849  -5387332.41547  20329127.498    20329126.393    20329134.139
       240.000         204.000
  -6828737.51049  -5299347.67245  24023122.075    24023121.587    24023132.981
       213.000         145.000
  -7896683.92549  -6138597.95745  23719603.305    23719602.707    23719617.300
       219.000         160.000
  -6435747.21249  -4993996.11545  23562205.972    23562205.605    23562218.721
       212.000         146.000
   3311607.79349   2576508.28046  22427821.124    22427819.702    22427829.853
       230.000         179.000
 00 11 20 16 40 59.9980000  0  9G 1G29G25G22G20G13G19G28G11
  -6524480.23549  -5061902.21347  21867675.753    21867674.910    21867684.645
       237.000         191.000
   3113357.59349   2421599.01845  24673855.163    24673853.597    24673869.861
       209.000         145.000
   1706726.28349   1325581.64647  21163318.131    21163317.316    21163324.615
       244.000         205.000
  -8617156.48149  -6356459.03146  21411687.615    21411686.406    21411697.370
       233.000         187.000
  -7016558.63449  -5451392.15047  20313483.454    20313482.352    20313490.106
       239.000         204.000
  -6932885.06549  -5380501.65145  24003303.556    24003303.046    24003314.390
       213.000         147.000
  -8020465.45949  -6235050.98845  23696048.349    23696047.788    23696062.346
       219.000         160.000
  -6563693.85149  -5093694.67945  23537858.489    23537858.041    23537871.034
       215.000         147.000
   3367027.10649   2619691.96946  22438367.293    22438365.833    22438376.002
       228.000         178.000
 00 11 20 16 41 29.9980000  0  9G 1G29G25G22G20G13G19G28G11
  -6608601.70249  -5127451.41947  21851668.010    21851667.137    21851676.859
       239.000         191.000
   3156208.03949   2454988.56544  24682009.636    24682008.168    24682024.123
       203.000         130.000
   1742032.49249   1353092.85747  21170036.763    21170035.935    21170043.243
       244.000         205.000
  -8721943.95949  -6438111.52446  21391747.191    21391745.994    21391756.901
       233.000         187.000
  -7098392.63849  -5515158.90347  20297910.980    20297909.860    20297917.617
       239.000         204.000
  -7037011.66649  -5461639.30645  23983489.032    23983488.443    23983499.808
       213.000         147.000
  -8144109.43949  -6331396.77046  23672519.546    23672519.023    23672533.629
       220.000         164.000
  -6691645.72849  -5193397.32245  23513510.057    23513509.523    23513522.450
       214.000         147.000
   3422622.89549   2663013.18746  22448946.952    22448945.499    22448955.701
       230.000         179.000
 00 11 20 16 41 59.9980000  0  8G 1G25G22G20G13G19G28G11
  -6692614.00149  -5192915.55047  21835681.048    21835680.141    21835689.836
       237.000         191.000
   1777609.28549   1380814.90347  21176806.885    21176806.052    21176813.373
       243.000         205.000
  -8826342.84049  -6519461.21247  21371880.703    21371879.506    21371890.409
       233.000         188.000
  -7179829.16849  -5578615.93747  20282414.105    20282412.996    20282420.767
       239.000         204.000
  -7141097.89449  -5542745.49145  23963682.119    23963681.489    23963692.963
       212.000         146.000
  -8267595.35049  -6427619.43245  23649020.935    23649020.383    23649034.948
       219.000         161.000
  -6819580.72849  -5293086.81145  23489164.723    23489164.174    23489177.065
       212.000         148.000
   3478411.31249   2706484.47246  22459563.162    22459561.798    22459572.074
       230.000         178.000
 00 11 20 16 42 29.9980000  0  8G 1G25G22G20G13G19G28G11
  -6776521.27849  -5258297.84347  21819714.006    21819713.114    21819722.800
       239.000         191.000
   1813450.05749   1408742.64047  21183627.267    21183626.412    21183633.736
       243.000         205.000
  -8930354.60549  -6600509.25347  21352087.875    21352086.689    21352097.564
       234.000         188.000
  -7260870.31749  -5641764.87847  20266992.492    20266991.367    20266999.135
       239.000         204.000
  -7245148.13949  -5623823.64945  23943881.976    23943881.439    23943892.950
       211.000         145.000
  -8390926.45549  -6523721.48345  23625551.654    23625551.174    23625565.677
       220.000         160.000
  -6947500.37549  -5392764.34445  23464822.194    23464821.738    23464834.618
       212.000         148.000
   3534385.28849   2750100.37246  22470214.806    22470213.409    22470223.700
       228.000         176.000
 00 11 20 16 42 59.9980000  0  8G 1G25G22G20G13G19G28G11
  -6860339.32749  -5323610.60247  21803763.951    21803763.058    21803772.744
       236.000         191.000
   1849537.39049   1436862.49547  21190494.556    21190493.689    21190501.017
       243.000         204.000
  -9033991.61149  -6681265.27447  21332366.381    21332365.178    21332376.044
       234.000         189.000
  -7341529.54749  -5704616.21647  20251643.546    20251642.442    20251650.204
       239.000         204.000
  -7349178.01049  -5704885.93545  23924085.680    23924085.227    23924096.752
       212.000         145.000
  -8514117.18249  -6619714.14646  23602109.011    23602108.670    23602123.185
       218.000         164.000
  -7075417.33149  -5492439.78345  23440480.304    23440479.867    23440492.686
       212.000         148.000
   3590526.17049   2793846.32146  22480898.253    22480896.844    22480907.131
       228.000         177.000
 00 11 20 16 43 29.9980000  0  8G 1G25G22G20G13G19G28G11
  -6944099.58849  -5388878.34247  21787824.861    21787823.991    21787833.695
       239.000         191.000
   1885837.56049   1465148.19747  21197402.363    21197401.475    21197408.824
       243.000         204.000
  -9137281.66549  -6761750.94247  21312710.864    21312709.698    21312720.529
       234.000         190.000
  -7421835.92849  -5767192.60547  20236361.744    20236360.632    20236368.396
       238.000         204.000
  -7453219.10549  -5785956.95245  23904287.184    23904286.807    23904298.432
       212.000         147.000
  -8637197.63349  -6715620.84645  23578687.343    23578687.076    23578701.691
       218.000         161.000
  -7203360.22649  -5592135.42545  23416133.480    23416133.057    23416145.835
       216.000         149.000
   3646799.74149   2837695.67246  22491606.817    22491605.454    22491615.787
       228.000         175.000
 00 11 20 16 43 59.9980000  0  8G 1G25G22G20G13G19G28G11
  -7027748.10449  -5454059.00247  21771907.144    21771906.211    21771915.889
       237.000         191.000
   1922402.55349   1493640.24847  21204360.483    21204359.634    21204367.030
       241.000         204.000
  -9240167.52949  -6841921.66747  21293132.235    21293131.120    21293141.931
       234.000         190.000
  -7501733.16449  -5829450.18647  20221157.807    20221156.700    20221164.453
       239.000         204.000
  -7557217.42549  -5866994.64645  23884496.868    23884496.575    23884508.201
       213.000         145.000
  -8760112.29149  -6811398.42046  23555297.499    23555297.145    23555311.661
       222.000         166.000
  -7331272.24949  -5691807.00845  23391792.540    23391792.033    23391804.832
       213.000         149.000
   3703256.79049   2881687.97746  22502350.261    22502349.016    22502359.413
       228.000         176.000
 00 11 20 16 44 29.9980000  0  8G 1G25G22G20G13G19G28G11
  -7111305.44549  -5519168.61947  21756006.590    21756005.758    21756015.455
       238.000         192.000
   1959209.68849   1522320.98647  21211364.749    21211363.880    21211371.308
       243.000         204.000
  -9342667.05349  -6921791.35647  21273627.175    21273626.069    21273636.864
       234.000         191.000
  -7581239.79049  -5891403.40247  20206028.220    20206027.104    20206034.844
       239.000         204.000
  -7661193.60049  -5948015.09645  23864710.881    23864710.641    23864722.234
       212.000         146.000
  -8882880.56349  -6907061.88745  23531935.411    23531935.014    23531949.483
       217.000         160.000
  -7459171.07249  -5791468.30945  23367454.044    23367453.564    23367466.358
       214.000         150.000
   3759873.64949   2925804.82746  22513124.163    22513122.944    22513133.411
       228.000         175.000
 00 11 20 16 44 59.9980000  0  8G 1G25G22G20G13G19G28G11
  -7194780.89949  -5584214.43347  21740121.718    21740120.884    21740130.612
       237.000         191.000
   1996247.86949   1551181.76647  21218412.983    21218412.110    21218419.567
       243.000         203.000
  -9444786.69449  -7001365.04547  21254194.370    21254193.301    21254204.076
       233.000         191.000
  -7660362.97749  -5953057.83447  20190971.534    20190970.459    20190978.203
       239.000         205.000
  -7765157.00649  -6029025.60045  23844927.405    23844927.098    23844938.641
       213.000         146.000
  -9005510.52749  -7002617.60646  23508599.729    23508599.247    23508613.668
       223.000         166.000
  -7587063.43049  -5891124.56345  23343116.688    23343116.362    23343129.060
       213.000         150.000
   3816638.15249   2970036.70046  22523926.203    22523924.995    22523935.572
       225.000         174.000
 00 11 20 16 45 29.9980000  0  8G 1G25G22G20G13G19G28G11
  -7278161.68949  -5649186.48047  21724254.836    21724254.024    21724263.769
       236.000         191.000
   2033527.80849   1580230.92347  21225507.218    21225506.331    21225513.824
       242.000         203.000
  -9546510.24849  -7080630.09647  21234836.976    21234835.887    21234846.680
       234.000         191.000
  -7739087.62549  -6014401.72447  20175990.731    20175989.680    20175997.391
       239.000         205.000
  -7869094.97749  -6110016.26945  23825148.788    23825148.443    23825159.921
       215.000         148.000
  -9127988.34249  -7098054.72345  23485292.849    23485292.382    23485306.827
       216.000         159.000
  -7714933.31049  -5990763.29345  23318783.845    23318783.403    23318796.080
       214.000         151.000
   3873560.24249   3014391.38646  22534758.409    22534757.082    22534767.645
       227.000         174.000
 00 11 20 16 45 59.9980000  0  8G 1G25G22G20G13G19G28G11
  -7361435.62749  -5714075.26947  21708408.291    21708407.518    21708417.274
       237.000         191.000
   2071059.62649   1609476.35347  21232649.392    21232648.503    21232656.030
       242.000         203.000
  -9647822.13149  -7159574.37647  21215557.914    21215556.823    21215567.620
       234.000         192.000
  -7817399.63349  -6075424.07847  20161088.448    20161087.401    20161095.117
       239.000         205.000
  -7972995.24949  -6190977.55545  23805377.270    23805376.901    23805388.421
       213.000         148.000
  -9250300.47949  -7193362.77746  23462017.604    23462017.096    23462031.470
       224.000         167.000
  -7842765.89349  -6090372.95745  23294458.130    23294457.529    23294470.194
       215.000         151.000
   3930649.09249   3058875.99446  22545622.162    22545620.815    22545631.542
       225.000         175.000
 00 11 20 16 46 29.9980000  0  8G 1G25G22G20G13G19G28G11
  -7444603.02849  -5778881.04147  21692582.086    21692581.290    21692591.039
       238.000         192.000
   2108840.82749   1638916.10947  21239839.026    21239838.126    21239845.679
       242.000         202.000
  -9748719.60849  -7238195.74647  21196357.696    21196356.622    21196367.421
       234.000         193.000
  -7895296.91949  -6136123.27847  20146265.121    20146264.040    20146271.767
       239.000         205.000
  -8076858.08249  -6271909.65645  23785612.841    23785612.498    23785624.011
       214.000         148.000
  -9372446.10449  -7288541.05646  23438773.943    23438773.470    23438787.860
       219.000         164.000
  -7970558.60349  -6189951.54245  23270140.011    23270139.329    23270151.891
       216.000         152.000
   3987900.98249   3103487.65546  22556517.054    22556515.655    22556526.380
       225.000         173.000
 00 11 20 16 46 59.9980000  0  8G 1G25G22G20G13G19G28G11
  -7527683.17449  -5843618.80547  21676772.521    21676771.686    21676781.403
       237.000         192.000
   2146849.94349   1668533.45847  21247071.999    21247071.116    21247078.709
       242.000         202.000
  -9849219.31049  -7316507.17047  21177233.216    21177232.123    21177242.918
       234.000         192.000
  -7972796.61249  -6196512.65547  20131517.441    20131516.357    20131524.070
       239.000         205.000
  -8180702.83549  -6352827.66645  23765851.965    23765851.560    23765863.046
       215.000         148.000
  -9494442.95349  -7383603.35446  23415558.493    23415558.098    23415572.572
       222.000         164.000
  -8098327.84249  -6289511.83645  23245826.230    23245825.547    23245838.094
       214.000         152.000
   4045293.98949   3148209.28846  22567438.790    22567437.358    22567448.060
       226.000         174.000
 00 11 20 16 47 29.9980000  0  8G 1G25G22G20G13G19G28G11
  -7610680.74549  -5908292.23047  21660978.673    21660977.808    21660987.490
       238.000         192.000
   2185080.49849   1698323.35747  21254347.114    21254346.241    21254353.877
       241.000         202.000
  -9949322.72349  -7394509.80347  21158184.159    21158183.047    21158193.810
       235.000         193.000
  -8049901.06649  -6256594.06147  20116844.995    20116843.882    20116851.587
       238.000         205.000
  -8284534.04149  -6433735.14845  23746093.701    23746093.251    23746104.734
       216.000         149.000
  -9616294.77749  -7478552.74346  23392370.857    23392370.410    23392384.768
       221.000         165.000
  -8226075.23449  -6389055.09145  23221516.650    23221515.945    23221528.427
       215.000         153.000
   4102820.56349   3193034.98946  22578385.849    22578384.462    22578395.170
       225.000         172.000
 00 11 20 16 47 59.9980000  0  8G 1G25G22G20G13G19G28G11
  -7693600.52049  -5972905.02947  21645199.584    21645198.699    21645208.360
       238.000         193.000
   2223525.93649   1728280.70247  21261663.177    21261662.258    21261669.943
       241.000         202.000
 -10049031.29449  -7472204.76747  21139210.224    21139209.111    21139219.847
       235.000         193.000
  -8126613.02549  -6316369.63247  20102247.187    20102246.072    20102253.800
       239.000         205.000
  -8388356.73449  -6514635.96945  23726336.910    23726336.452    23726347.993
       214.000         149.000
  -9738005.32649  -7573391.92446  23369209.899    23369209.529    23369223.977
       223.000         168.000
  -8353802.85649  -6488582.94245  23197210.741    23197210.056    23197222.544
       215.000         153.000
   4160472.90549   3237958.68946  22589356.888    22589355.493    22589366.251
       226.000         173.000
 00 11 20 16 48 29.9980000  0  8G 1G25G22G20G13G19G28G11
  -7776436.81549  -6037452.79747  21629436.347    21629435.482    21629445.160
       237.000         193.000
   2262190.09749   1758408.48747  21269020.794    21269019.907    21269027.632
       241.000         201.000
 -10148335.98549  -7549585.01947  21120313.114    21120312.032    21120322.742
       235.000         193.000
  -8202924.40749  -6375833.06747  20087725.610    20087724.511    20087732.235
       238.000         205.000
  -8492165.01349  -6595525.56545  23706582.859    23706582.423    23706593.990
       218.000         150.000
  -9859567.45849  -7668115.55046  23346077.439    23346076.982    23346091.282
       223.000         163.000
  -8481502.12949  -6588088.67745  23172910.163    23172909.592    23172922.056
       216.000         155.000
   4218253.65049   3282982.43246  22600352.362    22600350.962    22600361.742
       227.000         172.000
 00 11 20 16 48 59.9980000  0  8G 1G25G22G20G13G19G28G11
  -7859172.46849  -6101922.14047  21613692.275    21613691.398    21613701.097
       237.000         193.000
   2301087.58349   1788718.08947  21276422.868    21276421.944    21276429.727
       240.000         201.000
 -10247216.82349  -7626634.97947  21101496.718    21101495.599    21101506.300
       234.000         193.000
  -8278816.30249  -6434969.62647  20073283.867    20073282.769    20073290.496
       240.000         205.000
  -8595941.73949  -6676390.55945  23686834.776    23686834.380    23686845.940
       219.000         151.000
  -9980963.04749  -7762709.33646  23322976.474    23322976.037    23322990.376
       221.000         170.000
  -8609153.03749  -6687556.73345  23148618.801    23148618.317    23148630.716
       215.000         154.000
   4276177.06149   3328117.35546  22611375.074    22611373.580    22611384.401
       226.000         171.000
 00 11 20 16 49 29.9980000  0  8G 1G25G22G20G13G19G28G11
  -7941817.64849  -6166320.98747  21597965.488    21597964.563    21597974.244
       239.000         193.000
   2340206.03749   1819199.87647  21283866.959    21283866.031    21283873.870
       241.000         201.000
 -10345681.66649  -7703360.78347  21082759.462    21082758.315    21082769.017
       234.000         192.000
  -8354296.87949  -6493785.68347  20058920.446    20058919.321    20058927.040
       240.000         205.000
  -8699697.33049  -6757239.11845  23667090.838    23667090.361    23667101.940
       215.000         149.000
 -10102201.09649  -7857180.34546  23299905.536    23299905.098    23299919.511
       224.000         166.000
  -8736763.09549  -6786992.94145  23124335.256    23124334.787    23124347.166
       216.000         155.000
   4334229.76249   3373353.02346  22622422.254    22622420.791    22622431.688
       226.000         171.000
 00 11 20 16 49 59.9980000  0  8G 1G25G22G20G13G19G28G11
  -8024347.33149  -6230629.83247  21582260.549    21582259.683    21582269.348
       238.000         193.000
   2379568.60949   1849871.88647  21291357.499    21291356.575    21291364.458
       242.000         202.000
 -10443702.30149  -7779740.44547  21064106.717    21064105.560    21064116.260
       235.000         193.000
  -8429338.87949  -6552259.98847  20044640.448    20044639.337    20044647.047
       240.000         205.000
  -8803407.09349  -6838051.95345  23647355.631    23647355.086    23647366.614
       217.000         150.000
 -10223255.56149  -7951508.40946  23276869.524    23276869.082    23276883.328
       220.000         163.000
  -8864304.22249  -6886375.43845  23100064.839    23100064.369    23100076.754
       215.000         155.000
   4392433.67849   3418706.49546  22633498.301    22633496.831    22633507.715
       226.000         171.000
 00 11 20 16 50 29.9980000  0  8G 1G25G22G20G13G19G28G11
  -8106786.64549  -6294868.26347  21566572.909    21566572.020    21566581.669
       239.000         193.000
   2419148.40349   1880713.16747  21298889.375    21298888.472    21298896.389
       242.000         201.000
 -10541300.37549  -7855790.82147  21045534.356    21045533.224    21045543.918
       235.000         193.000
  -8503965.25549  -6610410.42647  20030439.591    20030438.429    20030446.133
       240.000         205.000
  -8907095.81349  -6918848.37745  23627624.321    23627623.813    23627635.385
       219.000         151.000
 -10344150.16849  -8045711.78946  23253863.944    23253863.481    23253877.759
       225.000         172.000
  -8991798.78749  -6985721.63945  23075803.255    23075802.811    23075815.212
       218.000         156.000
   4450760.94049   3464156.09746  22644597.880    22644596.353    22644607.256
       224.000         170.000
 00 11 20 16 50 59.9980000  0  8G 1G25G22G20G13G19G28G11
  -8189142.85849  -6359041.94747  21550901.049    21550900.150    21550909.810
       239.000         193.000
   2458935.84449   1911716.25147  21306460.819    21306459.871    21306467.825
       242.000         201.000
 -10638480.07849  -7931515.20047  21027041.653    21027040.503    21027051.182
       235.000         193.000
  -8578181.26549  -6668241.10547  20016316.777    20016315.613    20016323.309
       240.000         205.000
  -9010770.78649  -6999634.11745  23607895.569    23607895.121    23607906.664
       219.000         153.000
 -10464891.26749  -8139795.64245  23230887.539    23230887.130    23230901.351
       220.000         161.000
  -9119251.12449  -7085034.93845  23051549.682    23051549.277    23051561.718
       218.000         156.000
   4509201.10849   3509693.67546  22655718.731    22655717.280    22655728.251
       225.000         170.000
 00 11 20 16 51 29.9980000  0  8G 1G25G22G20G13G19G28G11
  -8271413.10449  -6423148.63647  21535245.590    21535244.654    21535254.302
       239.000         193.000
   2498931.37149   1942881.48747  21314071.826    21314070.869    21314078.852
       242.000         201.000
 -10735236.00549  -8006909.34147  21008629.567    21008628.435    21008639.092
       235.000         193.000
  -8651982.05849  -6725748.23847  20002273.004    20002271.816    20002279.500
       240.000         206.000
  -9114429.57549  -7080407.24345  23588170.001    23588169.537    23588181.126
       219.000         152.000
 -10585474.78649  -8233756.65946  23207941.106    23207940.724    23207954.908
       226.000         173.000
  -9246655.55649  -7184310.91845  23027305.229    23027304.855    23027317.315
       217.000         157.000
   4567754.10449   3555319.15146  22666861.201    22666859.713    22666870.751
       224.000         170.000
 00 11 20 16 51 59.9980000  0  8G 1G25G22G20G13G19G28G11
  -8353597.23749  -6487188.22847  21519606.472    21519605.547    21519615.189
       240.000         193.000
   2539133.39349   1974207.63347  21321722.129    21321721.159    21321729.177
       241.000         202.000
 -10831565.46149  -8081971.16047  20990298.636    20990297.515    20990308.149
       235.000         194.000
  -8725365.44049  -6782930.11447  19988308.618    19988307.437    19988315.139
       239.000         205.000
  -9218071.84149  -7161167.46545  23568447.555    23568447.117    23568458.800
       218.000         152.000
 -10705899.41749  -8327593.90046  23185025.089    23185024.642    23185038.769
       220.000         165.000
  -9374009.04349  -7283547.19145  23003070.555    23003070.151    23003082.616
       218.000         157.000
   4626417.13649   3601030.37346  22678024.572    22678023.080    22678034.179
       225.000         170.000
 00 11 20 16 52 29.9980000  0  8G 1G25G22G20G13G19G28G11
  -8435673.37449  -6551143.67047  21503987.927    21503986.977    21503996.632
       239.000         193.000
   2579561.97549   2005710.31147  21329415.529    21329414.562    21329422.612
       242.000         201.000
 -10927443.18949  -8156680.98247  20972053.670    20972052.537    20972063.152
       236.000         194.000
  -8798307.32549  -6839767.96247  19974428.274    19974427.092    19974434.784
       240.000         205.000
  -9321675.50549  -7241897.64045  23548732.656    23548732.109    23548743.696
       220.000         154.000
 -10826142.33949  -8421289.54246  23162143.473    23162143.031    23162157.168
       225.000         170.000
  -9501286.93449  -7382724.55445  22978850.217    22978849.768    22978862.323
       218.000         158.000
   4685208.94049   3646841.93846  22689212.394    22689210.952    22689222.115
       224.000         169.000
 00 11 20 16 52 59.9980000  0  8G 1G25G22G20G13G19G28G11
  -8517657.25249  -6615027.21447  21488386.953    21488385.987    21488395.635
       240.000         193.000
   2620199.34349   2037375.68447  21337148.702    21337147.698    21337155.775
       242.000         201.000
 -11022881.69749  -8231048.53947  20953892.266    20953891.133    20953901.745
       236.000         194.000
  -8870821.49849  -6896272.52547  19960629.343    19960628.124    19960635.811
       239.000         205.000
  -9425256.31949  -7322609.99845  23529021.928    23529021.413    23529032.974
       219.000         154.000
 -10946217.94349  -8514854.80446  23139293.898    23139293.368    23139307.469
       222.000         170.000
  -9628501.96249  -7481852.95545  22954641.815    22954641.413    22954653.935
       217.000         158.000
   4744110.86449   3692739.30246  22700421.144    22700419.800    22700431.027
       225.000         170.000
 00 11 20 16 53 29.9970000  0  8G 1G25G22G20G13G19G28G11
  -8599533.25649  -6678826.70147  21472806.452    21472805.501    21472815.166
       239.000         193.000
   2661054.77349   2069210.97447  21344923.314    21344922.334    21344930.425
       242.000         201.000
 -11117862.19949  -8305059.21847  20935818.006    20935816.898    20935827.500
       236.000         194.000
  -8942890.58749  -6952430.27147  19946915.084    19946913.857    19946921.527
       239.000         205.000
  -9528798.22649  -7403292.01445  23509318.667    23509318.089    23509329.692
       221.000         155.000
 -11066108.66149  -8608276.01846  23116479.369    23116478.816    23116492.854
       225.000         168.000
  -9755634.11549  -7580916.77145  22930449.249    22930448.833    22930461.309
       217.000         158.000
   4803130.83049   3738728.66346  22711652.323    22711651.039    22711662.352
       223.000         167.000
 00 11 20 16 53 59.9970000  0  8G 1G25G22G20G13G19G28G11
  -8681316.61449  -6742553.99047  21457243.586    21457242.650    21457252.323
       239.000         194.000
   2702118.84049   2101208.84347  21352737.644    21352736.662    21352744.777
       242.000         201.000
 -11212398.59049  -8378723.83547  20917828.286    20917827.178    20917837.756
       235.000         195.000
  -9014527.43349  -7008251.20347  19933283.076    19933281.834    19933289.494
       238.000         204.000
  -9632318.30349  -7483957.04645  23489619.483    23489618.889    23489630.455
       221.000         156.000
 -11185831.11149  -8701566.13046  23093697.006    23093696.355    23093710.254
       223.000         170.000
  -9882699.01349  -7679928.18945  22906269.468    22906269.034    22906281.489
       219.000         157.000
   4862259.71949   3784802.89846  22722904.367    22722903.044    22722914.454
       223.000         169.000
 00 11 20 16 54 29.9970000  0  8G 1G25G22G20G13G19G28G11
  -8763000.31649  -6806203.62247  21441699.715    21441698.769    21441708.460
       240.000         194.000
   2743392.85149   2133370.29747  21360591.896    21360590.941    21360599.108
       242.000         201.000
 -11306480.61749  -8452034.40547  20899925.011    20899923.913    20899934.478
       236.000         195.000
  -9085723.24149  -7063728.47247  19919735.013    19919733.752    19919741.388
       239.000         204.000
  -9735808.21449  -7564598.54145  23469926.082    23469925.491    23469937.049
       220.000         154.000
 -11305375.94649  -8794717.82146  23070948.403    23070947.684    23070961.542
       226.000         169.000
 -10009685.32649  -7778878.40645  22882104.623    22882104.175    22882116.612
       218.000         158.000
   4921497.18449   3830961.70146  22734176.956    22734175.678    22734187.182
       225.000         169.000
 00 11 20 16 54 59.9970000  0  8G 1G25G22G20G13G19G28G11
  -8844596.98149  -6869785.43347  21426172.377    21426171.432    21426181.160
       239.000         194.000
   2784861.58149   2165683.48347  21368483.232    21368482.266    21368490.475
       242.000         201.000
 -11400117.76649  -8524998.33147  20882106.411    20882105.313    20882115.822
       236.000         195.000
  -9156488.74949  -7118870.43847  19906268.823    19906267.563    19906275.173
       239.000         205.000
  -9839281.38049  -7645226.99745  23450235.834    23450235.227    23450246.725
       220.000         156.000
 -11424754.94649  -8887740.32046  23048231.158    23048230.514    23048244.296
       223.000         170.000
 -10136602.90949  -7877775.05145  22857952.864    22857952.442    22857964.819
       218.000         160.000
   4980827.08849   3877192.56446  22745467.214    22745465.943    22745477.522
       221.000         167.000
 00 11 20 16 55 29.9970000  0  8G 1G25G22G20G13G19G28G11
  -8926107.13949  -6933299.83447  21410661.490    21410660.577    21410670.315
       238.000         194.000
   2826522.85649   2198146.70647  21376411.198    21376410.251    21376418.473
       242.000         201.000
 -11493307.47749  -8597613.59747  20864372.999    20864371.861    20864382.309
       237.000         195.000
  -9226822.46549  -7173675.93947  19892884.766    19892883.506    19892891.132
       238.000         204.000
  -9942737.98249  -7725842.53045  23430548.628    23430548.112    23430559.654
       219.000         157.000
 -11543967.27549  -8980632.90946  23025545.672    23025545.031    23025558.812
       223.000         168.000
 -10263449.30049  -7976616.24045  22833814.683    22833814.234    22833826.608
       218.000         160.000
   5040246.06449   3923492.82246  22756774.450    22756773.223    22756784.807
       222.000         166.000
 00 11 20 16 55 59.9970000  0  8G 1G25G22G20G13G19G28G11
  -9007513.16949  -6996733.08747  21395170.478    21395169.535    21395179.263
       240.000         194.000
   2868391.96749   2230771.87647  21384378.727    21384377.776    21384386.001
       242.000         201.000
 -11586029.34549  -8669864.31747  20846728.546    20846727.426    20846737.841
       237.000         195.000
  -9296704.89949  -7228129.79347  19879586.564    19879585.340    19879592.938
       238.000         205.000
 -10046160.22649  -7806431.27945  23410868.056    23410867.559    23410879.090
       218.000         158.000
 -11662994.33749  -9073381.18446  23002895.479    23002894.881    23002908.548
       226.000         173.000
 -10390203.92149  -8075385.94045  22809694.019    22809693.514    22809705.832
       219.000         160.000
   5099769.08249   3969874.12346  22768101.423    22768100.203    22768111.863
       220.000         167.000
 00 11 20 16 56 29.9970000  0  8G 1G25G22G20G13G19G28G11
  -9088838.32949  -7060103.32747  21379694.833    21379693.885    21379703.605
       240.000         195.000
   2910443.71049   2263539.34647  21392381.018    21392380.054    21392388.298
       241.000         201.000
 -11678304.69349  -8741767.11247  20829169.059    20829167.943    20829178.344
       236.000         196.000
  -9366157.61049  -7282248.79947  19866370.139    19866368.953    19866376.546
       238.000         205.000
 -10149571.76849  -7887011.71545  23391189.416    23391189.012    23391200.586
       221.000         157.000
 -11781858.80849  -9166002.69046  22980276.103    22980275.593    22980289.341
       223.000         168.000
 -10516887.47849  -8174100.27145  22785586.849    22785586.300    22785598.603
       219.000         161.000
   5159369.27349   4016315.57746  22779443.205    22779441.904    22779453.606
       221.000         164.000
 00 11 20 16 56 59.9970000  0  8G 1G25G22G20G13G19G28G11
  -9170071.95349  -7123402.24647  21364236.628    21364235.643    21364245.381
       240.000         194.000
   2952686.81549   2296455.93247  21400419.669    21400418.727    21400427.016
       241.000         200.000
 -11770119.87549  -8813311.33647  20811697.111    20811696.020    20811706.418
       236.000         195.000
  -9435167.91749  -7336023.07447  19853237.933    19853236.748    19853244.350
       239.000         205.000
 -10252962.13349  -7967575.61645  23371514.866    23371514.498    23371526.101
       220.000         159.000
 -11900548.72249  -9258488.26046  22957690.085    22957689.601    22957703.235
       226.000         173.000
 -10643486.20949  -8272748.51545  22761495.856    22761495.248    22761507.537
       219.000         162.000
   5219054.53949   4062823.33246  22790801.068    22790799.772    22790811.566
       227.000         169.000
 00 11 20 16 57 29.9970000  0  8G 1G25G22G20G13G19G28G11
  -9251207.60849  -7186624.82147  21348796.981    21348796.026    21348805.765
       239.000         194.000
   2995125.33149   2329524.78447  21408495.532    21408494.600    21408502.906
       241.000         201.000
 -11861465.24149  -8884489.48847  20794314.574    20794313.499    20794323.897
       236.000         196.000
  -9503727.23949  -7389445.93247  19840191.569    19840190.359    19840197.955
       238.000         205.000
 -10356324.80749  -8048117.93945  23351845.603    23351845.230    23351856.863
       221.000         157.000
 -12019056.77049  -9350832.01146  22935138.440    22935138.073    22935151.820
       224.000         170.000
 -10769990.91149  -8371323.50245  22737422.689    22737422.161    22737434.380
       219.000         162.000
   5278828.34849   4109400.08845  22802175.795    22802174.517    22802186.350
       221.000         162.000
 00 11 20 16 57 59.9970000  0  8G 1G25G22G20G13G19G28G11
  -9332238.73549  -7249765.95047  21333377.233    21333376.319    21333386.049
       239.000         195.000
   3037764.17349   2362749.73647  21416609.536    21416608.596    21416616.903
       241.000         201.000
 -11952331.51849  -8955294.32947  20777023.242    20777022.145    20777032.544
       237.000         196.000
  -9571827.50949  -7442511.09247  19827232.567    19827231.334    19827238.929
       238.000         205.000
 -10459653.12249  -8128633.48845  23332182.847    23332182.523    23332194.107
       220.000         157.000
 -12137375.25249  -9443028.15246  22912623.315    22912622.834    22912636.389
       224.000         171.000
 -10896392.15849  -8469817.88746  22713369.249    22713368.705    22713380.924
       220.000         163.000
   5338694.18149   4156048.56146  22813568.372    22813566.858    22813578.727
       225.000         168.000
 00 11 20 16 58 29.9970000  0  8G 1G25G22G20G13G19G28G11
  -9413169.86249  -7312829.15047  21317976.538    21317975.630    21317985.357
       239.000         195.000
   3080596.52649   2396125.46947  21424760.318    21424759.421    21424767.742
       241.000         200.000
 -12042720.87149  -9025727.55547  20759822.662    20759821.565    20759831.947
       235.000         195.000
  -9639471.07649  -7495220.37647  19814360.425    19814359.212    19814366.812
       238.000         205.000
 -10562951.57449  -8209125.78145  23312525.853    23312525.504    23312537.027
       220.000         158.000
 -12255507.71849  -9535079.25846  22890143.210    22890142.820    22890156.339
       228.000         176.000
 -11022691.73449  -8568233.03446  22689335.227    22689334.622    22689346.784
       219.000         163.000
   5398644.35749   4202762.70546  22824976.698    22824975.168    22824987.110
       224.000         165.000
 00 11 20 16 58 59.9970000  0  8G 1G25G22G20G13G19G28G11
  -9494015.37049  -7375825.64047  21302592.169    21302591.253    21302600.962
       239.000         195.000
   3123606.07449   2429639.26647  21432944.867    21432943.957    21432952.330
       240.000         200.000
 -12132645.37449  -9095798.57147  20742710.521    20742709.434    20742719.809
       236.000         196.000
  -9706670.47949  -7547583.56347  19801572.808    19801571.616    19801579.205
       238.000         205.000
 -10666234.83649  -8289606.23745  23292871.620    23292871.310    23292882.925
       218.000         157.000
 -12373467.53249  -9626995.86746  22867696.309    22867695.804    22867709.226
       221.000         168.000
 -11148901.19149  -8666577.96746  22665318.304    22665317.714    22665329.787
       221.000         165.000
   5458661.82649   4249529.34146  22836397.944    22836396.341    22836408.295
       219.000         166.000
 00 11 20 16 59 29.9970000  0  8G 1G25G22G20G13G19G28G11
  -9574773.21749  -7438753.82647  21287224.507    21287223.565    21287233.251
       240.000         195.000
   3166792.77649   2463291.11147  21441163.124    21441162.212    21441170.613
       240.000         200.000
 -12222100.06249  -9165503.50547  20725687.836    20725686.725    20725697.094
       237.000         196.000
  -9773422.12549  -7599597.84647  19788870.388    19788869.203    19788876.810
       238.000         205.000
 -10769500.83649  -8370073.24345  23273220.661    23273220.404    23273232.040
       220.000         158.000
 -12491251.76349  -9718775.65546  22845282.575    22845282.088    22845295.464
       229.000         176.000
 -11275015.66149  -8764848.88846  22641319.473    22641318.856    22641330.900
       220.000         165.000
   5518745.28749   4296347.36646  22847831.785    22847830.101    22847842.102
       224.000         166.000
 00 11 20 16 59 59.9970000  0  8G 1G25G22G20G13G19G28G11
  -9655436.97849  -7501608.68547  21271874.667    21271873.746    21271883.432
       238.000         195.000
   3210160.78649   2497084.22847  21449415.823    21449414.948    21449423.394
       240.000         200.000
 -12311075.56949  -9234835.06947  20708756.315    20708755.215    20708765.556
       237.000         196.000
  -9839717.74849  -7651256.78347  19776254.786    19776253.594    19776261.197
       236.000         206.000
 -10872743.55349  -8450522.11445  23253574.257    23253573.965    23253585.621
       219.000         158.000
 -12608853.53949  -9810413.25146  22822903.680    22822903.156    22822916.479
       223.000         168.000
 -11401025.87349  -8863038.55246  22617340.477    22617339.820    22617351.807
       221.000         164.000
   5578898.00449   4343219.36046  22859278.567    22859276.975    22859288.985
       224.000         165.000
 00 11 20 17  0 29.9970000  0  8G 1G25G22G20G13G19G28G11
  -9735995.40849  -7564381.47847  21256544.977    21256544.011    21256553.657
       239.000         196.000
   3253719.06449   2531025.60547  21457704.771    21457703.901    21457712.399
       239.000         199.000
 -12399558.27749  -9303782.63647  20691918.618    20691917.480    20691927.793
       237.000         197.000
  -9905544.28049  -7702550.20147  19763728.412    19763727.238    19763734.839
       236.000         205.000
 -10975951.67849  -8530944.02345  23233934.488    23233934.116    23233945.786
       219.000         159.000
 -12726260.86749  -9901899.35146  22800561.843    22800561.270    22800574.443
       229.000         177.000
 -11526917.82049  -8961136.05846  22593383.959    22593383.293    22593395.244
       221.000         166.000
   5639128.06049   4390151.61446  22870740.270    22870738.637    22870750.718
       222.000         165.000
 00 11 20 17  0 59.9970000  0  8G 1G25G22G20G13G19G28G11
  -9816457.82649  -7627079.44947  21241233.476    21241232.518    21241242.173
       240.000         195.000
   3297456.40749   2565106.51047  21466027.886    21466026.941    21466035.467
       240.000         200.000
 -12487555.31849  -9372351.77547  20675173.360    20675172.184    20675182.462
       237.000         197.000
  -9970909.43449  -7753484.11547  19751289.879    19751288.679    19751296.293
       236.000         206.000
 -11079134.65549  -8611346.36645  23214299.372    23214299.026    23214310.646
       219.000         159.000
 -12843481.95949  -9993240.27746  22778255.198    22778254.692    22778267.928
       224.000         170.000
 -11652697.85049  -9059146.35446  22569448.676    22569448.029    22569459.991
       222.000         166.000
   5699423.07149   4437134.48146  22882214.170    22882212.536    22882224.663
       223.000         164.000
 00 11 20 17  1 29.9970000  0  8G 1G25G22G20G13G19G28G11
  -9896829.13549  -7689706.42047  21225939.326    21225938.365    21225948.012
       239.000         196.000
   3341365.88849   2599321.54247  21474383.649    21474382.740    21474391.277
       240.000         200.000
 -12575069.21649  -9440544.44847  20658519.990    20658518.834    20658529.090
       237.000         197.000
 -10035816.21449  -7804060.84747  19738938.537    19738937.343    19738944.968
       236.000         206.000
 -11182297.52849  -8691733.00945  23194668.114    23194667.769    23194679.452
       218.000         159.000
 -12960520.64549 -10084439.17346  22755983.481    22755982.926    22755995.953
       224.000         172.000
 -11778368.15849  -9157071.12846  22545534.189    22545533.647    22545545.615
       222.000         167.000
   5759775.26349   4484161.88146  22893698.911    22893697.343    22893709.599
       221.000         164.000
 00 11 20 17  1 59.9970000  0  8G 1G25G22G20G13G19G28G11
  -9977108.88849  -7752262.05947  21210662.608    21210661.642    21210671.274
       240.000         196.000
   3385445.88249   2633669.43947  21482771.875    21482770.979    21482779.544
       240.000         199.000
 -12662096.49249  -9508357.93547  20641959.239    20641958.085    20641968.323
       236.000         197.000
 -10100262.48549  -7854278.74447  19726674.871    19726673.649    19726681.262
       236.000         206.000
 -11285439.52449  -8772103.39645  23175040.814    23175040.506    23175052.186
       220.000         160.000
 -13077375.62349 -10175494.82246  22733746.329    22733745.979    22733759.090
       225.000         176.000
 -11903925.54649  -9254907.89746  22521641.326    22521640.769    22521652.732
       223.000         165.000
   5820182.04149   4531231.83746  22905194.231    22905192.578    22905204.867
       225.000         165.000
 00 11 20 17  2 29.9970000  0  8G 1G25G22G20G13G19G28G11
 -10057280.84049  -7814733.69447  21195406.443    21195405.417    21195415.068
       239.000         196.000
   3429710.55049   2668161.23447  21491195.314    21491194.366    21491202.969
       240.000         199.000
 -12748618.14449  -9575777.43747  20625494.708    20625493.545    20625503.761
       237.000         196.000
 -10164230.26949  -7904123.78847  19714502.214    19714501.014    19714508.617
       236.000         205.000
 -11388544.67149  -8852445.07345  23155420.609    23155420.314    23155431.932
       222.000         161.000
 -13194029.75349 -10266394.02446  22711547.765    22711547.377    22711560.432
       225.000         174.000
 -12029350.99549  -9352641.85446  22497773.668    22497772.992    22497784.954
       223.000         168.000
   5880656.58949   4578354.59246  22916702.407    22916700.708    22916713.085
       223.000         165.000
 00 11 20 17  2 59.9970000  0  8G 1G25G22G20G13G19G28G11
 -10137356.71749  -7877130.47147  21180168.428    21180167.467    21180177.131
       240.000         196.000
   3474146.30149   2702786.33847  21499651.282    21499650.329    21499658.935
       241.000         200.000
 -12834643.70949  -9642810.36647  20609124.597    20609123.421    20609133.620
       237.000         197.000
 -10227729.52149  -7953603.73447  19702418.713    19702417.535    19702425.139
       235.000         206.000
 -11491624.75849  -8932767.20145  23135805.209    23135804.795    23135816.484
       220.000         160.000
 -13310494.10349 -10357145.31446  22689385.156    22689384.770    22689397.865
       226.000         173.000
 -12154653.33849  -9450279.89246  22473929.349    22473928.672    22473940.589
       224.000         168.000
   5941184.32449   4625518.80446  22928220.774    22928219.006    22928231.410
       222.000         164.000
 00 11 20 17  3 29.9970000  0  8G 1G25G22G20G13G19G28G11
 -10217331.21649  -7939448.25547  21164949.756    21164948.836    21164958.481
       240.000         197.000
   3518755.91849   2737546.91347  21508140.336    21508139.370    21508147.997
       241.000         200.000
 -12920165.89349  -9709451.04347  20592850.322    20592849.108    20592859.293
       237.000         197.000
 -10290753.30249  -8002713.19247  19690425.760    19690424.531    19690432.127
       236.000         206.000
 -11594674.53049  -9013065.71045  23116195.460    23116195.105    23116206.786
       221.000         160.000
 -13426762.63649 -10447744.07546  22667260.095    22667259.577    22667272.567
       226.000         177.000
 -12279824.54049  -9547815.71946  22450109.973    22450109.307    22450121.175
       224.000         168.000
   6001767.23949   4672725.97745  22939749.286    22939747.697    22939760.147
       221.000         162.000
 00 11 20 17  3 59.9970000  0  8G 1G25G22G20G13G19G28G11
 -10297199.64749  -8001683.39347  21149751.310    21149750.383    21149760.000
       240.000         197.000
   3563542.16549   2772445.11747  21516662.985    21516662.025    21516670.697
       241.000         199.000
 -13005177.51549  -9775693.87447  20576673.200    20576671.963    20576682.124
       238.000         198.000
 -10353295.32449  -8051447.25547  19678524.406    19678523.189    19678530.787
       236.000         206.000
 -11697689.53549  -9093337.12345  23096592.439    23096592.019    23096603.722
       219.000         159.000
 -13542829.90049 -10538185.93446  22645173.081    22645172.599    22645185.651
       228.000         175.000
 -12404857.16349  -9645243.57046  22426316.993    22426316.292    22426328.163
       224.000         168.000
   6062407.02849   4719977.50546  22951288.834    22951287.281    22951299.808
       222.000         165.000
 00 11 20 17  4 29.9970000  0  8G 1G25G22G20G13G19G28G11
 -10376980.54549  -8063850.33047  21134569.447    21134568.571    21134578.173
       240.000         197.000
   3608484.36249   2807464.83747  21525215.305    21525214.348    21525223.075
       240.000         199.000
 -13089694.06449  -9841550.92647  20560590.267    20560589.006    20560599.172
       238.000         198.000
 -10415372.55449  -8099819.13647  19666711.475    19666710.307    19666717.908
       235.000         206.000
 -11800688.12349  -9173595.75745  23076992.439    23076992.033    23077003.739
       221.000         160.000
 -13658713.33349 -10628484.61346  22623121.187    22623120.645    22623133.589
       227.000         174.000
 -12529766.85449  -9742575.65046  22402547.421    22402546.712    22402558.504
       225.000         168.000
   6123082.10749   4767256.51545  22962834.932    22962833.492    22962846.113
       221.000         161.000
 00 11 20 17  4 59.9970000  0  8G 1G25G22G20G13G19G28G11
 -10456652.30549  -8125932.22047  21119408.457    21119407.544    21119417.117
       240.000         196.000
   3653602.26549   2842621.47047  21533801.016    21533800.094    21533808.881
       240.000         199.000
 -13173691.83249  -9907003.71847  20544606.015    20544604.747    20544614.936
       237.000         198.000
 -10476961.85049  -8147810.80847  19654991.444    19654990.275    19654997.884
       236.000         206.000
 -11903649.22949  -9253825.17545  23057399.574    23057399.170    23057410.847
       220.000         159.000
 -13774390.87749 -10718622.82946  22601108.475    22601107.895    22601120.824
       226.000         177.000
 -12654529.44949  -9839793.10446  22378805.810    22378805.131    22378816.850
       226.000         169.000
   6183810.94249   4814577.43546  22974391.397    22974389.971    22974402.682
       220.000         163.000
 00 11 20 17  5 29.9970000  0  8G 1G25G22G20G13G19G28G11
 -10536216.51349  -8187930.30847  21104267.891    21104266.965    21104276.526
       240.000         197.000
   3698892.12149   2877912.08647  21542419.492    21542418.575    21542427.412
       239.000         198.000
 -13257169.99749  -9972051.61347  20528720.632    20528719.378    20528729.582
       237.000         197.000
 -10538062.90049  -8195422.03347  19643364.341    19643363.161    19643370.770
       235.000         206.000
 -12006574.49049  -9334026.63845  23037813.544    23037813.097    23037824.800
       221.000         160.000
 -13889862.84749 -10808600.86946  22579134.695    22579134.191    22579147.110
       228.000         176.000
 -12779143.40049  -9936894.73646  22355092.506    22355091.809    22355103.443
       224.000         169.000
   6244589.21549   4861936.84346  22985957.425    22985955.847    22985968.717
       224.000         163.000
 00 11 20 17  5 59.9970000  0  8G 1G25G22G20G13G19G28G11
 -10615686.70949  -8249855.13047  21089145.150    21089144.269    21089153.839
       240.000         197.000
   3744338.12349   2913324.37447  21551067.752    21551066.790    21551075.669
       240.000         199.000
 -13340140.52949 -10036703.93247  20512931.869    20512930.595    20512940.809
       237.000         197.000
 -10598687.95949  -8242662.35347  19631827.768    19631826.615    19631834.221
       235.000         206.000
 -12109477.22249  -9414210.56445  23018231.739    23018231.339    23018243.006
       219.000         159.000
 -14005142.37449 -10898428.98046  22557197.696    22557197.173    22557209.981
       226.000         178.000
 -12903619.66749 -10033889.10146  22331405.381    22331404.682    22331416.244
       224.000         169.000
   6305399.72249   4909321.40646  22997529.628    22997528.019    22997540.798
       222.000         163.000
 00 11 20 17  6 29.9970000  0  8G 1G25G22G20G13G19G28G11
 -10695046.25949  -8311693.74147  21074043.518    21074042.648    21074052.219
       240.000         197.000
   3789955.07749   2948869.87747  21559748.566    21559747.548    21559756.426
       239.000         198.000
 -13422583.95149 -10100945.50747  20497243.393    20497242.133    20497252.348
       237.000         197.000
 -10658818.72049  -8289517.50447  19620385.286    19620384.126    19620391.722
       235.000         206.000
 -12212340.94949  -9494364.07045  22998657.286    22998656.974    22998668.615
       220.000         159.000
 -14120212.23949 -10988093.66746  22535300.527    22535300.015    22535312.888
       230.000         178.000
 -13027939.13849 -10130761.28746  22307748.034    22307747.387    22307758.881
       224.000         169.000
   6366256.11749   4956741.69046  23009110.370    23009108.866    23009121.687
       221.000         163.000
 00 11 20 17  6 59.9970000  0  8G 1G25G22G20G13G19G28G11
 -10774288.26149  -8373440.75247  21058964.283    21058963.389    21058972.977
       240.000         197.000
   3835747.92049   2984552.42747  21568462.816    21568461.779    21568470.673
       239.000         198.000
 -13504490.84049 -10164768.99447  20481657.055    20481655.767    20481665.968
       237.000         197.000
 -10718446.85249  -8335980.99647  19609038.447    19609037.300    19609044.879
       235.000         206.000
 -12315159.06549  -9574482.05345  22979091.539    22979091.300    22979102.907
       219.000         157.000
 -14235064.55249 -11077588.90946  22513444.888    22513444.319    22513457.002
       225.000         176.000
 -13152092.04649 -10227503.69546  22284122.424    22284121.783    22284133.225
       225.000         171.000
   6427162.42149   5004200.88145  23020700.674    23020699.168    23020712.057
       220.000         160.000
 00 11 20 17  7 29.9970000  0  8G 1G25G22G20G13G19G28G11
 -10853437.85949  -8435115.76247  21043902.586    21043901.701    21043911.304
       241.000         197.000
   3881689.30149   3020350.73747  21577205.347    21577204.276    21577213.196
       240.000         198.000
 -13585884.02149 -10228192.19547  20466168.400    20466167.135    20466177.350
       237.000         198.000
 -10777595.76849  -8382071.07247  19597782.838    19597781.670    19597789.233
       235.000         205.000
 -12417956.70549  -9654584.07645  22959529.791    22959529.554    22959541.164
       220.000         159.000
 -14349723.73049 -11166933.60146  22491625.885    22491625.339    22491638.049
       229.000         181.000
 -13276100.37749 -10324133.46046  22260524.367    22260523.698    22260535.104
       225.000         170.000
   6488090.58649   5051677.09645  23032295.037    23032293.577    23032306.539
       220.000         161.000
 00 11 20 17  7 59.9970000  0  8G 1G25G22G20G13G19G28G11
 -10932496.56649  -8496719.95347  21028858.222    21028857.327    21028866.922
       241.000         198.000
   3927775.42749   3056261.82147  21585975.313    21585974.294    21585983.262
       238.000         198.000
 -13666763.58449 -10291215.15947  20450777.484    20450776.247    20450786.472
       237.000         198.000
 -10836265.68049  -8427787.90147  19586618.341    19586617.178    19586624.731
       235.000         205.000
 -12520735.43749  -9734671.36545  22939971.587    22939971.391    22939983.024
       221.000         159.000
 -14464190.78449 -11256128.62346  22469843.284    22469842.820    22469855.507
       225.000         174.000
 -13399963.24449 -10420649.90046  22236953.930    22236953.299    22236964.656
       225.000         170.000
   6549035.79349   5099166.57145  23043892.780    23043891.267    23043904.314
       217.000         160.000
 00 11 20 17  8 29.9970000  0  8G 1G25G22G20G13G19G28G11
 -11011458.16149  -8558248.47447  21013832.284    21013831.434    21013841.031
       241.000         199.000
   3974010.25449   3092288.77247  21594773.640    21594772.615    21594781.632
       238.000         198.000
 -13747121.09849 -10353831.33647  20435485.942    20435484.704    20435494.912
       238.000         198.000
 -10894448.86349  -8473125.46147  19575546.483    19575545.317    19575552.841
       235.000         205.000
 -12623489.48949  -9814739.41345  22920418.178    22920417.945    22920429.590
       221.000         160.000
 -14578458.51049 -11345168.33846  22448098.880    22448098.372    22448111.022
       229.000         182.000
 -13523671.75349 -10517046.06146  22213412.914    22213412.307    22213423.573
       225.000         171.000
   6610001.28349   5146671.90945  23055494.447    23055492.848    23055505.874
       221.000         159.000
 00 11 20 17  8 59.9970000  0  8G 1G25G22G20G13G19G28G11
 -11090320.99949  -8619700.03847  20998825.241    20998824.340    20998833.964
       241.000         199.000
   4020393.44249   3128431.32747  21603600.210    21603599.185    21603608.239
       239.000         198.000
 -13826952.30049 -10416037.40047  20420294.523    20420293.309    20420303.514
       238.000         198.000
 -10952142.33649  -8518081.42647  19564567.787    19564566.617    19564574.149
       235.000         205.000
 -12726217.03849  -9894786.84145  22900869.870    22900869.550    22900881.237
       220.000         160.000
 -14692524.94149 -11434051.15946  22426392.639    22426392.125    22426404.794
       229.000         178.000
 -13647221.60849 -10613318.60346  22189902.120    22189901.448    22189912.687
       226.000         172.000
   6670985.58749   5194191.85645  23067099.724    23067098.036    23067111.075
       220.000         160.000
 00 11 20 17  9 29.9970000  0  8G 1G25G22G20G13G19G28G11
 -11169073.02149  -8681065.25847  20983839.265    20983838.320    20983847.965
       241.000         199.000
   4066934.98349   3164697.27547  21612456.902    21612455.890    21612464.963
       239.000         197.000
 -13906242.74449 -10477822.09947  20405206.041    20405204.799    20405214.996
       237.000         197.000
 -11009332.49749  -8562645.19947  19553684.871    19553683.693    19553691.238
       235.000         205.000
 -12828906.18149  -9974804.32845  22881328.703    22881328.418    22881340.216
       221.000         160.000
 -14806377.15049 -11522767.11846  22404727.375    22404726.764    22404739.338
       228.000         179.000
 -13770597.87049 -10709455.89046  22166424.334    22166423.646    22166434.868
       226.000         172.000
   6731997.77149   5241733.52445  23078710.194    23078708.483    23078721.488
       222.000         160.000
 00 11 20 17  9 59.9970000  0  8G 1G25G22G20G13G19G28G11
 -11247720.57649  -8742349.06947  20968873.167    20968872.213    20968881.861
       240.000         199.000
   4113626.68449   3201080.23347  21621342.254    21621341.182    21621350.276
       239.000         197.000
 -13984997.14749 -10539189.10747  20390219.523    20390218.300    20390228.481
       237.000         197.000
 -11066024.52049  -8606820.81547  19542896.784    19542895.578    19542903.119
       234.000         205.000
 -12931563.32849 -10054796.90045  22861793.687    22861793.414    22861805.210
       220.000         160.000
 -14920021.13449 -11611320.77346  22383101.552    22383100.937    22383113.567
       230.000         178.000
 -13893804.05749 -10805460.65146  22142978.975    22142978.208    22142989.416
       225.000         173.000
   6793028.23849   5289289.49045  23090324.219    23090322.460    23090335.423
       221.000         161.000
 00 11 20 17 10 29.9970000  0  8G 1G25G22G20G13G19G28G11
 -11326270.31849  -8803556.66047  20953925.613    20953924.695    20953934.357
       241.000         199.000
   4160459.61549   3237573.24047  21630254.413    21630253.364    21630262.466
       238.000         197.000
 -14063220.18349 -10600142.07347  20375334.129    20375332.930    20375343.080
       238.000         198.000
 -11122223.28549  -8650612.07347  19532202.552    19532201.331    19532208.868
       234.000         205.000
 -13034195.06249 -10134769.65245  22842263.589    22842263.256    22842275.038
       221.000         161.000
 -15033462.46949 -11699716.54446  22361514.240    22361513.701    22361526.262
       228.000         180.000
 -14016844.02549 -10901335.90146  22119565.160    22119564.405    22119575.614
       226.000         173.000
   6854067.40249   5336852.20045  23101939.587    23101937.985    23101951.119
       217.000         159.000
 00 11 20 17 10 59.9970000  0  8G 1G25G22G20G13G19G28G11
 -11404717.91349  -8864684.66047  20938997.534    20938996.631    20939006.275
       240.000         199.000
   4207435.88349   3274177.92847  21639193.896    21639192.804    21639201.931
       237.000         196.000
 -14140905.41349 -10660675.98647  20360551.073    20360549.895    20360560.029
       238.000         198.000
 -11177923.28849  -8694014.68847  19521603.213    19521601.995    19521609.527
       234.000         205.000
 -13136797.29849 -10214719.43645  22822738.875    22822738.621    22822750.486
       221.000         160.000
 -15146696.36749 -11787950.67546  22339966.615    22339965.992    22339978.528
       230.000         181.000
 -14139711.11749 -10997076.44046  22096184.257    22096183.507    22096194.682
       226.000         172.000
   6915116.49349   5384422.65645  23113556.912    23113555.442    23113568.632
       217.000         157.000
 00 11 20 17 11 29.9970000  0  9G 1G25G22G27G20G13G19G28G11
 -11483112.13049  -8925771.06047  20924079.579    20924078.689    20924088.363
       241.000         199.000
   4254505.15749   3310855.09547  21648150.988    21648149.926    21648159.112
       237.000         196.000
 -14218099.20349 -10720826.95947  20345861.557    20345860.377    20345870.500
       238.000         198.000
   -518763.73559   -380010.91355  24677176.907    24677175.856    24677193.417
       213.000         149.000
 -11233171.87449  -8737065.55247  19511089.801    19511088.562    19511096.099
       234.000         204.000
 -13239419.15649 -10294684.49845  22803210.504    22803210.316    22803222.210
       221.000         161.000
 -15259771.12549 -11876060.79446  22318449.028    22318448.457    22318461.009
       228.000         180.000
 -14262450.96749 -11092717.82346  22072827.671    22072826.844    22072837.980
       226.000         173.000
   6976123.54949   5431960.32445  23125166.346    23125164.874    23125178.191
       219.000         159.000
 00 11 20 17 11 59.9970000  0  9G 1G25G22G27G20G13G19G28G11
 -11561414.40649  -8986785.82147  20909179.112    20909178.259    20909187.932
       241.000         199.000
   4301703.70649   3347632.99047  21657132.731    21657131.648    21657140.882
       238.000         196.000
 -14294760.97149 -10780563.38647  20331273.310    20331272.113    20331282.213
       238.000         198.000
   -638681.34559   -473453.22255  24654357.358    24654356.710    24654373.772
       215.000         152.000
 -11287929.15249  -8779733.58247  19500669.844    19500668.610    19500676.143
       235.000         205.000
 -13342021.89749 -10374634.67145  22783685.800    22783685.629    22783697.443
       217.000         159.000
 -15372647.21649 -11964016.13046  22296969.450    22296968.820    22296981.310
       230.000         180.000
 -14385022.57549 -11188228.10246  22049503.008    22049502.181    22049513.275
       226.000         172.000
   7037124.27549   5479493.07545  23136774.679    23136773.119    23136786.498
       218.000         157.000
 00 11 20 17 12 29.9970000  0  9G 1G25G22G27G20G13G19G28G11
 -11639625.62749  -9047729.63247  20894296.021    20894295.166    20894304.840
       241.000         199.000
   4349028.48249   3384509.23147  21666138.470    21666137.385    21666146.679
       238.000         195.000
 -14370889.74849 -10839884.50247  20316786.463    20316785.268    20316795.365
       238.000         198.000
   -758523.78349   -566836.94545  24631552.186    24631551.419    24631568.650
       216.000         154.000
 -11342194.61949  -8822018.38647  19490343.500    19490342.273    19490349.785
       234.000         205.000
 -13444606.47749 -10454570.66745  22764164.592    22764164.403    22764176.291
       221.000         162.000
 -15485325.18849 -12051817.06846  22275527.410    22275526.821    22275539.244
       231.000         183.000
 -14507423.96049 -11283605.73546  22026210.683    22026209.897    22026220.988
       226.000         174.000
   7098114.84349   5527017.94045  23148380.972    23148379.418    23148392.851
       218.000         158.000
 00 11 20 17 12 59.9970000  0  9G 1G25G22G27G20G13G19G28G11
 -11717736.31849  -9108595.11247  20879432.063    20879431.199    20879440.870
       241.000         199.000
   4396486.62249   3421489.38647  21675169.520    21675168.498    21675177.852
       235.000         195.000
 -14446474.65249 -10898781.82747  20302403.077    20302401.914    20302411.998
       238.000         199.000
   -878280.93949   -660154.20145  24608763.164    24608762.423    24608779.783
       216.000         156.000
 -11395957.64849  -8863911.68047  19480112.732    19480111.522    19480119.038
       233.000         204.000
 -13547163.63249 -10534485.31145  22744648.501    22744648.369    22744660.354
       217.000         160.000
 -15597795.22749 -12139455.98246  22254125.041    22254124.429    22254136.886
       228.000         180.000
 -14629643.01349 -11378841.28946  22002953.126    22002952.319    22002963.414
       225.000         173.000
   7159101.42849   5574539.66845  23159986.653    23159985.031    23159998.550
       218.000         156.000
 00 11 20 17 13 29.9970000  0  9G 1G25G22G27G20G13G19G28G11
 -11795746.28149  -9169382.10447  20864587.280    20864586.402    20864596.075
       240.000         198.000
   4444076.59149   3458572.27147  21684225.686    21684224.703    21684234.106
       236.000         195.000
 -14521513.10649 -10957253.35947  20288123.753    20288122.556    20288132.618
       238.000         199.000
   -997951.91749   -753404.26845  24585990.547    24585989.754    24586007.120
       214.000         156.000
 -11449216.58149  -8905412.17847  19469977.905    19469976.715    19469984.217
       234.000         205.000
 -13649693.19449 -10614378.44345  22725137.858    22725137.653    22725149.634
       220.000         162.000
 -15710056.09449 -12226931.94846  22232762.458    22232761.865    22232774.201
       232.000         183.000
 -14751676.83449 -11473932.50146  21979730.798    21979729.996    21979741.086
       226.000         173.000
   7220081.09449   5622056.00945  23171590.801    23171589.231    23171602.855
       216.000         157.000
 00 11 20 17 13 59.9970000  0  9G 1G25G22G27G20G13G19G28G11
 -11873653.42649  -9230088.97747  20849762.066    20849761.171    20849770.826
       241.000         198.000
   4491797.95749   3495757.54147  21693306.922    21693305.935    21693315.368
       236.000         195.000
 -14596001.02449 -11015295.90347  20273949.155    20273947.972    20273958.002
       239.000         198.000
  -1117534.12449   -846585.13745  24563234.801    24563234.055    24563251.521
       215.000         155.000
 -11501968.56249  -8946517.64347  19459939.547    19459938.360    19459945.876
       233.000         205.000
 -13752193.39949 -10694248.68745  22705632.711    22705632.455    22705644.509
       220.000         161.000
 -15822105.62249 -12314243.15846  22211439.832    22211439.406    22211451.841
       231.000         183.000
 -14873520.88449 -11568875.83346  21956544.547    21956543.803    21956554.843
       226.000         173.000
   7281052.81649   5669566.16445  23183193.539    23183192.008    23183205.726
       218.000         159.000
 00 11 20 17 14 29.9970000  0  9G 1G25G22G27G20G13G19G28G11
 -11951453.22549  -9290712.21147  20834957.265    20834956.371    20834965.996
       240.000         198.000
   4539653.81949   3533047.60347  21702413.780    21702412.764    21702422.231
       237.000         195.000
 -14669931.89749 -11072904.40147  20259880.624    20259879.390    20259889.384
       239.000         199.000
  -1237022.04749   -939692.49745  24540496.966    24540496.150    24540513.688
       214.000         153.000
 -11554207.53849  -8987223.38047  19449998.840    19449997.638    19450005.150
       234.000         205.000
 -13854659.50349 -10774092.36545  22686134.055    22686133.783    22686145.803
       218.000         161.000
 -15933938.16549 -12401385.36946  22190158.906    22190158.371    22190170.662
       229.000         180.000
 -14995167.57649 -11663665.38546  21933395.942    21933395.167    21933406.166
       226.000         174.000
   7342018.39349   5717071.50445  23194795.091    23194793.559    23194807.412
       216.000         155.000
 00 11 20 17 14 59.9970000  0  9G 1G25G22G27G20G13G19G28G11
 -12029151.79449  -9351256.56547  20820171.690    20820170.833    20820180.426
       240.000         198.000
   4587635.50849   3570435.71447  21711544.588    21711543.538    21711553.029
       237.000         195.000
 -14743310.55649 -11130082.59847  20245917.105    20245915.892    20245925.858
       239.000         199.000
  -1356421.40149  -1032730.81145  24517775.957    24517775.213    24517792.685
       210.000         149.000
 -11605938.55049  -9027533.29347  19440154.734    19440153.578    19440161.087
       234.000         205.000
 -13957097.86049 -10853914.40345  22666640.558    22666640.333    22666652.393
       219.000         162.000
 -16045559.73849 -12488363.13846  22168917.982    22168917.426    22168929.752
       233.000         186.000
 -15116620.83249 -11758304.19446  21910284.139    21910283.342    21910294.291
       226.000         174.000
   7402968.27749   5764564.67345  23206393.756    23206392.158    23206406.045
       216.000         158.000
 00 11 20 17 15 29.9970000  0  9G 1G25G22G27G20G13G19G28G11
 -12106747.91749  -9411721.09647  20805405.598    20805404.755    20805414.381
       240.000         198.000
   4635742.11849   3607921.16447  21720699.181    21720698.083    21720707.601
       237.000         194.000
 -14816134.31549 -11186828.40147  20232059.223    20232057.987    20232067.941
       239.000         199.000
  -1475730.32149  -1125698.60645  24495072.186    24495071.470    24495088.971
       210.000         146.000
 -11657159.36949  -9067445.65647  19430407.807    19430406.600    19430414.115
       234.000         205.000
 -14059507.91049 -10933714.40746  22647152.615    22647152.332    22647164.402
       219.000         163.000
 -16156968.86949 -12575175.39246  22147717.391    22147716.901    22147729.148
       230.000         181.000
 -15237876.73149 -11852789.20746  21887209.877    21887209.075    21887220.010
       227.000         174.000
   7463900.74749   5812044.19445  23217989.033    23217987.406    23218001.481
       217.000         158.000
 00 11 20 17 15 59.9970000  0  9G 1G25G22G27G20G13G19G28G11
 -12184239.93749  -9472104.50047  20790659.381    20790658.528    20790668.152
       240.000         197.000
   4683973.61349   3645503.91847  21729877.524    21729876.382    21729885.965
       236.000         194.000
 -14888399.03749 -11243138.59547  20218307.717    20218306.486    20218316.431
       239.000         200.000
  -1594946.32749  -1218593.99645  24472386.021    24472385.341    24472402.886
       210.000         144.000
 -11707867.02849  -9106958.15247  19420758.483    19420757.286    19420764.801
       234.000         204.000
 -14161887.79449 -11013490.87646  22627670.280    22627670.016    22627682.174
       221.000         163.000
 -16268163.22249 -12661820.28346  22126557.967    22126557.362    22126569.544
       230.000         185.000
 -15358930.92449 -11947117.06946  21864173.982    21864173.172    21864184.097
       227.000         175.000
   7524814.16849   5859508.92445  23229580.657    23229579.072    23229593.221
       218.000         154.000
 00 11 20 17 16 29.9970000  0  9G 1G25G22G27G20G13G19G28G11
 -12261629.96949  -9532408.43947  20775932.578    20775931.702    20775941.335
       240.000         197.000
   4732325.26649   3683180.29447  21739078.696    21739077.563    21739087.194
       235.000         193.000
 -14960104.96549 -11299013.36447  20204662.560    20204661.323    20204671.222
       240.000         200.000
  -1714070.94149  -1311418.17645  24449717.277    24449716.577    24449734.213
       213.000         146.000
 -11758062.51349  -9146071.55447  19411206.613    19411205.428    19411212.944
       233.000         205.000
 -14264239.54249 -11093245.47045  22608193.482    22608193.178    22608205.245
       220.000         162.000
 -16379144.38749 -12748299.06146  22105438.851    22105438.255    22105450.380
       232.000         183.000
 -15479782.96849 -12041287.40746  21841176.542    21841175.750    21841186.652
       226.000         175.000
   7585703.47349   5906954.86245  23241167.648    23241166.108    23241180.347
       214.000         155.000
 00 11 20 17 16 59.9970000  0  9G 1G25G22G27G20G13G19G28G11
 -12338920.47449  -9592634.81647  20761224.701    20761223.796    20761233.441
       240.000         197.000
   4780793.00049   3720947.12547  21748301.937    21748300.818    21748310.527
       236.000         193.000
 -15031253.20249 -11354453.56547  20191123.530    20191122.257    20191132.163
       239.000         200.000
  -1833106.22849  -1404172.73945  24427065.579    24427064.919    24427082.474
       216.000         148.000
 -11807747.48849  -9184787.15847  19401751.901    19401750.717    19401758.239
       234.000         204.000
 -14366566.29949 -11172980.54646  22588721.282    22588721.000    22588733.085
       222.000         164.000
 -16489914.46849 -12834613.33746  22084359.943    22084359.373    22084371.537
       229.000         184.000
 -15600432.80249 -12135300.16846  21818217.574    21818216.799    21818227.704
       227.000         175.000
   7646562.89949   5954377.48445  23252748.974    23252747.460    23252761.840
       216.000         155.000
 00 11 20 17 17 29.9970000  0  9G 1G25G22G27G20G13G19G28G11
 -12416103.76849  -9652777.66047  20746537.252    20746536.316    20746545.961
       239.000         197.000
   4829381.94649   3758808.39847  21757548.245    21757547.128    21757556.922
       236.000         194.000
 -15101834.68749 -11409452.13747  20177692.342    20177691.065    20177700.949
       239.000         200.000
  -1952043.74449  -1496851.12845  24404432.474    24404431.795    24404449.360
       218.000         152.000
 -11856912.88549  -9223097.89647  19392396.054    19392394.883    19392402.392
       234.000         204.000
 -14468859.76049 -11252689.71946  22569255.424    22569255.138    22569267.208
       222.000         163.000
 -16600465.46749 -12920756.95446  22063322.786    22063322.189    22063334.270
       231.000         183.000
 -15720869.73849 -12229147.03746  21795299.139    21795298.355    21795309.245
       227.000         176.000
   7707397.38249   6001780.69845  23264325.626    23264324.098    23264338.493
       214.000         152.000
 00 11 20 17 17 59.9970000  0  9G 1G25G22G27G20G13G19G28G11
 -12493183.17349  -9712839.55247  20731869.573    20731868.619    20731878.232
       240.000         197.000
   4878086.88349   3796760.06947  21766816.703    21766815.534    21766825.400
       236.000         193.000
 -15171850.99249 -11464010.30947  20164368.678    20164367.418    20164377.282
       240.000         201.000
  -2070886.17349  -1589455.43145  24381817.426    24381816.760    24381834.266
       217.000         154.000
 -11905560.75449  -9261005.36547  19383138.658    19383137.508    19383145.033
       233.000         204.000
 -14571123.71749 -11332375.88446  22549795.277    22549794.977    22549806.964
       223.000         164.000
 -16710800.08949 -13006731.90446  22042326.655    22042326.120    22042338.311
       232.000         186.000
 -15841094.65949 -12322828.71046  21772421.013    21772420.235    21772431.133
       226.000         175.000
   7768200.56749   6049159.50945  23275896.366    23275894.814    23275909.223
       216.000         156.000
 00 11 20 17 18 29.9970000  0  9G 1G25G22G27G20G13G19G28G11
 -12570147.16049  -9772811.50647  20717223.699    20717222.837    20717232.505
       239.000         197.000
   4926917.20249   3834809.43047  21776108.976    21776107.813    21776117.708
       235.000         193.000
 -15241288.49249 -11518117.46047  20151155.206    20151153.921    20151163.768
       240.000         201.000
  -2189621.64749  -1681976.38245  24359222.640    24359222.068    24359239.519
       218.000         156.000
 -11953679.02249  -9298500.16047  19373982.079    19373980.934    19373988.457
       232.000         204.000
 -14673346.83149 -11412030.23346  22530342.965    22530342.590    22530354.512
       224.000         165.000
 -16820906.38549 -13092528.99746  22021374.156    22021373.577    22021385.664
       229.000         182.000
 -15961093.52149 -12416334.23546  21749585.859    21749585.125    21749596.037
       227.000         175.000
   7828980.65649   6096520.30045  23287462.739    23287461.131    23287475.586
       212.000         152.000
 00 11 20 17 18 59.9970000  0  9G 1G25G22G27G20G13G19G28G11
 -12647005.27449  -9832700.95247  20702598.040    20702597.195    20702606.905
       239.000         197.000
   4975861.66849   3872947.74447  21785423.065    21785421.821    21785431.752
       235.000         193.000
 -15310155.18849 -11571779.82247  20138050.305    20138049.030    20138058.865
       239.000         201.000
  -2308258.95849  -1774420.83045  24336646.549    24336646.024    24336663.432
       215.000         155.000
 -12001276.25349  -9335588.94547  19364924.663    19364923.492    19364931.030
       233.000         204.000
 -14775538.79149 -11491660.29346  22510896.616    22510896.146    22510908.021
       225.000         167.000
 -16930793.50649 -13178155.27046  22000463.410    22000462.763    22000474.872
       233.000         187.000
 -16080873.43649 -12509669.14346  21726792.337    21726791.674    21726802.596
       227.000         175.000
   7889725.20249   6143853.40945  23299022.134    23299020.609    23299035.105
       215.000         152.000
 00 11 20 17 19 29.9960000  0  9G 1G25G22G27G20G13G19G28G11
 -12723750.09949  -9892502.12047  20687993.999    20687993.142    20688002.871
       239.000         197.000
   5024921.33849   3911175.81747  21794758.953    21794757.730    21794767.708
       236.000         193.000
 -15378442.68349 -11624990.85947  20125055.633    20125054.350    20125064.200
       240.000         201.000
  -2426788.88949  -1866781.59845  24314090.850    24314090.345    24314107.828
       213.000         153.000
 -12048344.77449  -9372265.75647  19355967.885    19355966.679    19355974.211
       233.000         203.000
 -14877691.16449 -11571259.48646  22491457.528    22491457.172    22491469.088
       225.000         165.000
 -17040452.54249 -13263603.82846  21979595.925    21979595.276    21979607.330
       233.000         186.000
 -16200422.63549 -12602824.27846  21704042.758    21704042.112    21704053.044
       227.000         176.000
   7950434.01249   6191158.69145  23310574.868    23310573.379    23310587.858
       213.000         155.000
 00 11 20 17 19 59.9960000  0  9G 1G25G22G27G20G13G19G28G11
 -12800383.35349  -9952216.35647  20673411.189    20673410.321    20673420.054
       240.000         197.000
   5074100.26349   3949496.81747  21804117.590    21804116.332    21804126.369
       235.000         192.000
 -15446150.85249 -11677750.47447  20112171.211    20112169.930    20112179.798
       239.000         202.000
  -2545215.41649  -1959061.80145  24291554.909    24291554.381    24291571.855
       215.000         155.000
 -12094883.31149  -9408529.59647  19347111.909    19347110.722    19347118.250
       233.000         204.000
 -14979807.65049 -11650830.73746  22472025.391    22472025.059    22472036.933
       221.000         165.000
 -17149886.99949 -13348877.38046  21958771.264    21958770.595    21958782.639
       230.000         185.000
 -16319743.32749 -12695801.36246  21681336.722    21681336.048    21681346.985
       227.000         176.000
   8011111.46049   6238439.48245  23322121.717    23322120.133    23322134.770
       215.000         154.000
 00 11 20 17 20 29.9960000  0  9G 1G25G22G27G20G13G19G28G11
 -12876918.45849 -10011854.09947  20658847.026    20658846.185    20658855.904
       239.000         197.000
   5123378.96949   3987895.56347  21813495.193    21813493.939    21813504.039
       234.000         191.000
 -15513291.71449 -11730068.02947  20099394.750    20099393.459    20099403.332
       240.000         202.000
  -2663550.08649  -2051270.44145  24269036.456    24269035.948    24269053.354
       215.000         155.000
 -12140905.66049  -9444391.21047  19338354.182    19338352.982    19338360.505
       233.000         203.000
 -15081901.20449 -11730384.12246  22452597.594    22452597.282    22452609.140
       224.000         166.000
 -17259108.76249 -13433985.22446  21937986.991    21937986.330    21937998.338
       233.000         187.000
 -16438845.03549 -12788607.80246  21658672.345    21658671.651    21658682.569
       226.000         176.000
   8071736.24749   6285679.26545  23333658.462    23333656.890    23333671.578
       214.000         153.000
 00 11 20 17 20 59.9960000  0  9G 1G25G22G27G20G13G19G28G11
 -12953350.64249 -10071411.65047  20644302.500    20644301.618    20644311.359
       240.000         198.000
   5172760.46749   4026374.42647  21822892.395    21822891.132    21822901.247
       234.000         191.000
 -15579858.68949 -11781938.39647  20086727.456    20086726.197    20086736.084
       240.000         202.000
  -2781787.60049  -2143403.40645  24246536.463    24246535.992    24246553.330
       216.000         155.000
 -12186405.96749  -9479846.03747  19329695.765    19329694.581    19329702.117
       233.000         203.000
 -15183966.87549 -11809915.78146  22433175.107    22433174.841    22433186.631
       225.000         166.000
 -17368112.59249 -13518923.20546  21917244.168    21917243.525    21917255.604
       234.000         186.000
 -16557720.37349 -12881237.84746  21636051.066    21636050.363    21636061.270
       226.000         176.000
   8132310.13749   6332879.38845  23345185.551    23345183.976    23345198.704
       213.000         153.000
 00 11 20 17 21 29.9960000  0  9G 1G25G22G27G20G13G19G28G11
 -13029674.04349 -10130884.44247  20629778.653    20629777.778    20629787.505
       240.000         198.000
   5222248.28949   4064936.11947  21832309.782    21832308.517    21832318.707
       234.000         191.000
 -15645844.48849 -11833355.89647  20074170.770    20074169.505    20074179.402
       241.000         202.000
  -2899921.60249  -2235455.70745  24224056.212    24224055.712    24224073.005
       216.000         156.000
 -12231377.73749  -9514889.01847  19321137.938    19321136.770    19321144.309
       232.000         203.000
 -15285999.02449 -11889421.31546  22413759.022    22413758.728    22413770.512
       224.000         166.000
 -17476892.40049 -13603686.66846  21896544.055    21896543.400    21896555.412
       232.000         187.000
 -16676360.92449 -12973684.95346  21613474.477    21613473.739    21613484.646
       227.000         177.000
   8192835.76449   6380041.89545  23356703.287    23356701.791    23356716.652
       213.000         153.000
 00 11 20 17 21 59.9960000  0  9G 1G25G22G27G20G13G19G28G11
 -13105892.88349 -10190275.75047  20615274.694    20615273.820    20615283.565
       240.000         198.000
   5271836.27449   4103575.89347  21841746.280    21841744.988    21841755.207
       236.000         192.000
 -15711252.43249 -11884323.12347  20061724.076    20061722.797    20061732.680
       241.000         202.000
  -3017955.68149  -2327430.13845  24201595.000    24201594.441    24201611.667
       217.000         157.000
 -12275824.10049  -9549522.58947  19312680.092    19312678.932    19312686.482
       232.000         203.000
 -15388002.18749 -11968904.27546  22394348.310    22394348.077    22394359.858
       226.000         165.000
 -17585452.12249 -13688278.59847  21875885.816    21875885.143    21875897.224
       233.000         188.000
 -16794768.18549 -13065950.26446  21590942.253    21590941.499    21590952.450
       227.000         177.000
   8253306.19649   6427161.38645  23368210.705    23368209.174    23368224.090
       214.000         152.000
 00 11 20 17 22 29.9960000  0  9G 1G25G22G27G20G13G19G28G11
 -13182013.72949 -10249590.70047  20600789.355    20600788.492    20600798.267
       240.000         198.000
   5321515.93049   4142287.07247  21851200.150    21851198.883    21851209.146
       234.000         190.000
 -15776087.67249 -11934844.08647  20049386.380    20049385.097    20049394.940
       242.000         203.000
  -3135895.86549  -2419331.40045  24179151.596    24179151.037    24179168.212
       217.000         157.000
 -12319750.82449  -9583751.25047  19304321.145    19304319.981    19304327.550
       232.000         203.000
 -15489982.68649 -12048369.54146  22374942.048    22374941.798    22374953.615
       226.000         167.000
 -17693798.05649 -13772703.96547  21855268.151    21855267.542    21855279.565
       234.000         188.000
 -16912946.29149 -13158037.02446  21568453.533    21568452.864    21568463.809
       227.000         177.000
   8313711.77449   6474230.34045  23379705.640    23379704.165    23379719.185
       215.000         153.000
 00 11 20 17 22 59.9960000  0  9G 1G25G22G27G20G13G19G28G11
 -13258030.93649 -10308824.89947  20586323.788    20586322.903    20586332.694
       240.000         198.000
   5371290.51049   4181072.23947  21860672.158    21860670.862    21860681.142
       233.000         190.000
 -15840342.93949 -11984913.12447  20037159.039    20037157.729    20037167.565
       241.000         203.000
  -3253736.31949  -2511154.93545  24156727.131    24156726.617    24156743.718
       215.000         157.000
 -12363151.57949  -9617570.06347  19296062.329    19296061.128    19296068.710
       232.000         203.000
 -15591935.26949 -12127813.11846  22355541.166    22355540.866    22355552.600
       223.000         166.000
 -17801924.51349 -13856958.26946  21834692.350    21834691.730    21834703.828
       232.000         186.000
 -17030887.14349 -13249938.90746  21546010.048    21546009.373    21546020.319
       229.000         177.000
   8374055.06449   6521250.72445  23391188.709    23391187.280    23391202.492
       213.000         153.000
 00 11 20 17 23 29.9960000  0  9G 1G25G22G27G20G13G19G28G11
 -13333937.29049 -10367972.71847  20571879.276    20571878.387    20571888.195
       240.000         199.000
   5421165.00749   4219935.26247  21870163.181    21870161.868    21870172.177
       234.000         189.000
 -15904009.56149 -12034523.48147  20025043.662    20025042.373    20025052.220
       241.000         203.000
  -3371469.34149  -2602894.74945  24134323.100    24134322.651    24134339.674
       214.000         155.000
 -12406018.32849  -9650972.76747  19287905.083    19287903.890    19287911.488
       232.000         204.000
 -15693853.03949 -12207229.52146  22336146.822    22336146.539    22336158.249
       226.000         169.000
 -17909823.88149 -13941035.67247  21814159.799    21814159.160    21814171.145
       233.000         190.000
 -17148581.15649 -13341648.44646  21523613.589    21523612.888    21523623.803
       229.000         177.000
   8434339.85949   6568225.56545  23402660.880    23402659.367    23402674.592
       214.000         152.000
 00 11 20 17 23 59.9960000  0  9G 1G25G22G27G20G13G19G28G11
 -13409729.79849 -10427031.82647  20557456.428    20557455.569    20557465.371
       240.000         198.000
   5471140.85749   4258877.24847  21879673.399    21879672.115    21879682.523
       235.000         191.000
 -15967083.51749 -12083672.02447  20013041.056    20013039.802    20013049.651
       241.000         203.000
  -3489091.29449  -2694548.02945  24111940.163    24111939.744    24111956.797
       215.000         156.000
 -12448347.13149  -9683956.28747  19279850.228    19279849.033    19279856.642
       232.000         204.000
 -15795732.72749 -12286616.26346  22316759.765    22316759.438    22316771.149
       224.000         167.000
 -18017492.64549 -14024933.34147  21793670.909    21793670.374    21793682.451
       236.000         189.000
 -17266022.72649 -13433161.29546  21501265.179    21501264.456    21501275.331
       229.000         179.000
   8494566.32849   6615154.96245  23414121.838    23414120.347    23414135.676
       212.000         152.000
 00 11 20 17 24 29.9960000  0  9G 1G25G22G27G20G13G19G28G11
 -13485417.85249 -10486009.54047  20543053.471    20543052.597    20543062.405
       240.000         199.000
   5521206.55249   4297889.26047  21889200.700    21889199.471    21889209.924
       233.000         190.000
 -16029573.19449 -12132365.29347  20001149.699    20001148.418    20001158.263
       241.000         204.000
  -3606611.17249  -2786121.77645  24089576.769    24089576.316    24089593.331
       217.000         158.000
 -12490146.90549  -9716527.58447  19271896.060    19271894.839    19271902.452
       232.000         204.000
 -15897584.01549 -12365980.87546  22297378.085    22297377.756    22297389.526
       225.000         168.000
 -18124939.94549 -14108658.44547  21773224.247    21773223.751    21773235.840
       233.000         188.000
 -17383218.80549 -13524482.83846  21478963.484    21478962.728    21478973.583
       229.000         178.000
   8554721.99349   6662029.15145  23425569.297    23425567.821    23425583.241
       214.000         152.000
 00 11 20 17 24 59.9960000  0  9G 1G25G22G27G20G13G19G28G11
 -13561003.11049 -10544907.15647  20528670.139    20528669.228    20528679.020
       241.000         199.000
   5571357.78049   4336967.91647  21898744.403    21898743.146    21898753.647
       234.000         190.000
 -16091479.29449 -12180603.82947  19989369.387    19989368.099    19989377.924
       242.000         204.000
  -3724030.52449  -2877617.20045  24067232.529    24067232.031    24067249.015
       218.000         159.000
 -12531418.85649  -9748687.59447  19264042.325    19264041.087    19264048.708
       232.000         203.000
 -15999409.05549 -12445325.03346  22278001.446    22278001.095    22278012.734
       226.000         169.000
 -18232167.64749 -14192212.45546  21752819.564    21752819.018    21752831.018
       232.000         187.000
 -17500168.64849 -13615612.52746  21456708.573    21456707.856    21456718.696
       228.000         178.000
   8614802.06249   6708844.44845  23437002.323    23437000.904    23437016.353
       214.000         152.000
 00 11 20 17 25 29.9960000  0  9G 1G25G22G27G20G13G19G28G11
 -13636482.40649 -10603722.19047  20514306.988    20514306.029    20514315.807
       241.000         199.000
   5621595.86849   4376114.26347  21908304.635    21908303.339    21908313.869
       233.000         189.000
 -16152796.89049 -12228383.79747  19977701.064    19977699.772    19977709.586
       242.000         204.000
  -3841345.65249  -2969031.43045  24044908.033    24044907.596    24044924.552
       216.000         157.000
 -12572159.06849  -9780433.26147  19256289.769    19256288.525    19256296.146
       232.000         204.000
 -16101204.21949 -12524645.89446  22258630.356    22258630.068    22258641.741
       227.000         169.000
 -18339172.14549 -14275592.52447  21732457.184    21732456.667    21732468.704
       235.000         191.000
 -17616866.83949 -13706546.13546  21434501.567    21434500.841    21434511.704
       229.000         177.000
   8674806.83649   6755601.06245  23448421.094    23448419.741    23448435.212
       212.000         152.000
 00 11 20 17 25 59.9960000  0  9G 1G25G22G27G20G13G19G28G11
 -13711854.96949 -10662454.07047  20499964.111    20499963.118    20499972.910
       240.000         200.000
   5671919.45949   4415327.21247  21917881.009    21917879.760    21917890.388
       235.000         188.000
 -16213523.89549 -12275703.57447  19966145.108    19966143.802    19966153.632
       241.000         204.000
  -3958555.52149  -3060363.63945  24022603.591    24022603.171    24022620.101
       217.000         158.000
 -12612365.86649  -9811763.27047  19248638.703    19248637.469    19248645.094
       232.000         203.000
 -16202969.37949 -12603943.37446  22239265.119    22239264.839    22239276.336
       224.000         168.000
 -18445952.60949 -14358798.03147  21712137.500    21712136.973    21712148.990
       234.000         188.000
 -17733309.89249 -13797280.94446  21412343.094    21412342.387    21412353.285
       229.000         178.000
   8734733.80049   6802297.02745  23459825.207    23459823.779    23459839.264
       213.000         152.000
 00 11 20 17 26 29.9960000  0  9G 1G25G22G27G20G13G19G28G11
 -13787117.16249 -10721099.93947  20485642.135    20485641.210    20485651.017
       240.000         199.000
   5722330.19749   4454608.09747  21927474.079    21927472.782    21927483.450
       233.000         188.000
 -16273656.22949 -12322559.97947  19954702.303    19954701.007    19954710.852
       242.000         205.000
  -4075656.13049  -3151610.73345  24000320.013    24000319.570    24000336.456
       217.000         160.000
 -12652035.46749  -9842674.68947  19241089.848    19241088.640    19241096.257
       232.000         204.000
 -16304700.73849 -12683214.49946  22219906.078    22219905.861    22219917.459
       225.000         168.000
 -18552504.98249 -14441825.79947  21691861.285    21691860.714    21691872.712
       234.000         190.000
 -17849491.95049 -13887812.38946  21390234.351    21390233.612    21390244.530
       230.000         179.000
   8794583.34549   6848932.70045  23471214.484    23471213.053    23471228.554
       212.000         151.000
 00 11 20 17 26 59.9960000  0  9G 1G25G22G27G20G13G19G28G11
 -13862269.06049 -10779659.86947  20471341.160    20471340.265    20471350.099
       240.000         200.000
   5772826.00249   4493955.25247  21937083.212    21937081.988    21937092.686
       230.000         188.000
 -16333193.06649 -12368952.36347  19943372.825    19943371.543    19943381.397
       241.000         205.000
  -4192647.00949  -3242772.33945  23978057.262    23978056.839    23978073.669
       217.000         160.000
 -12691167.01649  -9873166.85247  19233643.453    19233642.198    19233649.809
       232.000         203.000
 -16406398.83549 -12762459.71846  22200553.677    22200553.392    22200564.906
       226.000         169.000
 -18658829.25449 -14524675.85247  21671628.494    21671627.869    21671639.772
       235.000         190.000
 -17965410.53649 -13978138.53346  21368175.723    21368175.001    21368185.904
       230.000         178.000
   8854352.42049   6895505.66345  23482588.437    23482587.014    23482602.557
       210.000         150.000
 00 11 20 17 27 29.9960000  0  9G 1G25G22G27G20G13G19G28G11
 -13937302.99949 -10838127.88947  20457062.711    20457061.801    20457071.630
       241.000         200.000
   5823412.46749   4533373.04147  21946709.578    21946708.419    21946719.194
       233.000         188.000
 -16392125.24849 -12414873.60047  19932158.423    19932157.144    19932167.011
       242.000         205.000
  -4309520.19049  -3333842.25245  23955816.904    23955816.477    23955833.288
       216.000         158.000
 -12729752.20449  -9903233.28047  19226300.964    19226299.723    19226307.333
       231.000         203.000
 -16508055.70949 -12841672.85046  22181209.088    22181208.737    22181220.208
       226.000         170.000
 -18764917.48549 -14607341.94847  21651440.484    21651439.870    21651451.864
       235.000         191.000
 -18081055.36349 -14068251.37646  21346169.261    21346168.500    21346179.382
       230.000         179.000
   8914045.94249   6942019.72845  23493947.864    23493946.481    23493962.258
       211.000         151.000
 00 11 20 17 27 59.9960000  0  9G 1G25G22G27G20G13G19G28G11
 -14012234.76649 -10896516.29847  20442803.723    20442802.780    20442812.583
       241.000         200.000
   5874072.22749   4572847.95246  21956350.034    21956348.824    21956359.653
       233.000         187.000
 -16450467.20649 -12460334.92747  19921056.373    19921055.071    19921064.939
       242.000         206.000
  -4426291.05249  -3424832.45545  23933596.034    23933595.619    23933612.356
       218.000         159.000
 -12767806.43849  -9932885.96947  19219059.493    19219058.271    19219065.896
       231.000         203.000
 -16609687.58249 -12920866.47246  22161869.169    22161868.825    22161880.288
       224.000         167.000
 -18870785.53349 -14689836.51947  21631294.431    21631293.825    21631305.726
       234.000         190.000
 -18196439.93049 -14158161.43046  21324212.329    21324211.506    21324222.373
       230.000         180.000
   8973644.95949   6988460.16145  23505289.340    23505288.035    23505303.901
       212.000         151.000
 00 11 20 17 28 29.9960000  0 10G 1G 4G25G22G27G20G13G19G28G11
 -14087057.20049 -10954819.51047  20428565.429    20428564.535    20428574.373
       240.000         200.000
   -231090.05259   -161091.02655  23695227.770    23695228.461    23695242.840
       214.000         137.000
   5924809.49049   4612383.25246  21966005.224    21966003.984    21966014.912
       232.000         186.000
 -16508211.11449 -12505330.24347  19910068.138    19910066.817    19910076.679
       242.000         206.000
  -4542952.44249  -3515737.35945  23911395.966    23911395.606    23911412.345
       218.000         160.000
 -12805322.10349  -9962119.00247  19211920.531    19211919.311    19211926.960
       231.000         202.000
 -16711287.77349 -13000035.43946  22142535.279    22142534.911    22142546.339
       227.000         168.000
 -18976426.37649 -14772154.01347  21611191.607    21611191.011    21611202.930
       235.000         190.000
 -18311555.05549 -14247861.52646  21302306.695    21302305.818    21302316.634
       231.000         180.000
   9033153.36449   7034830.00345  23516613.549    23516612.229    23516628.321
       210.000         150.000
 00 11 20 17 28 59.9960000  0 10G 1G 4G25G22G27G20G13G19G28G11
 -14161768.81949 -11013036.37547  20414348.245    20414347.382    20414357.243
       241.000         200.000
   -302457.21649   -216702.04445  23681647.168    23681647.078    23681661.385
       216.000         136.000
   5975624.17649   4651978.90147  21975675.178    21975673.890    21975684.846
       232.000         188.000
 -16565354.88049 -12549857.91647  19899194.073    19899192.751    19899202.617
       242.000         205.000
  -4659502.20549  -3606555.28145  23889217.229    23889216.822    23889233.553
       216.000         160.000
 -12842297.20549  -9990930.81947  19204884.358    19204883.194    19204890.877
       230.000         202.000
 -16812854.34049 -13079178.17646  22123207.567    22123207.324    22123218.855
       227.000         168.000
 -19081837.94149 -14854292.85147  21591132.333    21591131.793    21591143.702
       235.000         190.000
 -18426396.50849 -14337348.37746  21280453.057    21280452.197    21280462.989
       230.000         180.000
   9092569.80049   7081128.15045  23527920.486    23527919.025    23527935.227
       214.000         153.000
 00 11 20 17 29 29.9960000  0 10G 1G 4G25G22G27G20G13G19G28G11
 -14236368.94049 -11071166.35847  20400152.349    20400151.477    20400161.329
       241.000         200.000
   -373358.29759   -271949.86755  23668155.267    23668156.356    23668170.372
       216.000         140.000
   6026514.76249   4691633.67046  21985359.471    21985358.198    21985369.243
       232.000         187.000
 -16621897.02049 -12593916.79247  19888434.459    19888433.166    19888443.040
       241.000         205.000
  -4775939.65949  -3697285.68445  23867059.884    23867059.402    23867076.102
       217.000         159.000
 -12878730.55749 -10019320.49347  19197951.356    19197950.173    19197957.888
       231.000         202.000
 -16914386.95049 -13158294.46546  22103886.526    22103886.276    22103897.812
       225.000         169.000
 -19187019.50449 -14936252.48147  21571117.044    21571116.418    21571128.286
       236.000         191.000
 -18540961.31949 -14426619.67046  21258652.067    21258651.247    21258661.981
       230.000         181.000
   9151891.66749   7127352.63245  23539209.561    23539207.903    23539224.194
       211.000         152.000
 00 11 20 17 29 59.9960000  0 10G 1G 4G25G22G27G20G13G19G28G11
 -14310858.23349 -11129209.98147  20385977.532    20385976.670    20385986.500
       240.000         200.000
   -443793.54249   -326834.67845  23654752.089    23654752.713    23654766.989
       217.000         146.000
   6077478.44349   4731345.38946  21995057.603    21995056.434    21995067.539
       229.000         185.000
 -16677836.83749 -12637506.32047  19877789.503    19877788.193    19877798.088
       242.000         205.000
  -4892264.91949  -3787928.68445  23844923.930    23844923.359    23844940.012
       218.000         159.000
 -12914622.58449 -10047288.35547  19191121.340    19191120.167    19191127.910
       231.000         202.000
 -17015886.23449 -13237384.80146  22084571.841    22084571.604    22084583.093
       227.000         171.000
 -19291971.61549 -15018033.32347  21551145.339    21551144.688    21551156.518
       237.000         192.000
 -18655247.83149 -14515674.10946  21236904.107    21236903.250    21236913.943
       231.000         181.000
   9211115.46149   7173500.67245  23550479.761    23550478.080    23550494.473
       213.000         151.000
 00 11 20 17 30 29.9960000  0 10G 1G 4G25G22G27G20G13G19G28G11
 -14385234.46149 -11187165.50047  20371824.277    20371823.361    20371833.188
       241.000         201.000
   -513760.04649   -381354.16945  23641438.069    23641438.352    23641453.019
       209.000         142.000
   6128515.39149   4771114.20946  22004769.832    22004768.638    22004779.796
       231.000         184.000
 -16733171.04249 -12680623.94147  19867259.816    19867258.482    19867268.378
       242.000         205.000
  -5008475.48949  -3878482.34545  23822809.747    23822809.181    23822825.709
       218.000         158.000
 -12949970.48949 -10074832.23047  19184394.895    19184393.716    19184401.476
       230.000         201.000
 -17117350.31649 -13316447.67646  22065263.727    22065263.555    22065275.112
       227.000         170.000
 -19396691.94549 -15099633.54047  21531217.642    21531217.020    21531228.930
       237.000         192.000
 -18769251.30249 -14604507.99946  21215209.977    21215209.113    21215219.779
       231.000         181.000
   9270240.31049   7219571.66045  23561731.064    23561729.446    23561745.916
       215.000         154.000
 00 11 20 17 30 59.9960000  0 10G 1G 4G25G22G27G20G13G19G28G11
 -14459498.83049 -11245033.85847  20357692.256    20357691.338    20357701.137
       241.000         200.000
   -583258.93849   -435509.21345  23628212.931    23628213.075    23628227.899
       213.000         142.000
   6179622.56549   4810937.74946  22014495.316    22014494.155    22014505.380
       233.000         186.000
 -16787900.29049 -12723270.15847  19856845.245    19856843.886    19856853.795
       242.000         206.000
  -5124572.47649  -3968947.47345  23800717.137    23800716.543    23800733.060
       214.000         157.000
 -12984775.23449 -10101952.86847  19177771.793    19177770.599    19177778.391
       230.000         201.000
 -17218780.70449 -13395484.34246  22045962.235    22045962.007    22045973.510
       228.000         172.000
 -19501181.79349 -15181054.19147  21511333.947    21511333.277    21511345.107
       236.000         192.000
 -18882970.80049 -14693120.59846  21193569.856    21193569.006    21193579.650
       230.000         182.000
   9329262.07749   7265562.28445  23572962.719    23572961.181    23572977.733
       213.000         153.000
 00 11 20 17 31 29.9960000  0 10G 1G 4G25G22G27G20G13G19G28G11
 -14533650.95249 -11302814.75447  20343581.600    20343580.658    20343590.464
       241.000         201.000
   -652289.05249   -489299.08945  23615077.101    23615077.051    23615091.966
       216.000         142.000
   6230798.25249   4850814.66446  22024233.796    22024232.713    22024243.969
       231.000         183.000
 -16842024.03749 -12765444.56047  19846545.878    19846544.522    19846554.449
       242.000         206.000
  -5240555.20749  -4059323.51745  23778646.286    23778645.652    23778662.202
       215.000         158.000
 -13019036.15449 -10128649.74547  19171252.164    19171250.987    19171258.801
       230.000         201.000
 -17320176.86149 -13474494.31346  22026667.123    22026666.922    22026678.383
       227.000         170.000
 -19605440.99749 -15262295.09947  21491494.113    21491493.413    21491505.269
       238.000         193.000
 -18996403.53449 -14781509.75246  21171984.265    21171983.455    21171994.103
       231.000         182.000
   9388177.91649   7311470.34945  23584174.393    23584172.728    23584189.344
       214.000         151.000
 00 11 20 17 31 59.9960000  0 10G 1G 4G25G22G27G20G13G19G28G11
 -14607689.88549 -11360507.44847  20329492.486    20329491.523    20329501.331
       241.000         201.000
   -720849.13049   -542722.71045  23602030.658    23602030.575    23602045.442
       211.000         138.000
   6282041.08949   4890743.90646  22033985.226    22033984.119    22033995.417
       230.000         183.000
 -16895540.49649 -12807145.74647  19836362.103    19836360.734    19836370.672
       242.000         206.000
  -5356422.40349  -4149609.53746  23756597.462    23756596.860    23756613.341
       219.000         163.000
 -13052752.01849 -10154921.90247  19164836.320    19164835.105    19164842.936
       231.000         201.000
 -17421538.22549 -13553477.18446  22007378.815    22007378.564    22007389.906
       227.000         172.000
 -19709468.28149 -15343355.29947  21471698.280    21471697.638    21471709.444
       237.000         193.000
 -19109546.45449 -14869673.05846  21150453.841    21150453.055    21150463.679
       230.000         182.000
   9446985.52449   7357294.13145  23595365.433    23595363.738    23595380.378
       215.000         153.000
 00 11 20 17 32 29.9960000  0 10G 1G 4G25G22G27G20G13G19G28G11
 -14681609.58549 -11418107.24347  20315426.049    20315425.102    20315434.902
       241.000         201.000
   -788932.80649   -595774.99745  23589074.938    23589074.664    23589089.727
       218.000         147.000
   6333354.93849   4930728.46646  22043750.044    22043748.963    22043760.328
       233.000         185.000
 -16948442.55549 -12848368.17547  19826295.242    19826293.857    19826303.804
       243.000         206.000
  -5472167.98649  -4239800.85545  23734571.863    23734571.182    23734587.569
       219.000         160.000
 -13085916.48749 -10180764.40547  19158525.387    19158524.163    19158532.000
       230.000         201.000
 -17522858.80349 -13632428.27246  21988098.202    21988097.906    21988109.178
       230.000         172.000
 -19813257.61549 -15424230.08247  21451947.864    21451947.180    21451958.984
       237.000         192.000
 -19222391.35749 -14957604.14046  21128980.179    21128979.354    21128989.979
       231.000         182.000
   9505687.86549   7403035.88245  23606536.504    23606534.692    23606551.451
       212.000         151.000
 00 11 20 17 32 59.9960000  0 10G 1G 4G25G22G27G20G13G19G28G11
 -14755416.75749 -11475619.34047  20301381.078    20301380.093    20301389.876
       241.000         201.000
   -856546.51349   -648461.17345  23576208.719    23576208.324    23576223.482
       217.000         143.000
   6384731.14349   4970761.61146  22053526.765    22053525.692    22053537.117
       231.000         184.000
 -17000736.23049 -12889116.53347  19816344.155    19816342.754    19816352.708
       242.000         206.000
  -5587798.52849  -4329902.52545  23712567.985    23712567.355    23712583.671
       213.000         154.000
 -13118536.36049 -10206182.55147  19152318.069    19152316.851    19152324.705
       230.000         201.000
 -17624145.69449 -13711353.10846  21968824.000    21968823.659    21968834.914
       229.000         172.000
 -19916815.81649 -15504924.76347  21432241.372    21432240.686    21432252.458
       237.000         193.000
 -19334942.62949 -15045306.40346  21107562.369    21107561.556    21107572.171
       231.000         183.000
   9564275.36349   7448688.11145  23617685.553    23617683.767    23617700.649
       216.000         152.000
 00 11 20 17 33 29.9960000  0 10G 1G 4G25G22G27G20G13G19G28G11
 -14829099.16149 -11533034.22147  20287359.848    20287358.839    20287368.599
       241.000         201.000
   -923677.56849   -700771.23945  23563434.235    23563433.716    23563448.951
       214.000         139.000
   6436179.98549   5010851.38246  22063317.450    22063316.276    22063327.744
       230.000         182.000
 -17052408.88249 -12929380.97247  19806511.209    19806509.811    19806519.774
       242.000         206.000
  -5703301.55649  -4419904.77945  23690588.419    23690587.768    23690604.117
       214.000         158.000
 -13150598.77849 -10231166.31347  19146216.846    19146215.619    19146223.492
       231.000         201.000
 -17725386.63649 -13790242.14546  21949558.732    21949558.233    21949569.337
       228.000         171.000
 -20020130.59449 -15585429.75847  21412581.190    21412580.518    21412592.303
       237.000         193.000
 -19447185.58149 -15132768.40046  21086203.276    21086202.419    21086213.030
       232.000         184.000
   9622757.27949   7494258.09445  23628814.654    23628812.835    23628829.636
       216.000         151.000
 00 11 20 17 33 59.9960000  0 10G 1G 4G25G22G27G20G13G19G28G11
 -14902654.73149 -11590350.26547  20273362.720    20273361.701    20273371.468
       241.000         201.000
   -990323.34149   -752703.12245  23550752.132    23550751.571    23550766.836
       214.000         147.000
   6487701.49949   5050997.75146  22073121.853    22073120.656    22073132.232
       230.000         183.000
 -17103458.05449 -12969159.58347  19796796.912    19796795.524    19796805.485
       242.000         206.000
  -5818674.53749  -4509805.70746  23668633.665    23668632.981    23668649.304
       218.000         163.000
 -13182101.49649 -10255713.95047  19140222.094    19140220.880    19140228.785
       229.000         201.000
 -17826579.50749 -13869093.69446  21930302.162    21930301.791    21930312.956
       230.000         171.000
 -20123199.61249 -15665743.26947  21392967.844    21392967.129    21392978.872
       238.000         194.000
 -19559115.88449 -15219986.77146  21064903.703    21064902.799    21064913.398
       232.000         185.000
   9681132.65249   7539745.05245  23639923.276    23639921.520    23639938.394
       215.000         152.000
 00 11 20 17 34 29.9960000  0 10G 1G 4G25G22G27G20G13G19G28G11
 -14976096.25649 -11647577.45147  20259387.263    20259386.250    20259396.036
       241.000         202.000
  -1056496.19949   -804266.50045  23538159.948    23538159.385    23538174.696
       210.000         140.000
   6539280.96649   5091189.28746  22082937.215    22082936.056    22082947.670
       227.000         182.000
 -17153895.60949 -13008461.60947  19787198.997    19787197.623    19787207.586
       242.000         207.000
  -5933929.94849  -4599615.04645  23646701.179    23646700.568    23646716.862
       217.000         161.000
 -13213057.01249 -10279835.20147  19134331.504    19134330.288    19134338.204
       230.000         201.000
 -17927737.36449 -13947918.00946  21911052.497    21911052.106    21911063.174
       229.000         171.000
 -20226035.75849 -15745875.31547  21373398.688    21373398.021    21373409.782
       237.000         193.000
 -19670744.03149 -15306969.67446  21043661.580    21043660.664    21043671.270
       233.000         184.000
   9739385.66349   7585136.64445  23651008.718    23651006.957    23651023.897
       215.000         152.000
 00 11 20 17 34 59.9960000  0 10G 1G 4G25G22G27G20G13G19G28G11
 -15049412.89949 -11704707.32247  20245435.518    20245434.583    20245444.373
       241.000         202.000
  -1122185.06049   -855452.76145  23525659.840    23525659.221    23525674.627
       215.000         147.000
   6590927.43849   5131433.01146  22092765.408    22092764.265    22092775.936
       230.000         182.000
 -17203709.86249 -13047277.94047  19777719.703    19777718.332    19777728.288
       241.000         207.000
  -6049057.00549  -4689324.38245  23624793.019    23624792.509    23624808.823
       216.000         157.000
 -13243454.29149 -10303521.45747  19128547.107    19128545.922    19128553.859
       230.000         201.000
 -18028849.36449 -14026706.55546  21891811.572    21891811.167    21891822.255
       228.000         172.000
 -20328628.17449 -15825817.44247  21353875.995    21353875.343    21353887.064
       237.000         194.000
 -19782056.77849 -15393706.80446  21022479.444    21022478.533    21022489.145
       232.000         184.000
   9797524.14249   7630439.01745  23662072.455    23662070.630    23662087.587
       217.000         153.000
 00 11 20 17 35 29.9960000  0 10G 1G 4G25G22G27G20G13G19G28G11
 -15122595.40849 -11761732.67047  20231509.330    20231508.406    20231518.235
       241.000         202.000
  -1187380.64649   -906254.61545  23513253.548    23513253.022    23513268.474
       214.000         147.000
   6642647.72849   5171734.24446  22102607.544    22102606.448    22102618.234
       230.000         181.000
 -17252891.28149 -13085601.15247  19768360.854    19768359.468    19768369.436
       242.000         207.000
  -6164046.39049  -4778926.42345  23602911.239    23602910.673    23602926.986
       218.000         161.000
 -13273284.15249 -10326765.56847  19122870.760    19122869.539    19122877.493
       230.000         202.000
 -18129906.31149 -14105452.22746  21872580.827    21872580.587    21872591.711
       230.000         172.000
 -20430967.97049 -15905562.72047  21334401.331    21334400.703    21334412.430
       238.000         195.000
 -19893042.96349 -15480189.45246  21001359.442    21001358.526    21001369.152
       232.000         185.000
   9855554.26449   7675656.94545  23673115.478    23673113.675    23673130.663
       216.000         150.000
 00 11 20 17 35 59.9960000  0 10G 1G 4G25G22G27G20G13G19G28G11
 -15195666.15349 -11818670.93047  20217604.435    20217603.512    20217613.360
       241.000         201.000
  -1252105.02049   -956689.32745  23500937.041    23500936.461    23500952.055
       218.000         145.000
   6694417.40049   5212073.97246  22112459.211    22112458.094    22112469.906
       228.000         180.000
 -17301462.27249 -13123448.70547  19759118.140    19759116.770    19759126.732
       241.000         207.000
  -6278920.34349  -4868438.52645  23581051.457    23581050.848    23581067.113
       218.000         161.000
 -13302568.99049 -10349584.99447  19117298.099    19117296.876    19117304.822
       230.000         201.000
 -18230930.96149 -14184172.72946  21853356.443    21853356.221    21853367.401
       228.000         172.000
 -20533077.54749 -15985128.61847  21314970.486    21314969.859    21314981.565
       239.000         194.000
 -20003722.78149 -15566433.37846  20980297.688    20980296.820    20980307.459
       233.000         185.000
   9913450.57649   7720770.59745  23684132.980    23684131.235    23684148.282
       216.000         151.000
 00 11 20 17 36 29.9960000  0 10G 1G 4G25G22G27G20G13G19G28G11
 -15268625.06449 -11875522.05047  20203720.804    20203719.890    20203729.772
       241.000         202.000
  -1316357.83249  -1006756.63245  23488710.187    23488709.654    23488725.268
       213.000         144.000
   6746234.35249   5252450.56946  22122319.973    22122318.792    22122330.556
       230.000         181.000
 -17349422.46049 -13160820.30747  19749991.643    19749990.270    19750000.253
       241.000         207.000
  -6393678.65649  -4957860.52646  23559213.646    23559213.053    23559229.297
       219.000         163.000
 -13331308.77049 -10371979.68847  19111829.145    19111827.931    19111835.888
       231.000         201.000
 -18331923.54649 -14262868.25346  21834138.224    21834137.958    21834149.115
       228.000         172.000
 -20634957.15049 -16064515.31947  21295583.439    21295582.805    21295594.527
       238.000         194.000
 -20114094.00749 -15652436.83446  20959294.704    20959293.837    20959304.476
       233.000         185.000
   9971210.07049   7765777.63645  23695124.465    23695122.765    23695139.938
       216.000         152.000
 00 11 20 17 36 59.9960000  0 10G 1G 4G25G22G27G20G13G19G28G11
 -15341468.52049 -11932283.20447  20189859.189    20189858.251    20189868.160
       241.000         202.000
  -1380135.50749  -1056453.59445  23476573.832    23476573.231    23476588.998
       216.000         147.000
   6798100.28349   5292865.27046  22132189.903    22132188.717    22132200.592
       230.000         181.000
 -17396767.43649 -13197712.52247  19740982.165    19740980.836    19740990.846
       240.000         207.000
  -6508317.61449  -5047189.52245  23537398.618    23537397.936    23537414.175
       216.000         160.000
 -13359499.71749 -10393946.72247  19106464.659    19106463.422    19106471.385
       231.000         202.000
 -18432880.61249 -14341536.09446  21814926.808    21814926.466    21814937.629
       232.000         173.000
 -20736603.07649 -16143719.93247  21276240.870    21276240.227    21276251.892
       238.000         194.000
 -20224150.83549 -15738195.31246  20938351.552    20938350.678    20938361.303
       233.000         185.000
  10028833.36749   7810678.54345  23706090.085    23706088.356    23706105.610
       214.000         151.000
 00 11 20 17 37 29.9960000  0 10G 1G 4G25G22G27G20G13G19G28G11
 -15414165.96549 -11988930.58247  20176025.304    20176024.400    20176034.328
       242.000         203.000
  -1443407.26049  -1105756.40545  23464533.591    23464533.109    23464548.900
       210.000         142.000
   6850043.54649   5333340.23446  22142074.653    22142073.402    22142085.302
       225.000         179.000
 -17443465.98349 -13234101.02747  19732095.713    19732094.405    19732104.450
       241.000         207.000
  -6622806.65149  -5136401.68945  23515611.975    23515611.349    23515627.590
       217.000         159.000
 -13387111.34949 -10415462.33947  19101210.408    19101209.163    19101217.125
       230.000         202.000
 -18533771.32149 -14420152.22146  21795727.930    21795727.568    21795738.735
       231.000         173.000
 -20837985.12449 -16222718.90247  21256948.440    21256947.825    21256959.564
       238.000         194.000
 -20333860.50349 -15823683.27646  20917474.388    20917473.587    20917484.188
       233.000         186.000
  10086347.79049   7855494.62045  23717034.924    23717033.202    23717050.630
       216.000         150.000
 00 11 20 17 37 59.9960000  0 10G 1G 4G25G22G27G20G13G19G28G11
 -15486730.83249 -12045474.65647  20162216.687    20162215.782    20162225.716
       242.000         203.000
  -1506186.51549  -1154675.36845  23452587.118    23452586.677    23452602.560
       216.000         151.000
   6902048.94049   5373863.61946  22151971.199    22151969.909    22151981.893
       229.000         179.000
 -17489531.70949 -13269996.42347  19723329.726    19723328.411    19723338.457
       241.000         207.000
  -6737159.16149  -5225507.52345  23493851.482    23493850.800    23493866.971
       220.000         161.000
 -13414157.22649 -10436537.11047  19096063.842    19096062.566    19096070.519
       230.000         202.000
 -18634609.68849 -14498727.55046  21776539.053    21776538.669    21776549.833
       230.000         173.000
 -20939116.64249 -16301522.67547  21237703.737    21237703.124    21237714.826
       236.000         194.000
 -20443234.35049 -15908909.56346  20896661.148    20896660.378    20896670.961
       233.000         186.000
  10143737.12049   7900213.20145  23727956.152    23727954.351    23727971.801
       215.000         152.000
 00 11 20 17 38 29.9960000  0 10G 1G 4G25G22G27G20G13G19G28G11
 -15559165.55049 -12101917.31847  20148432.844    20148431.926    20148441.858
       242.000         203.000
  -1568475.52749  -1203212.37145  23440734.072    23440733.569    23440749.529
       215.000         145.000
   6954112.02349   5414431.94046  22161878.610    22161877.382    22161889.469
       227.000         179.000
 -17534967.06849 -13305400.62047  19714683.680    19714682.377    19714692.424
       241.000         207.000
  -6851377.58349  -5314508.87245  23472116.399    23472115.718    23472131.833
       219.000         162.000
 -13440639.69849 -10457172.86447  19091024.478    19091023.177    19091031.137
       231.000         202.000
 -18735398.16749 -14577264.03546  21757359.703    21757359.287    21757370.427
       226.000         173.000
 -21039999.87749 -16380132.96647  21218506.357    21218505.709    21218517.384
       236.000         194.000
 -20552272.76049 -15993874.47946  20875911.793    20875911.023    20875921.568
       233.000         187.000
  10200995.85749   7944830.02445  23738852.457    23738850.586    23738868.118
       216.000         152.000
 00 11 20 17 38 59.9960000  0 10G 1G 4G25G22G27G20G13G19G28G11
 -15631505.22149 -12158285.91947  20134667.061    20134666.157    20134676.074
       241.000         203.000
  -1630309.30249  -1251394.67245  23428967.600    23428967.053    23428983.065
       218.000         150.000
   7006195.41349   5455016.12046  22171790.044    22171788.775    22171800.900
       227.000         181.000
 -17579806.95249 -13340340.81447  19706150.954    19706149.637    19706159.718
       241.000         207.000
  -6965496.95949  -5403433.00845  23450400.145    23450399.472    23450415.585
       218.000         162.000
 -13466594.21549 -10477397.23347  19086085.535    19086084.251    19086092.218
       231.000         202.000
 -18836171.94149 -14655789.03446  21738183.111    21738182.702    21738193.780
       231.000         175.000
 -21140670.72649 -16458577.76547  21199349.237    21199348.636    21199360.333
       237.000         195.000
 -20661008.86349 -16078603.83646  20855219.972    20855219.210    20855229.690
       234.000         187.000
  10258085.73049   7989315.23045  23749716.636    23749714.759    23749732.365
       216.000         152.000
 00 11 20 17 39 29.9960000  0 10G 1G 4G25G22G27G20G13G19G28G11
 -15703728.35249 -12214563.70647  20120923.443    20120922.567    20120932.482
       241.000         203.000
  -1691666.61549  -1299205.65345  23417291.840    23417291.271    23417307.301
       213.000         143.000
   7058318.34749   5495631.10946  22181708.963    22181707.661    22181719.841
       229.000         179.000
 -17624029.21149 -13374799.73947  19697735.717    19697734.432    19697744.533
       241.000         207.000
  -7079495.82249  -5492263.23545  23428706.799    23428706.153    23428722.256
       219.000         161.000
 -13491999.42249 -10497193.56547  19081251.125    19081249.855    19081257.832
       231.000         202.000
 -18936909.83949 -14734286.05846  21719013.198    21719012.888    21719024.000
       230.000         173.000
 -21241107.79249 -16536840.39047  21180236.668    21180236.086    21180247.763
       237.000         194.000
 -20769419.18449 -16163079.35247  20834590.132    20834589.372    20834599.807
       235.000         188.000
  10315024.99249   8033683.09845  23760552.102    23760550.264    23760567.865
       215.000         151.000
 00 11 20 17 39 59.9960000  0 10G 1G 4G25G22G27G20G13G19G28G11
 -15775831.82549 -12270748.25547  20107202.645    20107201.749    20107211.674
       242.000         203.000
  -1752544.19949  -1346642.93245  23405707.295    23405706.682    23405722.734
       212.000         143.000
   7110482.31149   5536278.05646  22191635.628    22191634.362    22191646.608
       227.000         179.000
 -17667630.65349 -13408774.91347  19689438.634    19689437.373    19689447.494
       240.000         207.000
  -7193370.84849  -5580996.99646  23407037.108    23407036.421    23407052.490
       221.000         164.000
 -13516852.38349 -10516559.57447  19076521.801    19076520.548    19076528.543
       232.000         202.000
 -19037608.79249 -14812752.74246  21699850.726    21699850.477    21699861.638
       228.000         175.000
 -21341308.16549 -16614918.58047  21161169.213    21161168.576    21161180.257
       237.000         195.000
 -20877498.39249 -16247296.86547  20814023.330    20814022.554    20814032.927
       234.000         188.000
  10371813.87449   8077933.74545  23771358.888    23771357.083    23771374.771
       214.000         150.000
 00 11 20 17 40 29.9960000  0 10G 1G 4G25G22G27G20G13G19G28G11
 -15847801.77249 -12326828.76047  20093507.282    20093506.344    20093516.282
       241.000         203.000
  -1812928.20749  -1393695.47145  23394216.589    23394215.961    23394232.159
       215.000         145.000
   7162699.53249   5576966.52246  22201572.519    22201571.190    22201583.459
       228.000         177.000
 -17710597.30549 -13442255.44847  19681262.381    19681261.106    19681271.263
       241.000         207.000
  -7307108.15149  -5669623.46846  23385393.541    23385392.949    23385408.914
       221.000         163.000
 -13541139.16649 -10535484.40347  19071900.222    19071898.977    19071906.973
       232.000         203.000
 -19138255.13049 -14891178.43646  21680698.322    21680698.102    21680709.289
       229.000         173.000
 -21441257.71449 -16692801.32547  21142149.445    21142148.808    21142160.475
       238.000         195.000
 -20985230.31849 -16331243.77847  20793522.603    20793521.811    20793532.137
       234.000         188.000
  10428463.58949   8122075.95345  23782139.260    23782137.460    23782155.249
       217.000         152.000
 00 11 20 17 40 59.9960000  0 10G 1G 4G25G22G27G20G13G19G28G11
 -15919648.06349 -12382812.90547  20079835.416    20079834.477    20079844.412
       242.000         203.000
  -1872828.27649  -1440371.01245  23382818.114    23382817.500    23382833.677
       214.000         146.000
   7214957.21649   5617686.47846  22211516.974    22211515.693    22211528.101
       226.000         176.000
 -17752939.41949 -13475249.33747  19673204.955    19673203.677    19673213.864
       241.000         207.000
  -7420717.58749  -5758150.25445  23363774.386    23363773.749    23363789.694
       216.000         161.000
 -13564870.04349 -10553976.06447  19067384.449    19067383.195    19067391.191
       231.000         203.000
 -19238858.85049 -14969570.90746  21661554.029    21661553.825    21661564.990
       231.000         174.000
 -21540966.89449 -16770496.76247  21123175.434    21123174.781    21123186.429
       238.000         195.000
 -21092622.92149 -16414926.30047  20773086.418    20773085.633    20773095.939
       234.000         189.000
  10484961.08549   8166099.57045  23792890.534    23792888.843    23792906.815
       214.000         148.000
 00 11 20 17 41 29.9960000  0 10G 1G 4G25G22G27G20G13G19G28G11
 -15991360.96549 -12438693.11247  20066188.944    20066188.002    20066197.922
       242.000         203.000
  -1932235.02149  -1486662.09145  23371513.594    23371512.937    23371529.032
       217.000         149.000
   7267263.23549   5658444.14346  22221470.857    22221469.484    22221481.913
       228.000         176.000
 -17794646.91149 -13507748.71947  19665268.288    19665267.033    19665277.234
       241.000         207.000
  -7534189.44449  -5846569.85245  23342181.347    23342180.712    23342196.692
       219.000         162.000
 -13588035.32849 -10572027.00247  19062976.311    19062975.054    19062983.047
       233.000         203.000
 -19339410.12149 -15047922.50246  21642419.696    21642419.504    21642430.692
       229.000         174.000
 -21640426.27849 -16847997.56347  21104248.956    21104248.290    21104259.906
       237.000         194.000
 -21199664.63449 -16498335.40247  20752717.012    20752716.237    20752726.516
       234.000         189.000
  10541313.01449   8210009.71945  23803614.250    23803612.571    23803630.587
       215.000         150.000
 00 11 20 17 41 59.9960000  0 10G 1G 4G25G22G27G20G13G19G28G11
 -16062953.42049 -12494479.46047  20052565.430    20052564.445    20052574.348
       242.000         203.000
  -1991161.33949  -1532578.79745  23360300.420    23360299.749    23360315.872
       213.000         142.000
   7319603.01949   5699228.08846  22231430.952    22231429.603    22231442.078
       227.000         178.000
 -17835732.31049 -13539763.35647  19657450.057    19657448.766    19657458.986
       241.000         208.000
  -7647536.73749  -5934892.38645  23320611.907    23320611.371    23320627.377
       218.000         160.000
 -13610648.45649 -10589647.68147  19058673.252    19058671.975    19058679.975
       232.000         203.000
 -19439922.22849 -15126243.56546  21623292.800    21623292.638    21623303.850
       230.000         175.000
 -21739648.74849 -16925313.74447  21085367.632    21085366.910    21085378.501
       238.000         195.000
 -21306366.34749 -16581479.57947  20732412.349    20732411.557    20732421.803
       235.000         189.000
  10597503.49849   8253794.05845  23814307.231    23814305.518    23814323.697
       214.000         148.000
 00 11 20 17 42 29.9960000  0 10G 1G 4G25G22G27G20G13G19G28G11
 -16134430.18349 -12550175.65847  20038963.803    20038962.880    20038972.804
       242.000         203.000
  -2049612.22949  -1578125.04045  23349177.581    23349176.930    23349193.055
       216.000         145.000
   7371969.44249   5740032.80046  22241396.288    22241394.854    22241407.396
       228.000         175.000
 -17876200.57749 -13571297.11347  19649749.238    19649747.945    19649758.160
       241.000         207.000
  -7760764.20749  -6023121.54146  23299065.413    23299064.859    23299080.871
       219.000         164.000
 -13632714.51849 -10606842.08247  19054474.269    19054473.012    19054481.007
       232.000         203.000
 -19540400.03549 -15204537.93046  21604172.548    21604172.357    21604183.533
       230.000         176.000
 -21838639.50249 -17002449.38047  21066530.259    21066529.565    21066541.145
       238.000         195.000
 -21412730.84249 -16664360.99847  20712171.859    20712171.061    20712181.254
       235.000         189.000
  10653524.65149   8297446.47945  23824967.959    23824966.340    23824984.550
       213.000         150.000
 00 11 20 17 42 59.9960000  0 10G 1G 4G25G22G27G20G13G19G28G11
 -16205787.14449 -12605778.50347  20025385.014    20025384.092    20025394.045
       242.000         203.000
  -2107583.91549  -1623297.84545  23338145.999    23338145.416    23338161.529
       215.000         147.000
   7424364.84449   5780860.07246  22251366.972    22251365.561    22251378.181
       227.000         178.000
 -17916048.18549 -13602347.24547  19642166.481    19642165.222    19642175.446
       241.000         207.000
  -7873867.93049  -6111254.26146  23277542.466    23277541.918    23277557.914
       219.000         164.000
 -13654229.92649 -10623607.39747  19050380.058    19050378.826    19050386.816
       232.000         203.000
 -19640839.94549 -15282802.74646  21585059.444    21585059.271    21585070.440
       232.000         176.000
 -21937395.08549 -17079401.75647  21047737.665    21047736.975    21047748.563
       238.000         194.000
 -21518752.01749 -16746974.89747  20691996.663    20691995.880    20692006.044
       235.000         189.000
  10709377.48449   8340967.68345  23835596.672    23835595.084    23835613.340
       214.000         149.000
 00 11 20 17 43 29.9960000  0 10G 1G 4G25G22G27G20G13G19G28G11
 -16277012.61549 -12661278.89147  20011831.246    20011830.344    20011840.314
       241.000         203.000
  -2165064.80649  -1668088.23745  23327207.846    23327207.261    23327223.407
       217.000         147.000
   7476798.95549   5821717.52646  22261345.089    22261343.684    22261356.361
       230.000         175.000
 -17955263.72149 -13632904.85647  19634704.047    19634702.763    19634713.011
       240.000         207.000
  -7986836.39949  -6199281.56545  23256045.278    23256044.645    23256060.668
       218.000         161.000
 -13675183.23749 -10639934.72347  19046392.822    19046391.601    19046399.600
       232.000         203.000
 -19741229.91849 -15361028.65546  21565955.787    21565955.658    21565966.834
       232.000         177.000
 -22035904.03849 -17156161.95447  21028992.009    21028991.321    21029002.909
       238.000         195.000
 -21624416.12949 -16829310.56947  20671889.448    20671888.640    20671898.764
       235.000         189.000
  10765070.73349   8384364.56445  23846194.996    23846193.460    23846211.793
       212.000         146.000
 00 11 20 17 43 59.9960000  0 10G 1G 4G25G22G27G20G13G19G28G11
 -16348084.56049 -12716659.64247  19998306.714    19998305.803    19998315.785
       242.000         202.000
  -2222032.88849  -1712478.99345  23316367.246    23316366.695    23316382.874
       213.000         148.000
   7529291.36449   5862620.41246  22271334.420    22271332.923    22271345.638
       224.000         176.000
 -17993824.60549 -13662952.35047  19627366.148    19627364.880    19627375.166
       240.000         207.000
  -8099647.40549  -6287186.20245  23234578.098    23234577.379    23234593.330
       219.000         161.000
 -13695552.74049 -10655807.13347  19042516.678    19042515.467    19042523.481
       233.000         203.000
 -19841548.36649 -15439198.84246  21546865.904    21546865.680    21546876.840
       232.000         177.000
 -22134144.54849 -17232712.98947  21010297.416    21010296.760    21010308.320
       238.000         195.000
 -21729699.39249 -16911349.47947  20651854.668    20651853.874    20651863.995
       235.000         190.000
  10820623.48749   8427651.92045  23856766.743    23856765.159    23856783.545
       214.000         149.000
 00 11 20 17 44 29.9950000  0 10G 1G 4G25G22G27G20G13G19G28G11
 -16419014.82749 -12771929.99947  19984809.159    19984808.233    19984818.221
       242.000         202.000
  -2278501.01449  -1756480.14445  23305621.777    23305621.160    23305637.563
       213.000         146.000
   7581824.03549   5903554.62546  22281331.171    22281329.768    22281342.583
       230.000         177.000
 -18031743.86849 -13692499.88747  19620150.376    19620149.120    19620159.404
       240.000         207.000
  -8212311.48449  -6374976.35046  23213138.790    23213138.123    23213154.012
       219.000         164.000
 -13715352.27649 -10671235.41747  19038749.031    19038747.799    19038755.834
       232.000         203.000
 -19941806.17249 -15517321.78946  21527787.526    21527787.252    21527798.394
       231.000         177.000
 -22232127.55749 -17309063.36847  20991651.809    20991651.193    20991662.759
       238.000         196.000
 -21834610.48749 -16993098.38447  20631890.737    20631889.938    20631900.044
       235.000         190.000
  10876016.55049   8470814.87745  23867308.069    23867306.424    23867324.939
       213.000         146.000
 00 11 20 17 44 59.9950000  0 10G 1G 4G25G22G27G20G13G19G28G11
 -16489826.43149 -12827107.89747  19971334.196    19971333.252    19971343.220
       242.000         202.000
  -2334491.28549  -1800109.02445  23294967.232    23294966.667    23294982.992
       214.000         143.000
   7634380.39149   5944507.34946  22291332.604    22291331.150    22291344.037
       229.000         176.000
 -18069042.74049 -13721564.00547  19613052.684    19613051.415    19613061.711
       241.000         207.000
  -8324854.59849  -6462672.18046  23191722.609    23191721.877    23191737.737
       220.000         165.000
 -13734602.24449 -10686235.46847  19035085.961    19035084.722    19035092.753
       233.000         204.000
 -20042028.46449 -15595417.03146  21508715.697    21508715.531    21508726.737
       233.000         177.000
 -22329878.29649 -17385232.76047  20973050.403    20973049.817    20973061.374
       238.000         196.000
 -21939172.67449 -17074575.41147  20611993.222    20611992.416    20612002.502
       235.000         190.000
  10931232.50249   8513839.76145  23877815.726    23877814.066    23877832.643
       214.000         146.000
 00 11 20 17 45 29.9950000  0 10G 1G 4G25G22G27G20G13G19G28G11
 -16560509.97849 -12882186.01947  19957883.555    19957882.637    19957892.597
       242.000         202.000
  -2389995.44049  -1843359.05645  23284405.226    23284404.653    23284420.952
       216.000         143.000
   7686963.71949   5985481.08146  22301339.109    22301337.641    22301350.544
       225.000         176.000
 -18105713.81549 -13750138.94347  19606074.483    19606073.188    19606083.475
       241.000         207.000
  -8437266.24949  -6550265.55845  23170331.337    23170330.574    23170346.473
       219.000         161.000
 -13753295.46649 -10700801.68947  19031528.805    19031527.569    19031535.631
       233.000         204.000
 -20142205.53049 -15673477.07346  21489652.642    21489652.472    21489663.615
       232.000         177.000
 -22427387.16149 -17461213.67547  20954495.154    20954494.503    20954506.064
       238.000         195.000
 -22043373.72849 -17155771.03347  20592164.408    20592163.598    20592173.694
       235.000         190.000
  10986273.30149   8556728.17245  23888290.004    23888288.345    23888307.010
       214.000         149.000
 00 11 20 17 45 59.9950000  0 10G 1G 4G25G22G27G20G13G19G28G11
 -16631039.44849 -12937144.08347  19944462.270    19944461.356    19944471.311
       242.000         203.000
  -2444987.56549  -1886210.16245  23273940.519    23273939.954    23273956.353
       209.000         142.000
   7739598.27949   6026494.68446  22311355.320    22311353.897    22311366.935
       226.000         173.000
 -18141731.08449 -13778204.41547  19599220.661    19599219.365    19599229.672
       241.000         208.000
  -8549520.44449  -6637736.29345  23148970.007    23148969.288    23148985.088
       219.000         160.000
 -13771406.40849 -10714914.17947  19028082.464    19028081.235    19028089.298
       233.000         203.000
 -20242310.85349 -15751481.20046  21470603.215    21470603.047    21470614.141
       233.000         178.000
 -22524628.40449 -17536986.06047  20935990.815    20935990.142    20936001.657
       239.000         197.000
 -22147185.70449 -17236663.47147  20572409.654    20572408.834    20572418.916
       235.000         191.000
  11041162.35049   8599498.30445  23898735.606    23898733.691    23898752.520
       212.000         144.000
 00 11 20 17 46 29.9950000  0 10G 1G 4G25G22G27G20G13G19G28G11
 -16701427.64449 -12991992.06647  19931067.849    19931066.944    19931076.891
       242.000         202.000
  -2499480.74849  -1928672.45445  23263570.780    23263570.246    23263586.704
       213.000         146.000
   7792269.06949   6067536.53446  22321378.408    22321377.047    22321390.145
       230.000         176.000
 -18177107.21149 -13805770.29947  19592488.860    19592487.571    19592497.863
       241.000         207.000
  -8661630.09249  -6725094.34245  23127636.152    23127635.473    23127651.278
       217.000         162.000
 -13788948.16449 -10728583.15047  19024744.417    19024743.194    19024751.276
       233.000         203.000
 -20342357.79149 -15829439.83646  21451564.945    21451564.743    21451575.809
       234.000         179.000
 -22621615.17749 -17612560.14447  20917534.813    20917534.159    20917545.639
       239.000         196.000
 -22250619.59749 -17317261.29647  20552726.775    20552725.974    20552736.104
       235.000         190.000
  11095883.48249   8642137.62445  23909149.154    23909147.101    23909166.062
       214.000         145.000
 00 11 20 17 46 59.9950000  0 10G 1G 4G25G22G27G20G13G19G28G11
 -16771690.29349 -13046742.22547  19917697.331    19917696.434    19917706.359
       241.000         202.000
  -2553491.29649  -1970758.63245  23253292.925    23253292.434    23253308.981
       207.000         140.000
   7844958.22549   6108592.68546  22331404.977    22331403.683    22331416.870
       227.000         173.000
 -18211858.21749 -13832849.06847  19585876.025    19585874.714    19585885.023
       242.000         207.000
  -8773610.97349  -6812352.03846  23106326.813    23106326.127    23106342.026
       219.000         166.000
 -13805937.22849 -10741821.45247  19021511.539    19021510.331    19021518.444
       233.000         203.000
 -20442361.80549 -15907365.01446  21432534.768    21432534.563    21432545.659
       232.000         178.000
 -22718363.82649 -17687948.67347  20899124.130    20899123.482    20899134.991
       239.000         197.000
 -22353689.12049 -17397575.19147  20533113.244    20533112.468    20533122.620
       236.000         191.000
  11150418.02349   8684631.50945  23919527.048    23919525.031    23919544.059
       211.000         145.000
 00 11 20 17 47 29.9950000  0 10G 1G 4G25G22G27G20G13G19G28G11
 -16841809.22849 -13101380.39047  19904354.127    19904353.261    19904363.180
       242.000         202.000
  -2607001.17649  -2012454.68045  23243110.395    23243109.879    23243126.527
       215.000         145.000
   7897682.31749   6149676.08446  22341438.372    22341437.017    22341450.278
       226.000         177.000
 -18245966.67649 -13859427.15647  19579385.448    19579384.143    19579394.462
       241.000         207.000
  -8885445.10249  -6899495.40346  23085045.427    23085044.787    23085060.635
       221.000         163.000
 -13822355.79249 -10754615.20947  19018387.247    19018386.029    19018394.166
       232.000         203.000
 -20542304.74149 -15985242.61646  21413516.199    21413516.038    21413527.114
       233.000         179.000
 -22814856.41949 -17763137.69047  20880762.141    20880761.515    20880773.005
       239.000         196.000
 -22456374.35449 -17477589.64247  20513572.899    20513572.107    20513582.269
       236.000         191.000
  11204781.47949   8726992.04145  23929872.455    23929870.445    23929889.600
       210.000         142.000
 00 11 20 17 47 59.9950000  0  9G 1G 4G25G22G27G20G13G19G28
 -16911799.15549 -13155918.03347  19891035.500    19891034.631    19891044.561
       241.000         202.000
  -2660025.66949  -2053772.55945  23233020.280    23233019.773    23233036.415
       212.000         144.000
   7950423.79249   6190773.02946  22351474.907    22351473.597    22351486.891
       226.000         175.000
 -18279447.98449 -13885516.55347  19573014.238    19573012.908    19573023.240
       241.000         207.000
  -8997147.57049  -6986536.19545  23063789.012    23063788.398    23063804.203
       218.000         161.000
 -13838219.45349 -10766976.57647  19015368.557    19015367.336    19015375.495
       233.000         203.000
 -20642201.94549 -16063084.58646  21394506.498    21394506.248    21394517.350
       233.000         180.000
 -22911108.08849 -17838138.97047  20862446.048    20862445.416    20862456.916
       239.000         197.000
 -22558688.23349 -17557314.71447  20494103.235    20494102.412    20494112.560
       236.000         191.000
 00 11 20 17 48 29.9950000  0  9G 1G 4G25G22G27G20G13G19G28
 -16981642.95649 -13210341.81247  19877744.666    19877743.818    19877753.760
       242.000         202.000
  -2712548.29549  -2094699.32745  23223025.723    23223025.163    23223041.763
       212.000         145.000
   8003198.13549   6231895.55346  22361517.740    22361516.467    22361529.865
       227.000         173.000
 -18312285.30849 -13911104.15147  19566765.511    19566764.214    19566774.571
       241.000         207.000
  -9108701.37249  -7073461.12146  23042560.952    23042560.361    23042576.176
       222.000         168.000
 -13853511.88549 -10778892.83447  19012458.536    19012457.327    19012465.513
       233.000         203.000
 -20742036.17049 -16140877.47646  21375508.716    21375508.416    21375519.515
       234.000         180.000
 -23007101.99549 -17912939.39247  20844178.997    20844178.366    20844189.849
       239.000         197.000
 -22660611.82549 -17636735.67947  20474707.789    20474706.979    20474717.149
       236.000         192.000
 00 11 20 17 48 59.9950000  0  9G 1G 4G25G22G27G20G13G19G28
 -17051327.49449 -13264641.48247  19864484.178    19864483.323    19864493.268
       241.000         202.000
  -2764556.27749  -2135225.11845  23213128.977    23213128.406    23213145.064
       210.000         145.000
   8056016.53649   6273052.40546  22371568.859    22371567.640    22371581.191
       223.000         174.000
 -18344465.57549 -13936179.75147  19560641.853    19560640.548    19560650.926
       241.000         207.000
  -9220093.46049  -7160260.02546  23021363.702    23021363.120    23021378.919
       220.000         166.000
 -13868220.57549 -10790354.21747  19009659.590    19009658.407    19009666.615
       233.000         203.000
 -20841794.61049 -16218611.31946  21356525.274    21356525.000    21356536.089
       234.000         180.000
 -23102825.44349 -17987529.06247  20825963.360    20825962.765    20825974.275
       239.000         197.000
 -22762130.37049 -17715841.01947  20455389.446    20455388.630    20455398.801
       236.000         192.000
 00 11 20 17 49 29.9950000  0  9G 1G 4G25G22G27G20G13G19G28
 -17120853.32549 -13318817.49047  19851253.851    19851253.005    19851262.972
       241.000         202.000
  -2816050.75849  -2175350.70745  23203329.898    23203329.373    23203346.107
       212.000         144.000
   8108876.54249   6314241.70046  22381628.185    22381626.881    22381640.478
       223.000         170.000
 -18375990.12849 -13960744.39947  19554642.985    19554641.675    19554652.065
       241.000         207.000
  -9331324.74049  -7246933.62546  23000197.100    23000196.415    23000212.224
       222.000         163.000
 -13882346.82549 -10801361.75347  19006971.514    19006970.326    19006978.552
       234.000         203.000
 -20941477.61349 -16296286.36546  21337556.240    21337555.945    21337567.018
       234.000         180.000
 -23198279.58449 -18061908.88047  20807798.985    20807798.418    20807809.927
       239.000         196.000
 -22863242.86949 -17794629.95847  20436148.355    20436147.557    20436157.731
       236.000         192.000
 00 11 20 17 49 59.9950000  0  9G 1G 4G25G22G27G20G13G19G28
 -17190222.28149 -13372871.24247  19838053.352    19838052.548    19838062.545
       241.000         202.000
  -2867034.20749  -2215078.10345  23193628.124    23193627.611    23193644.322
       213.000         143.000
   8161774.45049   6355460.53146  22391694.536    22391693.229    22391706.827
       227.000         178.000
 -18406861.56749 -13984800.13247  19548768.407    19548767.078    19548777.467
       241.000         207.000
  -9442397.10449  -7333483.43346  22979060.767    22979060.011    22979075.677
       224.000         166.000
 -13895893.04749 -10811917.31847  19004393.816    19004392.610    19004400.848
       234.000         203.000
 -21041087.33449 -16373904.32046  21318601.195    21318600.847    21318611.896
       232.000         180.000
 -23293466.67649 -18136080.61647  20789685.511    20789684.911    20789696.397
       240.000         197.000
 -22963948.90549 -17873102.17247  20416984.686    20416983.827    20416993.996
       237.000         192.000
 00 11 20 17 50 29.9950000  0  9G 1G 4G25G22G27G20G13G19G28
 -17259457.10449 -13426820.47447  19824878.440    19824877.615    19824887.627
       242.000         203.000
  -2917529.64449  -2254425.27645  23184019.200    23184018.806    23184035.396
       211.000         141.000
   8214685.07849   6396689.27246  22401763.341    22401762.028    22401775.678
       224.000         171.000
 -18437103.40349 -14008365.25847  19543013.638    19543012.305    19543022.690
       241.000         207.000
  -9553333.55549  -7419927.29946  22957950.161    22957949.452    22957965.087
       221.000         165.000
 -13908882.95149 -10822039.38847  19001921.954    19001920.766    19001929.010
       233.000         203.000
 -21140646.57649 -16451482.92546  21299655.598    21299655.333    21299666.401
       233.000         180.000
 -23388410.00249 -18210062.39547  20771618.420    20771617.802    20771629.265
       240.000         197.000
 -23064269.61949 -17951274.13847  20397894.279    20397893.432    20397903.587
       237.000         193.000
 00 11 20 17 50 59.9950000  0  9G 1G 4G25G22G27G20G13G19G28
 -17328560.99749 -13480667.68047  19811728.445    19811727.609    19811737.644
       242.000         203.000
  -2967541.05649  -2293395.29845  23174502.424    23174501.973    23174518.589
       211.000         142.000
   8267603.43149   6437923.99446  22411833.567    22411832.268    22411846.069
       226.000         175.000
 -18466719.06649 -14031442.46547  19537378.048    19537376.697    19537387.074
       242.000         207.000
  -9664137.65849  -7506268.07346  22936864.766    22936864.063    22936879.648
       222.000         164.000
 -13921320.50449 -10831731.04947  18999555.217    18999554.026    18999562.294
       234.000         203.000
 -21240158.75849 -16529024.85546  21280719.045    21280718.774    21280729.837
       232.000         180.000
 -23483113.42449 -18283857.24747  20753596.929    20753596.320    20753607.778
       240.000         197.000
 -23164206.60149 -18029147.09747  20378876.900    20378876.060    20378886.222
       237.000         193.000
 00 11 20 17 51 29.9950000  0  9G 1G 4G25G22G27G20G13G19G28
 -17397508.09649 -13534392.70947  19798608.320    19798607.453    19798617.482
       242.000         203.000
  -3017043.67049  -2331968.81245  23165082.340    23165081.945    23165098.636
       215.000         146.000
   8320553.33549   6479183.34146  22421909.939    22421908.579    22421922.375
       221.000         170.000
 -18495683.36849 -14054012.11747  19531866.358    19531865.024    19531875.416
       241.000         207.000
  -9774784.07749  -7592485.98346  22915809.350    22915808.698    22915824.243
       221.000         167.000
 -13933180.92349 -10840973.00247  18997298.312    18997297.120    18997305.389
       234.000         203.000
 -21339598.20749 -16606510.13346  21261796.327    21261796.069    21261807.143
       232.000         181.000
 -23577551.91049 -18357445.65147  20735625.876    20735625.245    20735636.707
       239.000         197.000
 -23263732.57049 -18106699.78447  20359937.727    20359936.912    20359947.050
       236.000         193.000
 00 11 20 17 51 59.9950000  0  9G 1G 4G25G22G27G20G13G19G28
 -17466297.36949 -13587994.75447  19785518.154    19785517.299    19785527.330
       240.000         202.000
  -3066036.60449  -2370145.22245  23155759.419    23155759.025    23155775.676
       217.000         150.000
   8373533.97649   6520466.59546  22431991.954    22431990.665    22432004.592
       229.000         176.000
 -18523996.29049 -14076074.20347  19526478.637    19526477.300    19526487.719
       241.000         207.000
  -9885272.05749  -7678580.39746  22894783.958    22894783.401    22894799.014
       221.000         166.000
 -13944464.05949 -10849765.13147  18995151.270    18995150.070    18995158.342
       234.000         203.000
 -21438964.22549 -16683938.17846  21242887.502    21242887.300    21242898.401
       234.000         180.000
 -23671724.37949 -18430826.76847  20717705.382    20717704.791    20717716.268
       240.000         197.000
 -23362844.74849 -18183930.04447  20341077.312    20341076.479    20341086.609
       237.000         193.000
 00 11 20 17 52 29.9950000  0  9G 1G 4G25G22G27G20G13G19G28
 -17534927.63049 -13641472.88847  19772458.208    19772457.399    19772467.451
       240.000         202.000
  -3114519.73049  -2407924.33545  23146533.515    23146533.078    23146549.685
       213.000         146.000
   8426544.26049   6561772.99146  22442079.772    22442078.441    22442092.434
       221.000         169.000
 -18551657.80549 -14097628.69747  19521214.853    19521213.538    19521223.977
       241.000         207.000
  -9995600.74449  -7764550.74446  22873789.058    22873788.498    22873804.022
       222.000         164.000
 -13955169.51549 -10858107.11947  18993114.132    18993112.935    18993121.233
       233.000         204.000
 -21538255.77349 -16761308.20646  21223992.953    21223992.720    21224003.845
       231.000         180.000
 -23765630.21149 -18504000.12147  20699835.653    20699835.087    20699846.535
       240.000         197.000
 -23461540.27749 -18260835.64647  20322296.190    20322295.349    20322305.452
       236.000         193.000
 00 11 20 17 52 59.9950000  0  9G 1G 4G25G22G27G20G13G19G28
 -17603438.15849 -13694857.72547  19759421.135    19759420.302    19759430.344
       241.000         202.000
  -3162532.91749  -2445337.30545  23137397.075    23137396.543    23137413.114
       212.000         143.000
   8479542.79449   6603070.17346  22452165.153    22452163.919    22452178.154
       228.000         174.000
 -18578707.71249 -14118706.60947  19516067.508    19516066.162    19516076.614
       241.000         206.000
 -10105809.73949  -7850427.82246  22852816.884    22852816.341    22852831.838
       222.000         165.000
 -13965337.72849 -10866030.47147  18991179.230    18991178.040    18991186.351
       234.000         203.000
 -21637512.02249 -16838650.72346  21205105.016    21205104.861    21205115.953
       234.000         181.000
 -23859309.70449 -18576997.10747  20682009.028    20682008.447    20682019.882
       240.000         198.000
 -23559856.99749 -18337446.07747  20303587.094    20303586.291    20303596.370
       237.000         193.000
 00 11 20 17 53 29.9950000  0  9G 1G 4G25G22G27G20G13G19G28
 -17671805.76149 -13748131.19147  19746411.227    19746410.386    19746420.440
       241.000         203.000
  -3210053.88749  -2482366.71745  23128354.120    23128353.643    23128370.282
       212.000         142.000
   8532551.00249   6644374.94246  22462252.616    22462251.295    22462265.583
       222.000         169.000
 -18605123.36649 -14139290.30747  19511040.805    19511039.480    19511049.932
       241.000         206.000
 -10215875.92349  -7936193.58946  22831871.953    22831871.391    22831886.916
       224.000         170.000
 -13974946.24249 -10873517.69647  18989350.832    18989349.639    18989357.982
       235.000         203.000
 -21736709.82649 -16915947.70846  21186228.159    21186228.101    21186239.205
       233.000         181.000
 -23952739.90649 -18649799.83247  20664229.834    20664229.270    20664240.659
       240.000         198.000
 -23657769.97849 -18413741.91047  20284954.867    20284954.056    20284964.120
       237.000         193.000
 00 11 20 17 53 59.9950000  0  9G 1G 4G25G22G27G20G13G19G28
 -17740027.82749 -13801291.26047  19733429.039    19733428.203    19733438.229
       241.000         202.000
  -3257080.53149  -2519010.95145  23119405.207    23119404.881    23119421.475
       213.000         147.000
   8585569.42649   6685687.64146  22472341.969    22472340.631    22472354.974
       225.000         172.000
 -18630903.07949 -14159378.46847  19506135.136    19506133.816    19506144.271
       241.000         206.000
 -10325797.17749  -8021846.47346  22810954.620    22810954.057    22810969.518
       223.000         167.000
 -13983993.57349 -10880567.63547  18987629.222    18987628.043    18987636.395
       234.000         203.000
 -21835847.00049 -16993197.44246  21167363.073    21167362.917    21167373.973
       234.000         181.000
 -24045919.02849 -18722406.92547  20646498.471    20646497.857    20646509.228
       240.000         198.000
 -23755275.17649 -18489719.99047  20266400.211    20266399.427    20266409.485
       237.000         193.000
 00 11 20 17 54 29.9950000  0  9G 1G 4G25G22G27G20G13G19G28
 -17808103.66949 -13854337.38747  19720474.656    19720473.795    19720483.852
       240.000         202.000
  -3303613.16649  -2555270.23645  23110550.311    23110550.045    23110566.696
       216.000         148.000
   8638597.12849   6727007.52746  22482433.073    22482431.715    22482446.211
       221.000         167.000
 -18656047.09349 -14178971.28347  19501350.435    19501349.119    19501359.582
       241.000         206.000
 -10435572.93949  -8107385.97946  22790064.845    22790064.343    22790079.758
       221.000         164.000
 -13992480.01949 -10887180.52647  18986014.338    18986013.173    18986021.537
       235.000         203.000
 -21934923.04149 -17070399.53646  21148509.520    21148509.377    21148520.374
       235.000         182.000
 -24138846.81849 -18794818.17647  20628814.890    20628814.288    20628825.621
       240.000         198.000
 -23852370.14449 -18565378.42047  20247923.642    20247922.853    20247932.921
       237.000         193.000
 00 11 20 17 54 59.9950000  0  9G 1G 4G25G22G27G20G13G19G28
 -17876019.82549 -13907259.08247  19707550.588    19707549.775    19707559.852
       240.000         202.000
  -3349639.05149  -2591134.63945  23101792.140    23101791.748    23101808.418
       218.000         149.000
   8691645.31449   6768343.45846  22492527.975    22492526.724    22492541.191
       220.000         170.000
 -18680543.42549 -14198059.40747  19496689.004    19496687.672    19496698.147
       241.000         206.000
 -10545190.25149  -8192802.01146  22769205.436    22769204.842    22769220.250
       224.000         173.000
 -14000393.38849 -10893346.85747  18984508.545    18984507.374    18984515.745
       235.000         203.000
 -22033924.31149 -17147543.36446  21129670.326    21129670.111    21129681.056
       234.000         182.000
 -24231510.52949 -18867023.65347  20611181.580    20611180.974    20611192.269
       241.000         198.000
 -23949039.95249 -18640705.54747  20229527.971    20229527.205    20229537.262
       237.000         194.000
 00 11 20 17 55 29.9950000  0  9G 1G 4G25G22G27G20G13G19G28
 -17943770.80349 -13960052.06547  19694658.038    19694657.216    19694667.295
       241.000         202.000
  -3395153.83049  -2626600.81245  23093131.097    23093130.694    23093147.239
       212.000         140.000
   8744717.57049   6809698.09346  22502627.689    22502626.345    22502640.868
       225.000         170.000
 -18704387.21449 -14216639.05447  19492151.726    19492150.408    19492160.888
       240.000         206.000
 -10654644.09849  -8278090.66146  22748377.032    22748376.432    22748391.852
       221.000         166.000
 -14007729.32049 -10899063.23647  18983112.643    18983111.448    18983119.813
       235.000         204.000
 -22132845.47549 -17224624.77246  21110846.214    21110846.005    21110856.935
       234.000         182.000
 -24323905.35149 -18939019.60347  20593599.469    20593598.836    20593610.121
       241.000         199.000
 -24045277.66549 -18715695.97147  20211214.565    20211213.781    20211223.853
       237.000         193.000
 00 11 20 17 55 59.9950000  0  9G 1G 4G25G22G27G20G13G19G28
 -18011362.56449 -14012720.98647  19681795.784    19681794.964    19681805.027
       241.000         202.000
  -3440164.10049  -2661673.84745  23084565.946    23084565.562    23084582.001
       210.000         138.000
   8797806.02849   6851065.37046  22512730.265    22512728.917    22512743.567
       223.000         171.000
 -18727585.13849 -14234715.42547  19487737.390    19487736.054    19487746.542
       241.000         206.000
 -10763940.78349  -8363256.88546  22727578.484    22727577.930    22727593.243
       223.000         168.000
 -14014494.74449 -10904335.06847  18981825.325    18981824.096    18981832.451
       235.000         204.000
 -22231692.60649 -17301648.47146  21092036.168    21092035.983    21092046.964
       234.000         182.000
 -24416037.84849 -19010811.14147  20576067.201    20576066.590    20576077.887
       241.000         198.000
 -24141087.60549 -18790353.06647  20192982.601    20192981.765    20192991.819
       238.000         194.000
 00 11 20 17 56 29.9950000  0  9G 1G 4G25G22G27G20G13G19G28
 -18078796.21649 -14065266.70447  19668963.608    19668962.776    19668972.844
       241.000         202.000
  -3484672.30949  -2696355.62445  23076096.122    23076095.902    23076112.454
       212.000         143.000
   8850906.98349   6892442.41546  22522835.489    22522834.076    22522848.735
       221.000         169.000
 -18750139.42649 -14252290.26947  19483445.506    19483444.175    19483454.672
       241.000         206.000
 -10873081.90549  -8448301.85046  22706809.606    22706809.033    22706824.320
       221.000         169.000
 -14020692.04049 -10909164.19847  18980646.026    18980644.836    18980653.200
       234.000         204.000
 -22330466.96149 -17378615.46846  21073240.044    21073239.825    21073250.810
       233.000         182.000
 -24507910.16849 -19082399.93847  20558584.478    20558583.849    20558595.151
       241.000         199.000
 -24236469.73449 -18864676.79947  20174832.029    20174831.163    20174841.217
       236.000         194.000
 00 11 20 17 56 59.9950000  0  9G 1G 4G25G22G27G20G13G19G28
 -18146073.74449 -14117690.76847  19656161.114    19656160.309    19656170.371
       241.000         202.000
  -3528680.95949  -2730648.15145  23067721.714    23067721.352    23067737.911
       218.000         147.000
   8904016.86049   6933826.38546  22532942.212    22532940.782    22532955.542
       224.000         170.000
 -18772053.62049 -14269366.33347  19479275.456    19479274.105    19479284.600
       241.000         206.000
 -10982069.84649  -8533227.44446  22686069.841    22686069.242    22686084.552
       224.000         170.000
 -14026324.39449 -10913553.11747  18979574.275    18979573.085    18979581.476
       235.000         204.000
 -22429170.91049 -17455527.61046  21054457.277    21054457.074    21054468.065
       234.000         182.000
 -24599524.93249 -19153788.04647  20541150.751    20541150.132    20541161.421
       241.000         199.000
 -24331424.48049 -18938667.50147  20156762.751    20156761.879    20156771.936
       237.000         193.000
 00 11 20 17 57 29.9950000  0  9G 1G 4G25G22G27G20G13G19G28
 -18213180.26049 -14169981.57647  19643391.168    19643390.366    19643400.436
       240.000         202.000
  -3572176.39149  -2764540.78345  23059445.101    23059444.588    23059461.083
       213.000         145.000
   8957148.80049   6975227.46946  22543053.175    22543051.706    22543066.687
       223.000         169.000
 -18793313.99949 -14285932.92447  19475229.815    19475228.457    19475238.941
       241.000         206.000
 -11090889.97549  -8618022.37046  22665362.125    22665361.491    22665376.619
       222.000         168.000
 -14031378.07249 -10917491.13247  18978612.671    18978611.450    18978619.867
       236.000         204.000
 -22527789.34949 -17532373.10846  21035690.803    21035690.594    21035701.603
       233.000         183.000
 -24690867.54049 -19224964.08747  20523768.825    20523768.207    20523779.496
       241.000         199.000
 -24425935.43749 -19012312.39047  20138777.903    20138777.042    20138787.091
       237.000         193.000
 00 11 20 17 57 59.9950000  0  9G 1G 4G25G22G27G20G13G19G28
 -18280128.18049 -14222148.79447  19630651.417    19630650.616    19630660.691
       240.000         202.000
  -3615171.99049  -2798043.88545  23051263.237    23051262.794    23051279.427
       210.000         140.000
   9010287.98749   7016634.34446  22553165.666    22553164.091    22553178.989
       221.000         169.000
 -18813933.66749 -14302000.25647  19471306.056    19471304.708    19471315.216
       241.000         206.000
 -11199555.17249  -8702696.43946  22644683.643    22644683.068    22644698.338
       221.000         170.000
 -14035866.83949 -10920988.95547  18977758.556    18977757.316    18977765.758
       235.000         204.000
 -22626335.03449 -17609161.91546  21016938.180    21016937.973    21016948.938
       235.000         183.000
 -24781951.10349 -19295938.26447  20506436.202    20506435.591    20506446.874
       241.000         199.000
 -24520013.42249 -19085619.88647  20120875.508    20120874.614    20120884.641
       237.000         194.000
 00 11 20 17 58 29.9950000  0  9G 1G 4G25G22G27G20G13G19G28
 -18346921.17449 -14274195.28947  19617941.184    19617940.359    19617950.419
       240.000         202.000
  -3657672.39949  -2831161.21145  23043175.689    23043175.335    23043192.003
       216.000         143.000
   9063429.20749   7058042.66146  22563278.295    22563276.767    22563291.904
       222.000         172.000
 -18833917.24849 -14317571.94147  19467503.349    19467502.010    19467512.532
       241.000         206.000
 -11308069.41949  -8787252.97846  22624034.138    22624033.496    22624048.701
       225.000         170.000
 -14039795.41949 -10924050.27247  18977010.997    18977009.783    18977018.250
       235.000         203.000
 -22724811.75649 -17685896.98546  20998198.700    20998198.433    20998209.396
       234.000         183.000
 -24872779.87749 -19366713.90447  20489152.037    20489151.436    20489162.721
       241.000         200.000
 -24613660.51849 -19158591.62347  20103055.062    20103054.180    20103064.191
       238.000         193.000
 00 11 20 17 58 59.9950000  0  9G 1G 4G25G22G27G20G13G19G28
 -18413539.59149 -14326105.74147  19605264.156    19605263.312    19605273.381
       241.000         203.000
  -3699659.12949  -2863878.25445  23035186.040    23035185.698    23035202.283
       217.000         147.000
   9116589.99649   7099466.32046  22573394.771    22573393.236    22573408.390
       223.000         170.000
 -18853246.71049 -14332633.92247  19463825.132    19463823.788    19463834.321
       241.000         206.000
 -11416413.74849  -8871677.06446  22603416.757    22603416.149    22603431.412
       220.000         169.000
 -14043145.41249 -10926660.73647  18976373.563    18976372.352    18976380.842
       235.000         203.000
 -22823199.83649 -17762562.98346  20979475.968    20979475.785    20979486.756
       235.000         183.000
 -24963335.07249 -19437276.36247  20471919.958    20471919.346    20471930.635
       241.000         200.000
 -24706855.82449 -19231211.31547  20085320.584    20085319.709    20085329.706
       237.000         193.000
 00 11 20 17 59 29.9950000  0  9G 1G 4G25G22G27G20G13G19G28
 -18479988.97949 -14377884.49247  19592619.336    19592618.452    19592628.507
       241.000         203.000
  -3741138.73049  -2896200.09445  23027292.938    23027292.501    23027309.083
       217.000         150.000
   9169762.65649   7140899.18046  22583513.571    22583511.975    22583527.196
       223.000         172.000
 -18871929.31449 -14347191.86647  19460269.993    19460268.660    19460279.203
       241.000         206.000
 -11524594.08049  -8955973.37346  22582830.757    22582830.139    22582845.419
       225.000         175.000
 -14045924.00349 -10928825.94947  18975844.867    18975843.663    18975852.167
       235.000         203.000
 -22921504.78149 -17839164.21946  20960769.172    20960768.954    20960779.906
       235.000         183.000
 -25053623.03049 -19507630.58947  20454738.714    20454738.103    20454749.395
       241.000         200.000
 -24799603.90049 -19303482.51047  20067671.222    20067670.335    20067680.327
       238.000         193.000
 00 11 20 17 59 59.9950000  0  9G 1G 4G25G22G27G20G13G19G28
 -18546280.54949 -14429540.25747  19580004.512    19580003.605    19580013.668
       241.000         203.000
  -3782123.61449  -2928136.41845  23019493.785    23019493.389    23019510.052
       210.000         141.000
   9222934.19249   7182331.19345  22593632.041    22593630.439    22593645.747
       217.000         162.000
 -18889977.35549 -14361255.34747  19456835.630    19456834.279    19456844.843
       241.000         206.000
 -11632622.43749  -9040151.26246  22562273.537    22562272.964    22562288.249
       219.000         163.000
 -14048143.80749 -10930555.74547  18975422.474    18975421.292    18975429.825
       235.000         203.000
 -23019738.45549 -17915709.91646  20942075.876    20942075.680    20942086.614
       234.000         183.000
 -25143655.78549 -19577785.94947  20437606.055    20437605.432    20437616.713
       242.000         200.000
 -24891914.55949 -19375412.84647  20050105.085    20050104.184    20050114.177
       238.000         194.000
 00 11 20 18  0 29.9950000  0  9G 1G 4G25G22G27G20G13G19G28
 -18612405.62249 -14481066.29247  19567421.314    19567420.422    19567430.515
       241.000         203.000
  -3822606.47149  -2959681.52045  23011789.926    23011789.616    23011806.412
       216.000         143.000
   9276111.47649   7223767.67546  22603751.669    22603750.055    22603765.419
       228.000         174.000
 -18907383.10549 -14374818.34047  19453523.489    19453522.129    19453532.706
       241.000         206.000
 -11740490.44849  -9124204.18546  22541746.922    22541746.309    22541761.587
       227.000         175.000
 -14049797.40449 -10931844.33947  18975107.849    18975106.680    18975115.235
       236.000         203.000
 -23117892.13749 -17992193.27746  20923397.822    20923397.619    20923408.571
       235.000         182.000
 -25233425.22949 -19647736.13047  20420523.510    20420522.872    20420534.146
       242.000         200.000
 -24983778.09549 -19446994.77447  20032624.024    20032623.126    20032633.121
       238.000         193.000
 00 11 20 18  0 59.9950000  0  9G 1G 4G25G22G27G20G13G19G28
 -18678360.83449 -14532459.97147  19554870.432    19554869.570    19554879.661
       241.000         203.000
  -3862584.89149  -2990833.67045  23004182.486    23004182.125    23004198.790
       220.000         149.000
   9329295.95149   7265209.74146  22613872.306    22613870.906    22613886.426
       220.000         164.000
 -18924144.50249 -14387879.24247  19450333.981    19450332.599    19450343.179
       241.000         206.000
 -11848195.08849  -9208129.79646  22521251.523    22521250.845    22521266.057
       221.000         170.000
 -14050882.97449 -10932690.32647  18974901.369    18974900.163    18974908.738
       236.000         204.000
 -23215962.32449 -18068611.58046  20904735.709    20904735.471    20904746.403
       235.000         183.000
 -25322929.23949 -19717479.48447  20403491.424    20403490.826    20403502.090
       242.000         200.000
 -25075189.57549 -19518224.44547  20015228.961    20015228.090    20015238.089
       238.000         193.000
 00 11 20 18  1 29.9950000  0  9G 1G 4G25G22G27G20G13G19G28
 -18744141.60549 -14583717.72447  19542352.783    19542351.922    19542362.006
       241.000         203.000
  -3902055.52049  -3021590.11545  22996671.701    22996671.247    22996687.935
       216.000         150.000
   9382490.06249   7306659.36146  22623995.048    22623993.668    22624009.227
       219.000         167.000
 -18940258.90949 -14400435.99447  19447267.587    19447266.195    19447276.765
       241.000         206.000
 -11955732.48649  -9291925.09646  22500787.820    22500787.124    22500802.250
       226.000         173.000
 -14051397.57449 -10933091.39147  18974803.490    18974802.287    18974810.899
       236.000         204.000
 -23313944.65349 -18144961.42046  20886090.268    20886090.012    20886100.952
       233.000         183.000
 -25412163.98549 -19787013.03647  20386510.597    20386510.002    20386521.253
       242.000         200.000
 -25166143.17249 -19589097.32547  19997921.024    19997920.176    19997930.178
       237.000         193.000
 00 11 20 18  1 59.9950000  0  9G 1G 4G25G22G27G20G13G19G28
 -18809760.60449 -14634849.42347  19529865.872    19529865.063    19529875.141
       241.000         203.000
  -3941032.42449  -3051961.77545  22989254.569    22989254.182    22989271.065
       212.000         147.000
   9435679.23749   7348105.11146  22634116.879    22634115.511    22634131.191
       220.000         164.000
 -18955740.57649 -14412499.69747  19444321.558    19444320.193    19444330.756
       241.000         206.000
 -12063115.64149  -9375600.19946  22480353.515    22480352.774    22480367.905
       221.000         172.000
 -14051355.13349 -10933058.40347  18974811.555    18974810.414    18974819.066
       236.000         204.000
 -23411851.90149 -18221252.76346  20867459.142    20867458.872    20867469.784
       235.000         184.000
 -25501142.52049 -19856346.93947  20369578.490    20369577.902    20369589.180
       242.000         200.000
 -25256650.33649 -19659622.33047  19980698.052    19980697.211    19980707.224
       238.000         194.000
 00 11 20 18  2 29.9950000  0  9G 1G 4G25G22G27G20G13G19G28
 -18875215.20149 -14685853.02247  19517410.296    19517409.482    19517419.541
       241.000         203.000
  -3979514.16649  -3081947.56045  22981931.710    22981931.284    22981948.493
       216.000         147.000
   9488863.91649   7389547.37146  22644237.925    22644236.510    22644252.321
       220.000         168.000
 -18970587.88449 -14424069.08847  19441496.264    19441494.903    19441505.464
       242.000         206.000
 -12170342.57549  -9459153.55946  22459948.819    22459948.091    22459963.216
       226.000         171.000
 -14050754.52549 -10932590.47747  18974925.960    18974924.775    18974933.440
       237.000         204.000
 -23509681.35849 -18297483.47746  20848842.680    20848842.509    20848853.414
       235.000         183.000
 -25589863.15249 -19925479.88147  20352695.492    20352694.908    20352706.180
       243.000         200.000
 -25346707.35149 -19729796.58347  19963560.726    19963559.914    19963569.913
       238.000         194.000
 00 11 20 18  2 59.9950000  0  9G 1G 4G25G22G27G20G13G19G28
 -18940495.25949 -14736720.61947  19504987.913    19504987.105    19504997.185
       241.000         204.000
  -4017491.90349  -3111540.70745  22974704.903    22974704.482    22974721.640
       217.000         143.000
   9542052.66149   7430992.85046  22654359.781    22654358.297    22654374.143
       223.000         168.000
 -18984792.12349 -14435137.38547  19438793.306    19438791.975    19438802.549
       241.000         205.000
 -12277403.67749  -9542577.71546  22439575.655    22439574.978    22439590.078
       222.000         171.000
 -14049587.22649 -10931680.97347  18975148.171    18975146.957    18975155.658
       237.000         204.000
 -23607423.48249 -18373646.13046  20830242.981    20830242.773    20830253.661
       236.000         184.000
 -25678316.79649 -19994404.77947  20335863.336    20335862.710    20335873.990
       242.000         200.000
 -25436302.87549 -19799611.22347  19946511.212    19946510.428    19946520.414
       238.000         194.000
 00 11 20 18  3 29.9950000  0  9G 1G 4G25G22G27G20G13G19G28
 -19005591.04149 -14787444.62747  19492600.631    19492599.814    19492609.865
       241.000         203.000
  -4054957.15749  -3140734.58145  22967575.677    22967575.245    22967592.038
       220.000         141.000
   9595253.31049   7472447.54446  22664483.586    22664482.214    22664498.274
       220.000         167.000
 -18998345.05449 -14445698.16847  19436214.302    19436212.980    19436223.573
       241.000         205.000
 -12384289.85649  -9625865.52946  22419235.895    22419235.228    22419250.350
       226.000         178.000
 -14047845.18149 -10930323.61147  18975479.720    18975478.510    18975487.251
       236.000         204.000
 -23705068.18149 -18449732.86446  20811661.789    20811661.569    20811672.494
       235.000         184.000
 -25766494.38549 -20063114.56247  20319083.673    20319083.059    20319094.329
       241.000         200.000
 -25525425.61649 -19869057.45847  19929551.692    19929550.909    19929560.893
       237.000         194.000
 00 11 20 18  3 59.9950000  0  9G 1G 4G25G22G27G20G13G19G28
 -19070505.77349 -14838027.56047  19480247.798    19480246.963    19480257.014
       242.000         204.000
  -4091914.73149  -3169532.81545  22960543.003    22960542.523    22960559.222
       215.000         144.000
   9648460.40249   7513907.28346  22674608.962    22674607.513    22674623.668
       222.000         168.000
 -19011251.97849 -14455755.56847  19433758.241    19433756.922    19433767.533
       241.000         205.000
 -12491004.89549  -9709020.00546  22398928.637    22398927.963    22398943.069
       220.000         167.000
 -14045533.08349 -10928522.05047  18975919.746    18975918.550    18975927.313
       236.000         204.000
 -23802618.75749 -18525746.25546  20793098.462    20793098.283    20793109.212
       236.000         184.000
 -25854399.85149 -20131612.30847  20302355.820    20302355.192    20302366.452
       242.000         201.000
 -25614077.81049 -19938137.04547  19912681.676    19912680.921    19912690.900
       237.000         194.000
 00 11 20 18  4 29.9950000  0  9G 1G 4G25G22G27G20G13G19G28
 -19135250.32649 -14888477.88247  19467927.377    19467926.506    19467936.555
       242.000         204.000
  -4128376.69949  -3197944.82045  22953604.300    22953603.959    22953620.885
       213.000         148.000
   9701661.35749   7555362.28845  22684733.109    22684731.631    22684747.723
       219.000         159.000
 -19023525.49349 -14465319.39747  19431422.737    19431421.397    19431432.020
       241.000         205.000
 -12597560.20949  -9792050.00946  22378651.657    22378651.030    22378666.154
       227.000         176.000
 -14042663.60749 -10926286.17247  18976465.865    18976464.643    18976473.429
       237.000         204.000
 -23900086.37649 -18601694.99846  20774551.007    20774550.789    20774561.685
       235.000         185.000
 -25942045.08749 -20199907.27247  20285677.469    20285676.832    20285688.115
       241.000         201.000
 -25702269.17149 -20006857.53147  19895899.384    19895898.634    19895908.630
       237.000         195.000
 00 11 20 18  4 59.9950000  0  9G 1G 4G25G22G27G20G13G19G28
 -19199827.20649 -14938797.55147  19455638.854    19455637.971    19455648.004
       242.000         204.000
  -4164347.16349  -3225973.82345  22946759.429    22946759.092    22946776.186
       215.000         151.000
   9754851.42449   7596808.71246  22694854.847    22694853.559    22694869.803
       219.000         167.000
 -19035169.39149 -14474392.62547  19429207.014    19429205.688    19429216.308
       241.000         205.000
 -12703959.15549  -9874958.19146  22358404.648    22358403.985    22358419.055
       222.000         173.000
 -14039240.82649 -10923619.14947  18977117.272    18977116.033    18977124.836
       237.000         204.000
 -23997473.88849 -18677581.32346  20756018.746    20756018.543    20756029.448
       236.000         185.000
 -26029433.82949 -20268002.38447  20269047.920    20269047.289    20269058.583
       242.000         201.000
 -25790001.42649 -20075220.29147  19879204.484    19879203.706    19879213.712
       238.000         195.000
 00 11 20 18  5 29.9950000  0  9G 1G 4G25G22G27G20G13G19G28
 -19264226.12449 -14988978.54847  19443384.185    19443383.283    19443393.326
       241.000         204.000
  -4199817.08049  -3253612.80245  22940009.887    22940009.526    22940026.649
       217.000         147.000
   9808038.87549   7638253.17645  22704976.368    22704975.060    22704991.348
       216.000         160.000
 -19046174.88549 -14482968.39447  19427112.772    19427111.449    19427122.089
       241.000         205.000
 -12810192.06149  -9957736.95246  22338188.926    22338188.372    22338203.463
       226.000         173.000
 -14035256.34449 -10920514.42447  18977875.574    18977874.308    18977883.139
       237.000         204.000
 -24094770.62549 -18753396.90546  20737503.835    20737503.597    20737514.496
       235.000         186.000
 -26116556.48349 -20335890.14547  20252469.036    20252468.400    20252479.661
       242.000         201.000
 -25877263.02849 -20143216.30647  19862599.146    19862598.361    19862608.357
       238.000         195.000
 00 11 20 18  5 59.9950000  0  9G 1G 4G25G22G27G20G13G19G28
 -19328428.72449 -15039006.57847  19431166.809    19431165.933    19431175.990
       241.000         204.000
  -4234769.81249  -3280848.77945  22933358.641    22933358.331    22933375.421
       218.000         144.000
   9861240.44449   7679708.55346  22715100.602    22715099.235    22715115.686
       222.000         166.000
 -19056525.44349 -14491033.83147  19425143.202    19425141.859    19425152.484
       241.000         205.000
 -12916241.03649 -10040372.43046  22318008.514    22318007.920    22318022.927
       224.000         173.000
 -14030693.30249 -10916958.88147  18978743.935    18978742.679    18978751.518
       237.000         204.000
 -24191958.74849 -18829127.85246  20719009.536    20719009.299    20719020.167
       237.000         186.000
 -26203395.53849 -20403556.92647  20235944.124    20235943.473    20235954.723
       242.000         201.000
 -25964034.73949 -20210830.58347  19846087.026    19846086.243    19846096.222
       238.000         195.000
 00 11 20 18  6 29.9950000  0  9G 1G 4G25G22G27G20G13G19G28
 -19392455.26949 -15088897.41847  19418982.946    19418982.107    19418992.175
       241.000         204.000
  -4269226.87249  -3307698.60845  22926801.880    22926801.498    22926818.521
       216.000         142.000
   9914433.72449   7721157.61846  22725223.438    22725221.958    22725238.290
       215.000         164.000
 -19066243.65449 -14498606.53647  19423293.985    19423292.608    19423303.233
       241.000         205.000
 -13022127.09649 -10122880.91246  22297858.862    22297858.312    22297873.407
       223.000         174.000
 -14025573.87849 -10912969.79147  18979718.167    18979716.931    18979725.789
       237.000         203.000
 -24289058.64749 -18904790.06846  20700532.036    20700531.782    20700542.644
       237.000         186.000
 -26289972.12749 -20471019.18947  20219469.162    20219468.499    20219479.729
       242.000         202.000
 -26050335.55349 -20278077.93347  19829664.475    19829663.712    19829673.689
       238.000         195.000
 00 11 20 18  6 59.9950000  0  9G 1G 4G25G22G27G20G13G19G28
 -19456304.46749 -15138650.06147  19406832.883    19406832.025    19406842.086
       241.000         204.000
  -4303188.66949  -3334162.46545  22920339.254    22920338.863    22920355.887
       213.000         144.000
   9967618.09849   7762599.58246  22735344.210    22735342.811    22735359.333
       222.000         165.000
 -19075329.87049 -14505686.77447  19421565.008    19421563.617    19421574.229
       241.000         205.000
 -13127849.41649 -10205261.82846  22277740.467    22277739.968    22277755.035
       225.000         174.000
 -14019898.75149 -10908547.69647  18980798.149    18980796.934    18980805.807
       238.000         204.000
 -24386068.80349 -18980382.32646  20682071.551    20682071.326    20682082.170
       235.000         186.000
 -26376285.86449 -20538276.63747  20203044.145    20203043.518    20203054.750
       242.000         201.000
 -26136163.19349 -20344956.57947  19813331.993    19813331.212    19813341.197
       238.000         196.000
 00 11 20 18  7 29.9950000  0  9G 1G 4G25G22G27G20G13G19G28
 -19519960.28549 -15188252.02147  19394719.625    19394718.749    19394728.810
       241.000         204.000
  -4336640.71449  -3360229.05645  22913973.396    22913973.115    22913990.281
       214.000         148.000
  10020807.46649   7804045.53646  22745466.184    22745464.716    22745481.231
       218.000         164.000
 -19083769.30649 -14512263.03147  19419959.047    19419957.695    19419968.306
       241.000         204.000
 -13233392.79949 -10287503.31446  22257656.227    22257655.665    22257670.709
       224.000         174.000
 -14013653.34449 -10903681.21547  18981986.696    18981985.468    18981994.354
       238.000         204.000
 -24482973.10249 -19055892.12546  20663631.187    20663631.031    20663641.833
       237.000         187.000
 -26462321.64349 -20605317.48947  20186672.068    20186671.451    20186682.653
       243.000         201.000
 -26221500.65849 -20411453.27347  19797092.794    19797092.007    19797101.994
       238.000         196.000
 00 11 20 18  7 59.9950000  0  9G 1G 4G25G22G27G20G13G19G28
 -19583430.97449 -15237709.72547  19382641.549    19382640.696    19382650.759
       241.000         204.000
  -4369592.69349  -3385905.99445  22907702.734    22907702.480    22907719.882
       208.000         145.000
  10073992.21849   7845487.84446  22755587.118    22755585.712    22755602.398
       221.000         167.000
 -19091572.15149 -14518343.24447  19418474.251    19418472.908    19418483.525
       240.000         205.000
 -13338766.06749 -10369612.23846  22237604.257    22237603.720    22237618.730
       226.000         176.000
 -14006847.83749 -10898378.29247  18983281.786    18983280.570    18983289.479
       238.000         204.000
 -24579780.06149 -19131326.05946  20645209.372    20645209.222    20645220.023
       235.000         187.000
 -26548088.73649 -20672148.97747  20170351.160    20170350.499    20170361.699
       243.000         201.000
 -26306355.27449 -20477573.72247  19780945.474    19780944.691    19780954.671
       238.000         196.000
 00 11 20 18  8 29.9950000  0  9G 1G 4G25G22G27G20G13G19G28
 -19646716.19149 -15287022.90847  19370598.788    19370597.937    19370608.010
       241.000         204.000
  -4402046.06149  -3411194.40745  22901527.152    22901526.877    22901544.262
       214.000         144.000
  10127170.62549   7886925.24646  22765706.961    22765705.534    22765722.269
       221.000         168.000
 -19098740.46549 -14523929.02447  19417110.195    19417108.870    19417119.496
       241.000         204.000
 -13443969.62149 -10451588.93346  22217584.825    22217584.168    22217599.093
       225.000         176.000
 -13999483.93349 -10892640.25947  18984683.145    18984681.932    18984690.870
       237.000         204.000
 -24676489.65749 -19206684.12046  20626806.212    20626805.981    20626816.763
       237.000         186.000
 -26633587.82949 -20738771.63847  20154081.193    20154080.547    20154091.747
       243.000         201.000
 -26390725.73749 -20543316.91347  19764890.302    19764889.511    19764899.489
       238.000         197.000
 00 11 20 18  8 59.9950000  0  9G 1G 4G25G22G27G20G13G19G28
 -19709826.48249 -15336199.78247  19358589.336    19358588.475    19358598.534
       241.000         205.000
  -4434012.92549  -3436103.79245  22895444.443    22895443.942    22895461.215
       219.000         144.000
  10180330.11749   7928347.90145  22775823.212    22775821.731    22775838.467
       223.000         162.000
 -19105286.77749 -14529030.12147  19415864.567    19415863.212    19415873.844
       241.000         204.000
 -13549014.94049 -10533442.31246  22197595.062    22197594.557    22197609.433
       225.000         173.000
 -13991573.99449 -10886476.74147  18986188.430    18986187.195    18986196.172
       238.000         204.000
 -24773112.60949 -19281974.67947  20608419.416    20608419.225    20608429.975
       235.000         188.000
 -26718830.32049 -20805194.34047  20137860.087    20137859.450    20137870.634
       242.000         201.000
 -26474621.64149 -20608690.32647  19748925.414    19748924.620    19748934.602
       237.000         196.000
 00 11 20 18  9 29.9940000  0  9G 1G 4G25G22G27G20G13G19G28
 -19772745.27449 -15385227.42847  19346616.331    19346615.455    19346625.524
       241.000         205.000
  -4465479.56849  -3460623.40545  22889456.689    22889456.186    22889473.327
       210.000         142.000
  10233481.12549   7969763.89546  22785937.537    22785936.165    22785953.133
       218.000         165.000
 -19111198.22949 -14533636.51547  19414739.726    19414738.345    19414748.996
       241.000         204.000
 -13653884.63949 -10615158.88346  22177639.087    22177638.539    22177653.289
       224.000         178.000
 -13983105.77149 -10879878.19347  18987799.899    18987798.702    18987807.708
       238.000         204.000
 -24869631.11249 -19357183.83846  20590052.467    20590052.314    20590063.085
       236.000         187.000
 -26803799.98749 -20871404.44947  20121690.894    20121690.247    20121701.423
       242.000         202.000
 -26558025.05049 -20673679.97447  19733054.219    19733053.447    19733063.420
       238.000         196.000
 00 11 20 18  9 59.9940000  0  9G 1G 4G25G22G27G20G13G19G28
 -19835480.03449 -15434111.67047  19334678.315    19334677.448    19334687.497
       241.000         205.000
  -4496452.79549  -3484758.49345  22883562.635    22883562.244    22883579.436
       205.000         143.000
  10286621.96749   8011172.01945  22796050.338    22796048.879    22796065.853
       221.000         156.000
 -19116480.03949 -14537752.28647  19413734.668    19413733.301    19413743.977
       240.000         204.000
 -13758589.95349 -10696747.28346  22157714.020    22157713.573    22157728.503
       224.000         175.000
 -13974084.03149 -10872848.33747  18989516.707    18989515.531    18989524.567
       239.000         204.000
 -24966054.68949 -19432319.03946  20571703.665    20571703.485    20571714.258
       237.000         187.000
 -26888506.77349 -20937409.71647  20105571.714    20105571.079    20105582.259
       243.000         202.000
 -26640944.03149 -20738292.15147  19717275.191    19717274.442    19717284.414
       237.000         196.000
 00 11 20 18 10 29.9940000  0  9G 1G 4G25G22G27G20G13G19G28
 -19898027.36449 -15482849.86347  19322775.970    19322775.106    19322785.162
       241.000         205.000
  -4526932.30049  -3508508.73045  22877762.239    22877761.985    22877779.551
       210.000         142.000
  10339750.68949   8052570.67745  22806160.505    22806159.142    22806176.258
       218.000         160.000
 -19121132.87449 -14541377.95747  19412849.309    19412847.957    19412858.642
       240.000         204.000
 -13863126.45549 -10778204.26846  22137821.469    22137820.926    22137835.649
       226.000         174.000
 -13964509.64949 -10865387.85947  18991338.702    18991337.525    18991346.588
       238.000         204.000
 -25062379.20649 -19507377.04546  20553373.641    20553373.493    20553384.266
       236.000         187.000
 -26972947.44349 -21003207.62247  20089503.160    20089502.524    20089513.716
       242.000         202.000
 -26723373.26449 -20802522.70447  19701589.352    19701588.631    19701598.610
       237.000         197.000
 00 11 20 18 10 59.9940000  0  9G 1G 4G25G22G27G20G13G19G28
 -19960379.54349 -15531435.98247  19310910.742    19310909.898    19310919.977
       242.000         205.000
  -4556911.92949  -3531869.57645  22872057.518    22872057.147    22872074.741
       217.000         149.000
  10392872.85249   8093964.22746  22816269.568    22816268.172    22816285.370
       221.000         164.000
 -19125151.52749 -14544509.46047  19412084.630    19412083.282    19412093.997
       240.000         204.000
 -13967487.36849 -10859524.34846  22117962.021    22117961.547    22117976.354
       224.000         178.000
 -13954377.11149 -10857492.45647  18993266.919    18993265.737    18993274.834
       238.000         204.000
 -25158597.08149 -19582351.96347  20535063.905    20535063.789    20535074.552
       237.000         188.000
 -27057115.58749 -21068793.16147  20073486.475    20073485.843    20073497.039
       244.000         202.000
 -26805304.38449 -20866365.11547  19685998.355    19685997.634    19686007.602
       237.000         197.000
 00 11 20 18 11 29.9940000  0  9G 1G 4G25G22G27G20G13G19G28
 -20022533.20949 -15579867.41647  19299083.320    19299082.458    19299092.547
       241.000         205.000
  -4586390.11349  -3554839.71845  22866448.366    22866447.866    22866465.319
       215.000         148.000
  10445990.15549   8135354.02346  22826377.797    22826376.356    22826393.629
       221.000         164.000
 -19128534.89749 -14547145.93747  19411440.850    19411439.501    19411450.236
       240.000         203.000
 -14071670.10049 -10940705.59646  22098136.619    22098136.149    22098151.030
       225.000         177.000
 -13943685.13749 -10849161.12047  18995301.616    18995300.398    18995309.525
       238.000         204.000
 -25254704.90649 -19657241.12246  20516775.145    20516775.041    20516785.781
       237.000         187.000
 -27141008.72549 -21134164.41247  20057522.122    20057521.510    20057532.679
       243.000         202.000
 -26886733.29149 -20929816.18747  19670502.932    19670502.199    19670512.168
       237.000         198.000
 00 11 20 18 11 59.9940000  0  9G 1G 4G25G22G27G20G13G19G28
 -20084486.54849 -15628142.75647  19287293.985    19287293.148    19287303.226
       241.000         205.000
  -4615366.92849  -3577419.21445  22860934.544    22860933.941    22860951.172
       214.000         147.000
  10499102.70549   8176740.05246  22836484.922    22836483.551    22836501.009
       219.000         164.000
 -19131282.69149 -14549287.15747  19410918.021    19410916.670    19410927.423
       240.000         203.000
 -14175673.38149 -11021747.08946  22078345.438    22078344.973    22078359.621
       225.000         174.000
 -13932433.60249 -10840393.75847  18997442.760    18997441.553    18997450.698
       238.000         204.000
 -25350700.97349 -19732043.19847  20498507.692    20498507.562    20498518.275
       237.000         188.000
 -27224625.97749 -21199320.69347  20041610.260    20041609.653    20041620.826
       244.000         202.000
 -26967657.34449 -20992873.86947  19655103.586    19655102.839    19655112.812
       238.000         198.000
 00 11 20 18 12 29.9940000  0  9G 1G 4G25G22G27G20G13G19G28
 -20146245.98549 -15676266.99647  19275541.577    19275540.730    19275550.811
       241.000         205.000
  -4643850.57849  -3599614.26945  22855514.244    22855513.694    22855531.169
       207.000         146.000
  10552201.92149   8218115.74145  22846589.719    22846588.261    22846605.751
       217.000         161.000
 -19133403.43549 -14550939.76047  19410514.487    19410513.151    19410523.924
       240.000         203.000
 -14279504.60549 -11102654.43246  22058586.952    22058586.451    22058601.154
       225.000         179.000
 -13920631.28149 -10831197.20847  18999688.685    18999687.511    18999696.687
       238.000         204.000
 -25446591.75649 -19806763.21647  20480260.228    20480260.115    20480270.809
       237.000         188.000
 -27307975.02649 -21264267.97247  20025749.440    20025748.827    20025759.996
       243.000         202.000
 -27048082.10849 -21055542.49347  19639799.248    19639798.502    19639808.470
       238.000         198.000
 00 11 20 18 12 59.9940000  0  9G 1G 4G25G22G27G20G13G19G28
 -20207812.98949 -15724241.29147  19263825.762    19263824.948    19263835.007
       241.000         205.000
  -4671844.36849  -3621427.66245  22850187.154    22850186.686    22850204.265
       215.000         149.000
  10605284.36849   8259478.36746  22856691.217    22856689.766    22856707.288
       221.000         164.000
 -19134900.96849 -14552106.75747  19410229.562    19410228.232    19410239.026
       239.000         203.000
 -14383165.88549 -11183429.37446  22038860.904    22038860.348    22038875.027
       227.000         177.000
 -13908281.75649 -10821574.26447  19002038.796    19002037.600    19002046.795
       238.000         204.000
 -25542378.76949 -19881402.39247  20462032.533    20462032.426    20462043.095
       236.000         188.000
 -27391058.49049 -21329008.31447  20009939.154    20009938.551    20009949.726
       244.000         202.000
 -27128008.39549 -21117822.69447  19624589.774    19624589.016    19624598.970
       238.000         198.000
 00 11 20 18 13 29.9940000  0  9G 1G 4G25G22G27G20G13G19G28
 -20269178.66249 -15772058.70447  19252148.297    19252147.460    19252157.527
       242.000         206.000
  -4699341.12849  -3642853.80845  22844954.791    22844954.340    22844971.860
       213.000         146.000
  10658357.31649   8300833.52245  22866790.552    22866789.406    22866807.095
       216.000         161.000
 -19135768.80249 -14552783.08347  19410064.460    19410063.145    19410073.965
       240.000         203.000
 -14486649.15449 -11264065.65346  22019168.510    22019168.035    22019182.590
       224.000         176.000
 -13895378.33049 -10811519.72347  19004494.275    19004493.096    19004502.303
       239.000         203.000
 -25638052.97949 -19955953.65847  20443826.270    20443826.193    20443836.847
       237.000         188.000
 -27473868.32149 -21393535.43847  19994180.958    19994180.362    19994191.521
       243.000         202.000
 -27207426.56549 -21179706.96947  19609477.013    19609476.234    19609486.155
       238.000         198.000
 00 11 20 18 13 59.9940000  0  9G 1G 4G25G22G27G20G13G19G28
 -20330352.45649 -15819726.60247  19240507.323    19240506.491    19240516.537
       242.000         206.000
  -4726352.44449  -3663901.70545  22839814.817    22839814.312    22839831.777
       209.000         137.000
  10711409.21149   8342172.37145  22876886.511    22876885.181    22876902.825
       223.000         160.000
 -19136018.71249 -14552977.90547  19410016.972    19410015.635    19410026.492
       239.000         203.000
 -14589964.73849 -11344571.19746  21999508.189    21999507.677    21999522.305
       228.000         181.000
 -13881932.62849 -10801042.62847  19007052.962    19007051.773    19007061.010
       238.000         203.000
 -25733623.97349 -20030424.48646  20425639.614    20425639.581    20425650.260
       235.000         187.000
 -27556415.03149 -21457857.52847  19978472.817    19978472.231    19978483.383
       244.000         203.000
 -27286345.76849 -21241202.43247  19594459.165    19594458.391    19594468.290
       238.000         198.000
 00 11 20 18 14 29.9940000  0  9G 1G 4G25G22G27G20G13G19G28
 -20391318.81449 -15867232.87447  19228905.832    19228904.994    19228915.024
       242.000         205.000
  -4752864.59149  -3684560.62745  22834769.681    22834769.274    22834786.615
       210.000         140.000
  10764453.90949   8383505.56545  22886980.767    22886979.466    22886997.153
       216.000         161.000
 -19135636.87249 -14552680.45647  19410089.687    19410088.355    19410099.252
       240.000         203.000
 -14693097.85749 -11424934.62146  21979882.633    21979882.071    21979896.630
       225.000         175.000
 -13867931.32149 -10790132.59947  19009717.369    19009716.183    19009725.427
       238.000         203.000
 -25829076.25849 -20104802.82547  20407475.586    20407475.555    20407486.243
       236.000         188.000
 -27638684.41749 -21521963.52247  19962817.469    19962816.876    19962828.007
       244.000         202.000
 -27364749.22749 -21302296.02247  19579539.454    19579538.684    19579548.571
       238.000         199.000
 00 11 20 18 14 59.9940000  0  9G 1G 4G25G22G27G20G13G19G28
 -20452084.25149 -15914582.57047  19217342.576    19217341.738    19217351.729
       242.000         205.000
  -4778886.07149  -3704837.14645  22829817.872    22829817.551    22829835.083
       210.000         145.000
  10817482.79849   8424826.40446  22897072.252    22897070.870    22897088.666
       221.000         168.000
 -19134632.24849 -14551897.71147  19410280.951    19410279.576    19410290.512
       239.000         203.000
 -14796056.05049 -11505161.70546  21960290.254    21960289.686    21960304.233
       228.000         179.000
 -13853382.98249 -10778796.31047  19012485.857    19012484.690    19012493.947
       238.000         203.000
 -25924416.78549 -20179094.06547  20389332.783    20389332.790    20389343.472
       237.000         188.000
 -27720684.02249 -21585859.28247  19947213.498    19947212.866    19947223.957
       243.000         202.000
 -27442642.81349 -21362992.30247  19564716.810    19564716.008    19564725.881
       238.000         198.000
 00 11 20 18 15 29.9940000  0  9G 1G 4G25G22G27G20G13G19G28
 -20512648.75249 -15961775.69747  19205817.569    19205816.720    19205826.683
       242.000         206.000
  -4804418.77049  -3724732.85745  22824959.266    22824958.953    22824976.529
       215.000         151.000
  10870494.34549   8466133.82045  22907160.189    22907158.854    22907176.598
       217.000         156.000
 -19133007.24549 -14550631.55147  19410590.217    19410588.874    19410599.828
       239.000         203.000
 -14898839.71349 -11585252.77346  21940731.199    21940730.596    21940745.159
       225.000         179.000
 -13838289.81549 -10767035.48047  19015358.042    19015356.878    19015366.143
       239.000         203.000
 -26019645.11849 -20253297.89047  20371211.435    20371211.394    20371222.035
       237.000         188.000
 -27802414.73649 -21649545.52047  19931660.625    19931660.016    19931671.082
       243.000         203.000
 -27520026.12849 -21423290.96247  19549991.217    19549990.453    19550000.296
       238.000         199.000
 00 11 20 18 15 59.9940000  0  9G 1G 4G25G22G27G20G13G19G28
 -20573013.50149 -16008813.17147  19194330.552    19194329.707    19194339.662
       242.000         206.000
  -4829465.81449  -3744250.11645  22820193.320    22820192.839    22820210.472
       215.000         155.000
  10923485.12749   8507424.94446  22917244.156    22917242.862    22917260.851
       217.000         164.000
 -19130765.85549 -14548885.09047  19411016.784    19411015.450    19411026.429
       240.000         203.000
 -15001451.12849 -11665209.66346  21921204.770    21921204.209    21921218.690
       228.000         177.000
 -13822655.56549 -10754853.03147  19018333.203    19018332.039    19018341.322
       238.000         203.000
 -26114762.56149 -20327415.30246  20353111.190    20353111.106    20353121.700
       237.000         187.000
 -27883878.91649 -21713024.07947  19916158.451    19916157.880    19916168.931
       244.000         203.000
 -27596899.87749 -21483192.55647  19535362.653    19535361.842    19535371.681
       238.000         199.000
 00 11 20 18 16 29.9940000  0  9G 1G 4G25G22G27G20G13G19G28
 -20633164.32349 -16055683.95247  19182884.252    19182883.410    19182893.358
       242.000         206.000
  -4854015.39849  -3763379.72745  22815521.722    22815521.209    22815539.027
       215.000         149.000
  10976467.40649   8548709.54546  22927326.856    22927325.420    22927343.420
       219.000         163.000
 -19127896.11249 -14546648.99847  19411562.959    19411561.607    19411572.606
       240.000         203.000
 -15103876.94949 -11745021.89046  21901713.751    21901713.189    21901727.712
       225.000         180.000
 -13806468.42249 -10742239.75947  19021413.556    19021412.397    19021421.714
       239.000         203.000
 -26209755.00549 -20401435.31846  20335034.674    20335034.598    20335045.140
       237.000         187.000
 -27965063.80049 -21776284.99547  19900709.441    19900708.873    19900719.942
       244.000         203.000
 -27673249.41949 -21542685.67947  19520833.792    19520832.993    19520842.819
       238.000         199.000
 00 11 20 18 16 59.9940000  0  9G 1G 4G25G22G27G20G13G19G28
 -20693115.14449 -16102398.88647  19171476.001    19171475.152    19171485.112
       242.000         206.000
  -4878083.30849  -3782134.01545  22810941.601    22810941.216    22810959.192
       204.000         138.000
  11029425.66049   8589975.37045  22937404.397    22937403.137    22937421.390
       216.000         162.000
 -19124413.84749 -14543935.61747  19412225.669    19412224.326    19412235.339
       240.000         204.000
 -15206132.02349 -11824701.05646  21882255.089    21882254.580    21882269.157
       228.000         179.000
 -13789744.40949 -10729208.14947  19024596.056    19024594.926    19024604.261
       238.000         203.000
 -26304636.36249 -20475368.76947  20316979.294    20316979.209    20316989.729
       237.000         188.000
 -28045984.33749 -21839339.92847  19885310.706    19885310.188    19885321.265
       243.000         203.000
 -27749087.85849 -21601780.53047  19506402.184    19506401.397    19506411.226
       238.000         199.000
 00 11 20 18 17 29.9940000  0 10G 1G 4G 3G25G22G27G20G13G19G28
 -20752865.38549 -16148957.52347  19160105.874    19160105.050    19160115.048
       242.000         206.000
  -4901671.15749  -3800514.24045  22806453.044    22806452.635    22806470.577
       210.000         139.000
  -1860442.26359  -1151291.47255  23583717.824    23583716.965    23583739.336
       209.000         145.000
  11082358.34149   8631221.37145  22947477.473    22947476.229    22947494.431
       216.000         158.000
 -19120321.22449 -14540746.63147  19413004.546    19413003.178    19413014.214
       240.000         204.000
 -15308216.62849 -11904247.43446  21862828.959    21862828.472    21862842.944
       225.000         180.000
 -13772485.46349 -10715759.70847  19027880.375    19027879.243    19027888.603
       239.000         202.000
 -26399406.40649 -20549215.49747  20298945.126    20298945.019    20298955.526
       237.000         188.000
 -28126641.09249 -21902189.31147  19869962.223    19869961.686    19869972.773
       244.000         203.000
 -27824414.31349 -21660476.43147  19492067.986    19492067.218    19492077.051
       238.000         199.000
 00 11 20 18 17 59.9940000  0 10G 1G 4G 3G25G22G27G20G13G19G28
 -20812400.75249 -16195348.73147  19148776.644    19148775.843    19148785.840
       241.000         205.000
  -4924766.65649  -3818510.82945  22802058.222    22802057.722    22802075.702
       211.000         144.000
  -1963328.41549  -1231462.70845  23564139.248    23564138.459    23564160.799
       209.000         145.000
  11135278.10049   8672457.17545  22957548.002    22957546.726    22957565.122
       217.000         162.000
 -19115606.87149 -14537073.19047  19413901.691    19413900.344    19413911.416
       239.000         204.000
 -15410117.47249 -11983650.56746  21843437.769    21843437.296    21843451.878
       229.000         182.000
 -13754679.68149 -10701885.17447  19031268.810    19031267.635    19031277.009
       239.000         203.000
 -26494050.64149 -20622964.19747  20280934.834    20280934.760    20280945.264
       237.000         188.000
 -28207021.13049 -21964823.07647  19854666.364    19854665.845    19854676.942
       243.000         203.000
 -27899214.11149 -21718761.95047  19477833.997    19477833.250    19477843.098
       238.000         200.000
 00 11 20 18 18 29.9940000  0 10G 1G 4G 3G25G22G27G20G13G19G28
 -20871724.02849 -16241574.66847  19137487.798    19137487.015    19137497.004
       242.000         206.000
  -4947374.87649  -3836127.74245  22797756.136    22797755.593    22797773.535
       211.000         148.000
  -2066227.28049  -1311643.83345  23544558.363    23544557.569    23544579.866
       207.000         143.000
  11188180.08049   8713679.23146  22967615.346    22967614.008    22967632.400
       219.000         164.000
 -19110276.17349 -14532919.47647  19414916.144    19414914.798    19414925.901
       239.000         203.000
 -15511838.33549 -12062913.50446  21824080.854    21824080.402    21824094.900
       224.000         177.000
 -13736332.40649 -10687588.67947  19034760.245    19034759.071    19034768.456
       239.000         203.000
 -26588571.92149 -20696617.08947  20262947.935    20262947.881    20262958.412
       237.000         188.000
 -28287128.27149 -22027244.19547  19839422.481    19839421.941    19839433.038
       244.000         203.000
 -27973489.49349 -21776638.82747  19463699.848    19463699.078    19463708.935
       238.000         200.000
 00 11 20 18 18 59.9940000  0 10G 1G 4G 3G25G22G27G20G13G19G28
 -20930837.22649 -16287636.90447  19126238.979    19126238.181    19126248.147
       241.000         206.000
  -4969499.75849  -3853367.99745  22793545.932    22793545.405    22793563.421
       207.000         144.000
  -2169138.89349  -1391834.88545  23524975.079    23524974.253    23524996.617
       205.000         143.000
  11241060.83649   8754884.60045  22977678.318    22977677.049    22977695.626
       218.000         157.000
 -19104333.10149 -14528288.58447  19416047.080    19416045.776    19416056.910
       239.000         203.000
 -15613381.86349 -12142038.22346  21804757.731    21804757.239    21804771.771
       230.000         184.000
 -13717447.92849 -10672873.59447  19038353.900    19038352.739    19038362.140
       239.000         203.000
 -26682972.26549 -20770175.73847  20244984.084    20244984.035    20244994.548
       237.000         188.000
 -28366965.75949 -22089455.19047  19824229.902    19824229.366    19824240.449
       244.000         203.000
 -28047242.00949 -21834108.28447  19449665.151    19449664.417    19449674.267
       238.000         200.000
 00 11 20 18 19 29.9940000  0 10G 1G 4G 3G25G22G27G20G13G19G28
 -20989729.30049 -16333526.84747  19115032.226    19115031.410    19115041.364
       242.000         206.000
  -4991132.80549  -3870224.94145  22789429.181    22789428.750    22789446.916
       210.000         147.000
  -2272050.28849  -1472025.73745  23505391.881    23505390.969    23505413.401
       206.000         142.000
  11293929.08349   8796080.42045  22987739.208    22987737.889    22987756.387
       217.000         158.000
 -19097768.99549 -14523173.77147  19417296.288    19417294.945    19417306.098
       240.000         204.000
 -15714738.16449 -12221017.06246  21785470.170    21785469.691    21785484.221
       225.000         178.000
 -13698017.87249 -10657733.37447  19042051.411    19042050.213    19042059.658
       239.000         203.000
 -26777240.78849 -20843631.66847  20227045.322    20227045.277    20227055.765
       237.000         188.000
 -28446523.69649 -22151448.35047  19809090.527    19809089.971    19809101.077
       243.000         203.000
 -28120460.09449 -21891161.29447  19435732.229    19435731.474    19435741.303
       238.000         200.000
 00 11 20 18 19 59.9940000  0 10G 1G 4G 3G25G22G27G20G13G19G28
 -21048398.97849 -16379243.49047  19103867.747    19103866.951    19103876.899
       242.000         205.000
  -5012274.34649  -3886698.92745  22785406.066    22785405.600    22785423.904
       211.000         142.000
  -2374958.40849  -1552214.00545  23485809.216    23485808.342    23485830.820
       204.000         143.000
  11346784.55949   8837266.16445  22997797.513    22997796.192    22997814.786
       215.000         159.000
 -19090585.30149 -14517576.16147  19418663.362    19418662.019    19418673.195
       239.000         203.000
 -15815906.67149 -12299849.58946  21766218.459    21766217.933    21766232.332
       230.000         184.000
 -13678043.05349 -10642168.66947  19045852.543    19045851.367    19045860.836
       239.000         203.000
 -26871375.80049 -20916983.56647  20209131.972    20209131.933    20209142.382
       237.000         188.000
 -28525801.73449 -22213223.40547  19794004.384    19794003.839    19794014.957
       243.000         203.000
 -28193141.97649 -21947796.48747  19421901.312    19421900.556    19421910.358
       237.000         200.000
 00 11 20 18 20 29.9940000  0 10G 1G 4G 3G25G22G27G20G13G19G28
 -21106868.87349 -16424804.46647  19092741.305    19092740.517    19092750.433
       241.000         205.000
  -5032949.64549  -3902809.67845  22781471.938    22781471.377    22781489.567
       213.000         147.000
  -2477884.34049  -1632416.09945  23466223.227    23466222.294    23466244.806
       205.000         142.000
  11399602.96849   8878423.02346  23007848.565    23007847.353    23007866.083
       219.000         163.000
 -19082807.94049 -14511515.95647  19420143.403    19420142.058    19420153.256
       240.000         204.000
 -15916911.13949 -12378554.25446  21746997.795    21746997.316    21747011.786
       228.000         180.000
 -13657548.91449 -10626199.29747  19049752.492    19049751.334    19049760.830
       239.000         203.000
 -26965400.18849 -20990249.25847  20191239.623    20191239.631    20191250.058
       237.000         188.000
 -28604824.09349 -22274799.23147  19778966.888    19778966.352    19778977.461
       242.000         203.000
 -28265310.08749 -22004031.33647  19408168.135    19408167.411    19408177.186
       238.000         201.000
 00 11 20 18 20 59.9940000  0 10G 1G 4G 3G25G22G27G20G13G19G28
 -21165138.03949 -16470209.02347  19081653.078    19081652.277    19081662.179
       242.000         205.000
  -5053160.16849  -3918558.25545  22777626.161    22777625.587    22777643.586
       214.000         147.000
  -2580825.75049  -1712630.25345  23446634.262    23446633.319    23446655.805
       207.000         140.000
  11452382.89349   8919549.91545  23017892.669    23017891.323    23017910.120
       217.000         160.000
 -19074438.50249 -14504994.39047  19421736.134    19421734.766    19421745.988
       239.000         203.000
 -16017751.67449 -12457131.23946  21727808.506    21727807.976    21727822.277
       230.000         182.000
 -13636537.16249 -10609826.59547  19053750.942    19053749.805    19053759.320
       239.000         203.000
 -27059313.13849 -21063428.12047  20173368.597    20173368.538    20173378.948
       237.000         188.000
 -28683591.09849 -22336176.08747  19763977.973    19763977.464    19763988.569
       242.000         203.000
 -28336963.26149 -22059864.92647  19394533.000    19394532.243    19394542.005
       238.000         200.000
 00 11 20 18 21 29.9940000  0 10G 1G 4G 3G25G22G27G20G13G19G28
 -21223202.50449 -16515454.06647  19070603.758    19070602.974    19070612.884
       241.000         205.000
  -5072904.25249  -3933943.35145  22773869.065    22773868.520    22773886.592
       210.000         148.000
  -2683776.72149  -1792851.81445  23427043.584    23427042.492    23427065.052
       205.000         140.000
  11505126.74249   8960648.77145  23027929.644    23027928.297    23027947.143
       213.000         152.000
 -19065475.42449 -14498010.24447  19423441.808    19423440.452    19423451.684
       239.000         204.000
 -16118425.34749 -12535578.14246  21708650.835    21708650.339    21708664.664
       226.000         181.000
 -13615006.36449 -10593049.43747  19057848.183    19057847.032    19057856.575
       239.000         203.000
 -27153110.76449 -21136517.10947  20155519.368    20155519.360    20155529.783
       236.000         189.000
 -28762099.86649 -22397351.70247  19749038.271    19749037.738    19749048.807
       243.000         203.000
 -28408097.17349 -22115293.90147  19380996.648    19380995.907    19381005.621
       238.000         201.000
 00 11 20 18 21 59.9940000  0 10G 1G 4G 3G25G22G27G20G13G19G28
 -21281045.90049 -16560526.85147  19059596.530    19059595.757    19059605.657
       241.000         205.000
  -5092167.88749  -3948954.09145  22770203.558    22770202.933    22770220.892
       210.000         149.000
  -2786719.18549  -1873066.71645  23407454.408    23407453.398    23407475.876
       201.000         136.000
  11557848.60849   9001730.40145  23037962.554    23037961.212    23037980.200
       221.000         162.000
 -19055904.93149 -14490552.80247  19425263.022    19425261.712    19425272.965
       239.000         204.000
 -16218916.75749 -12613883.08846  21689528.016    21689527.468    21689541.663
       230.000         182.000
 -13592942.82449 -10575857.16347  19062046.788    19062045.649    19062055.216
       239.000         203.000
 -27246776.68649 -21209503.48347  20137695.199    20137695.259    20137705.710
       237.000         188.000
 -28840335.42349 -22458314.43147  19734150.528    19734149.986    19734161.037
       243.000         203.000
 -28478695.40149 -22170305.47347  19367562.247    19367561.496    19367571.187
       238.000         201.000
 00 11 20 18 22 29.9940000  0 10G 1G 4G 3G25G22G27G20G13G19G28
 -21338667.19249 -16605426.55547  19048631.562    19048630.792    19048640.711
       241.000         205.000
  -5110952.21949  -3963591.27545  22766628.886    22766628.335    22766646.565
       212.000         149.000
  -2889650.32249  -1953272.78645  23387867.345    23387866.316    23387888.818
       197.000         132.000
  11610548.09249   9042794.62445  23047991.210    23047989.862    23048008.925
       208.000         152.000
 -19045729.03449 -14482623.61147  19427199.532    19427198.186    19427209.459
       239.000         204.000
 -16319225.76749 -12692045.85646  21670439.801    21670439.241    21670453.424
       229.000         183.000
 -13570348.03449 -10558250.92947  19066346.490    19066345.349    19066354.952
       239.000         203.000
 -27340309.99749 -21282386.52347  20119896.451    20119896.414    20119906.855
       237.000         189.000
 -28918297.95949 -22519064.42247  19719314.720    19719314.181    19719325.205
       243.000         203.000
 -28548756.58349 -22224898.57147  19354230.021    19354229.290    19354238.936
       237.000         200.000
 00 11 20 18 22 59.9940000  0 10G 1G 4G 3G25G22G27G20G13G19G28
 -21396078.30149 -16650162.47447  19037706.622    19037705.834    19037715.748
       241.000         205.000
  -5129271.40849  -3977866.08345  22763143.014    22763142.448    22763160.616
       210.000         149.000
  -2992579.99248  -2033477.65844  23368280.411    23368279.459    23368301.967
       193.000         131.000
  11663211.66149   9083830.86245  23058012.891    23058011.610    23058030.637
       221.000         159.000
 -19034962.44549 -14474234.14747  19429248.399    19429247.068    19429258.348
       239.000         203.000
 -16419365.06749 -12770076.40846  21651384.012    21651383.367    21651397.456
       229.000         180.000
 -13547236.32149 -10540241.90047  19070744.570    19070743.412    19070753.054
       239.000         202.000
 -27433722.05949 -21355175.09247  20102120.709    20102120.667    20102131.077
       237.000         189.000
 -28996000.40349 -22579611.75147  19704528.404    19704527.861    19704538.888
       243.000         203.000
 -28618291.98249 -22279081.96547  19340997.854    19340997.114    19341006.745
       237.000         200.000
 00 11 20 18 23 29.9940000  0 10G 1G 4G 3G25G22G27G20G13G19G28
 -21453278.85149 -16694734.31947  19026821.752    19026820.950    19026830.846
       241.000         205.000
  -5147127.43549  -3991779.95245  22759745.240    22759744.694    22759762.887
       213.000         149.000
  -3095506.43449  -2113680.04144  23348693.993    23348693.118    23348715.980
       195.000         127.000
  11715837.38749   9124837.65145  23068027.494    23068026.265    23068045.293
       215.000         154.000
 -19023607.38449 -14465386.13547  19431409.306    19431407.922    19431419.237
       239.000         204.000
 -16519335.49349 -12847975.37146  21632360.224    21632359.571    21632373.604
       230.000         184.000
 -13523610.10249 -10521831.94747  19075240.485    19075239.373    19075249.064
       239.000         202.000
 -27527012.68349 -21427869.02647  20084368.095    20084368.019    20084378.399
       238.000         189.000
 -29073443.88049 -22639957.29047  19689791.345    19689790.828    19689801.853
       243.000         203.000
 -28687301.35249 -22332855.46547  19327865.807    19327865.058    19327874.660
       238.000         200.000
 00 11 20 18 23 59.9940000  0 10G 1G 4G 3G25G22G27G20G13G19G28
 -21510266.19649 -16739140.02647  19015977.388    19015976.622    19015986.518
       241.000         205.000
  -5164520.15949  -4005332.84445  22756435.557    22756435.025    22756453.194
       210.000         146.000
  -3198425.57249  -2193876.70644  23329109.243    23329108.208    23329131.089
       196.000         128.000
  11768426.66949   9165815.90945  23078035.020    23078033.848    23078053.103
       216.000         162.000
 -19011663.82949 -14456079.55747  19433682.124    19433680.773    19433692.101
       240.000         204.000
 -16619135.26349 -12925741.33046  21613368.843    21613368.254    21613382.316
       228.000         182.000
 -13499469.64449 -10503021.29247  19079834.347    19079833.216    19079842.925
       240.000         203.000
 -27620179.53749 -21500466.52047  20066639.053    20066638.916    20066649.259
       238.000         189.000
 -29150627.25949 -22700100.15347  19675103.824    19675103.295    19675114.319
       243.000         203.000
 -28755781.90949 -22386216.90547  19314834.367    19314833.621    19314843.202
       237.000         200.000
 00 11 20 18 24 29.9940000  0 10G 1G 4G 3G25G22G27G20G13G19G28
 -21567031.15349 -16783372.44947  19005175.335    19005174.593    19005184.516
       240.000         205.000
  -5181442.86149  -4018519.43245  22753215.064    22753214.732    22753232.960
       209.000         145.000
  -3301326.19348  -2274058.95544  23309528.122    23309526.912    23309549.907
       191.000         123.000
  11820986.61949   9206771.40245  23088037.240    23088036.007    23088055.323
       213.000         151.000
 -18999125.61049 -14446309.60947  19436068.172    19436066.796    19436078.134
       240.000         204.000
 -16718756.23449 -13003367.99046  21594411.559    21594410.989    21594424.971
       229.000         183.000
 -13474808.41349 -10483804.84047  19084527.308    19084526.157    19084535.894
       239.000         203.000
 -27713213.12449 -21572960.17547  20048935.237    20048935.156    20048945.482
       238.000         190.000
 -29227542.72149 -22760034.25247  19660467.298    19660466.748    19660477.771
       243.000         203.000
 -28823724.21049 -22439158.92947  19301905.359    19301904.611    19301914.189
       237.000         200.000
 00 11 20 18 24 59.9940000  0 10G 1G 4G 3G25G22G27G20G13G19G28
 -21623561.84149 -16827422.31947  18994417.884    18994417.148    18994427.089
       240.000         204.000
  -5197886.49349  -4031332.76645  22750086.037    22750085.666    22750103.944
       212.000         145.000
  -3404194.77348  -2354216.23744  23289952.792    23289951.661    23289974.808
       192.000         123.000
  11873527.04649   9247711.65845  23098035.505    23098034.290    23098053.715
       216.000         160.000
 -18985984.20649 -14436069.64047  19438569.012    19438567.608    19438578.948
       240.000         204.000
 -16818187.78849 -13080847.01846  21575490.227    21575489.687    21575503.759
       231.000         184.000
 -13449617.47749 -10464175.63447  19089321.092    19089319.908    19089329.672
       240.000         203.000
 -27806101.76949 -21645340.89347  20031259.060    20031258.989    20031269.312
       239.000         190.000
 -29304179.41449 -22819751.13047  19645883.797    19645883.255    19645894.282
       242.000         203.000
 -28891116.31549 -22491672.23147  19289081.052    19289080.303    19289089.861
       237.000         200.000
 00 11 20 18 25 29.9940000  0 10G 1G 4G 3G25G22G27G20G13G19G28
 -21679866.89349 -16871296.37447  18983703.404    18983702.655    18983712.588
       240.000         204.000
  -5213861.64849  -4043781.03745  22747046.299    22747045.846    22747064.067
       214.000         146.000
  -3507038.13749  -2434353.88544  23270382.315    23270381.335    23270404.404
       195.000         123.000
  11926037.70749   9288628.71846  23108028.368    23108027.038    23108046.441
       226.000         163.000
 -18972251.13549 -14425368.63347  19441182.376    19441181.000    19441192.353
       240.000         203.000
 -16917439.39149 -13158185.85246  21556603.228    21556602.692    21556616.716
       231.000         183.000
 -13423907.89149 -10444142.28747  19094213.591    19094212.355    19094222.136
       240.000         203.000
 -27898853.96749 -21717615.27647  20013608.859    20013608.778    20013619.113
       238.000         190.000
 -29380547.50249 -22879258.70447  19631351.382    19631350.866    19631361.884
       242.000         203.000
 -28957966.59249 -22543763.32247  19276359.845    19276359.096    19276368.644
       237.000         200.000
 00 11 20 18 25 59.9940000  0 10G 1G 4G 3G25G22G27G20G13G19G28
 -21735950.21449 -16914997.65647  18973031.088    18973030.351    18973040.284
       241.000         205.000
  -5229374.85749  -4055869.36045  22744094.490    22744093.920    22744112.086
       214.000         146.000
  -3609858.29648  -2514473.39844  23250816.309    23250815.273    23250838.336
       193.000         119.000
  11978513.05749   9329518.30545  23118014.327    23118013.052    23118032.488
       206.000         147.000
 -18957932.61549 -14414211.43247  19443907.180    19443905.785    19443917.161
       239.000         203.000
 -17016515.91349 -13235388.22746  21537749.428    21537748.951    21537763.052
       232.000         184.000
 -13397686.37149 -10423710.03447  19099203.444    19099202.216    19099212.011
       240.000         203.000
 -27991473.42449 -21789786.22747  19995983.920    19995983.833    19995994.148
       237.000         190.000
 -29456651.96749 -22938560.85347  19616869.148    19616868.632    19616879.673
       242.000         203.000
 -29024279.11249 -22595435.38847  19263740.957    19263740.216    19263749.763
       237.000         200.000
 00 11 20 18 26 29.9940000  0 10G 1G 4G 3G25G22G27G20G13G19G28
 -21791803.86149 -16958519.97447  18962402.461    18962401.748    18962411.680
       240.000         205.000
  -5244420.81049  -4067593.61045  22741231.322    22741230.781    22741248.880
       213.000         146.000
  -3712645.91448  -2594567.59544  23231256.346    23231255.198    23231278.534
       194.000         120.000
  12030958.88349   9370384.80145  23127994.546    23127993.352    23128012.936
       217.000         157.000
 -18943023.71549 -14402594.19847  19446744.288    19446742.920    19446754.304
       239.000         203.000
 -17115410.61249 -13312448.94246  21518930.387    21518929.891    21518943.935
       230.000         184.000
 -13370947.79549 -10402874.87247  19104291.685    19104290.460    19104300.294
       240.000         204.000
 -28083952.39949 -21861847.70447  19978385.745    19978385.640    19978395.929
       238.000         190.000
 -29532486.28749 -22997652.50347  19602438.311    19602437.811    19602448.855
       242.000         203.000
 -29090045.73749 -22646682.08047  19251225.959    19251225.215    19251234.754
       236.000         200.000
 00 11 20 18 26 59.9940000  0 10G 1G 4G 3G25G22G27G20G13G19G28
 -21847426.08349 -17001861.96547  18951817.894    18951817.174    18951827.126
       240.000         205.000
  -5259000.35049  -4078954.41945  22738457.135    22738456.543    22738474.607
       215.000         147.000
  -3815397.52649  -2674633.76344  23211703.203    23211702.094    23211725.559
       195.000         122.000
  12083375.27749   9411228.45845  23137969.323    23137968.128    23137987.754
       213.000         151.000
 -18927525.86249 -14390518.04847  19449693.501    19449692.129    19449703.537
       239.000         203.000
 -17214122.96449 -13389367.56846  21500145.900    21500145.458    21500159.505
       231.000         185.000
 -13343693.47749 -10381637.84047  19109478.060    19109476.860    19109486.702
       240.000         203.000
 -28176289.14449 -21933798.35447  19960814.585    19960814.507    19960824.773
       239.000         191.000
 -29608049.92749 -23056533.23047  19588059.016    19588058.510    19588069.537
       243.000         203.000
 -29155264.72349 -22697502.04947  19238815.114    19238814.426    19238823.969
       236.000         199.000
 00 11 20 18 27 29.9940000  0 10G 1G 4G 3G25G22G27G20G13G19G28
 -21902815.11549 -17045022.24847  18941277.706    18941276.993    18941286.947
       240.000         205.000
  -5273113.88549  -4089952.11545  22735771.575    22735770.931    22735788.938
       214.000         146.000
  -3918109.26049  -2754668.87144  23192157.743    23192156.754    23192180.273
       198.000         125.000
  12135762.49149   9452049.28345  23147938.424    23147937.255    23147957.054
       217.000         156.000
 -18911440.57449 -14377984.15547  19452754.488    19452753.127    19452764.560
       240.000         203.000
 -17312651.97849 -13466143.33046  21481396.447    21481395.957    21481410.012
       230.000         183.000
 -13315924.40649 -10359999.70247  19114762.425    19114761.224    19114771.061
       240.000         203.000
 -28268481.85949 -22005636.77747  19943270.880    19943270.776    19943281.030
       238.000         191.000
 -29683342.45749 -23115202.71247  19573731.320    19573730.799    19573741.807
       242.000         203.000
 -29219934.18949 -22747893.81647  19226508.901    19226508.205    19226517.738
       236.000         199.000
 00 11 20 18 27 59.9940000  0 10G 1G 4G 3G25G22G27G20G13G19G28
 -21957977.56949 -17088005.99247  18930780.660    18930779.934    18930789.881
       240.000         205.000
  -5286771.06249  -4100594.22645  22733172.811    22733172.175    22733190.108
       213.000         148.000
  -4020786.08149  -2834676.75444  23172618.912    23172618.077    23172641.451
       200.000         126.000
  12188112.27049   9492841.00845  23157900.595    23157899.383    23157919.211
       216.000         155.000
 -18894777.44549 -14365000.00347  19455925.436    19455924.087    19455935.540
       240.000         203.000
 -17411005.19549 -13542782.11946  21462680.321    21462679.857    21462693.868
       232.000         185.000
 -13287650.02349 -10337967.81447  19120142.921    19120141.723    19120151.590
       240.000         203.000
 -28360537.05249 -22077368.04547  19925753.286    19925753.215    19925763.456
       239.000         191.000
 -29758371.99449 -23173667.27247  19559453.665    19559453.147    19559464.125
       242.000         203.000
 -29284060.91249 -22797862.67247  19214305.955    19214305.263    19214314.803
       236.000         199.000
 00 11 20 18 28 29.9940000  0 10G 1G 4G 3G25G22G27G20G13G19G28
 -22012909.60349 -17130810.17247  18920327.456    18920326.717    18920336.664
       241.000         205.000
  -5299970.56049  -4110879.67945  22730661.116    22730660.522    22730678.420
       212.000         147.000
  -4123422.47149  -2914653.16444  23153087.771    23153086.937    23153110.128
       198.000         123.000
  12240426.35049   9533604.92445  23167855.892    23167854.700    23167874.516
       219.000         159.000
 -18877535.20849 -14351564.59547  19459206.610    19459205.253    19459216.727
       240.000         203.000
 -17509180.01949 -13619281.86646  21443998.084    21443997.698    21444011.741
       230.000         183.000
 -13258869.34449 -10315541.40747  19125619.771    19125618.573    19125628.468
       241.000         203.000
 -28452450.80449 -22148989.09447  19908262.648    19908262.556    19908272.814
       239.000         191.000
 -29833136.01549 -23231924.92647  19545226.547    19545226.008    19545236.977
       242.000         203.000
 -29347641.11249 -22847405.66447  19202206.990    19202206.317    19202215.864
       236.000         199.000
 00 11 20 18 28 59.9940000  0 10G 1G 4G 3G25G22G27G20G13G19G28
 -22067608.01349 -17173432.31547  18909918.734    18909917.960    18909927.901
       241.000         205.000
  -5312711.72849  -4120808.01145  22728236.582    22728236.038    22728253.951
       210.000         145.000
  -4226013.46449  -2994594.19044  23133565.237    23133564.537    23133587.772
       201.000         125.000
  12292706.13949   9574342.01945  23177804.697    23177803.519    23177823.489
       211.000         158.000
 -18859713.69449 -14337677.80647  19462598.036    19462596.648    19462608.147
       239.000         203.000
 -17607174.38849 -13695641.05346  21425350.349    21425349.948    21425363.910
       230.000         184.000
 -13229582.23849 -10292720.38647  19131193.009    19131191.812    19131201.704
       240.000         204.000
 -28544219.78349 -22220497.34347  19890799.510    19890799.459    19890809.709
       239.000         191.000
 -29907632.64949 -23289974.23747  19531050.257    19531049.758    19531060.718
       242.000         203.000
 -29410671.73749 -22896520.42547  19190212.645    19190211.968    19190221.524
       235.000         199.000
